     2              OBSERVATION DATA    GPS                 RINEX VERSION / TYPE
teqc 2000Feb29 Duncan Agnew 20000428 20:58:42UTC            PGM / RUN BY / DATE
                                                            COMMENT
L2: 1 -> 1; 150 -> 5; 250 -> 9                              COMMENT
L2: 1 -> 1; 150 -> 5; 250 -> 9                              COMMENT
L2: 1 -> 1; 150 -> 5; 250 -> 9                              COMMENT
L2: 1 -> 1; 150 -> 5; 250 -> 9                              COMMENT
L2: 1 -> 1; 150 -> 5; 250 -> 9                              COMMENT
Original Marker Name: 7002                                  COMMENT
Campaign Name: Hector Postseismic                           COMMENT
4-Character Station Name: 7002                              COMMENT
6-Character Antenna Code: DMRCHT                            COMMENT
Vertical Measurement Point: BCR                             COMMENT
Vertical Offset to Rinex Ref. Point: 0.0348                 COMMENT
Radial Measurement Point: ECF                               COMMENT
Radial Offset to Rinex Ref. Point: 0.1897                   COMMENT
Antenna Height from Field Measurement: 0.8100 m             COMMENT
Additional Antenna Identification Info.:                    COMMENT
Turborogue and Ashtech Choke Ring                           COMMENT
Original XYZ: -2343995.6887 -4721042.4848 3580610.8382      COMMENT
New XYZ position is based on association with SCEC monument COMMENT
E1F2H3I0+0011. Position of that monument is believed to be  COMMENT
valid to within 1 m horizontally; vertical accuracy         COMMENT
should be no worse than 3-times this value.                 COMMENT
                                                            COMMENT
Revised Rinex header created by UCSD GPS archive for        COMMENT
GSAC on 17-Jun-2000 (2000:169) 00:27:20 GMT                 COMMENT
For assistance contact dagnew@ucsd.edu                      COMMENT
or anderson@python.ucsd.edu                                 COMMENT
                                                            COMMENT
T3N R3E R6E S1S6S12S7                                       MARKER NAME
PWS UNIV SOUTHERN CALIFORNIA                                OBSERVER / AGENCY
174 ASHTECH Z-XII3 CD00                                     REC # / TYPE / VERS
364 DORNE-MARGOL. TYPE T                                    ANT # / TYPE
 -2343985.0255 -4721112.0214  3580580.7911                  APPROX POSITION XYZ
        0.7527        0.0000        0.0000                  ANTENNA: DELTA H/E/N
     1     1     0                                          WAVELENGTH FACT L1/2
     7    C1    L1    L2    P1    P2    S1    S2            # / TYPES OF OBSERV
     0                                                      INTERVAL
  2000     3    12     0     0   30.000000                  TIME OF FIRST OBS
  2000     3    12    23    59   30.000000                  TIME OF LAST OBS
                                                            END OF HEADER
 00  3 12  0  0 30.0000000  0  7G17G30G 5G13G 6G24G10
  23011269.210   -13677579.47149  -9763059.34746  23011268.091    23011286.484
       225.000         174.000
  20527291.701   -18698950.88049 -14549384.63747  20527291.842    20527303.491
       244.000         211.000
  21585963.088      753405.89749    847046.15847  21585962.769    21585977.825
       236.000         195.000
  24928448.045    -9181130.52449  -6552941.31845  24928448.684    24928467.617
       203.000         133.000
  21262666.103   -18736123.79049 -14069972.63447  21262665.383    21262678.182
       241.000         204.000
  22457235.596    12165953.77149   9486226.22246  22457235.379    22457251.658
       225.000         173.000
  20456754.353   -18556210.77449 -14121678.47247  20456753.374    20456765.874
       243.000         208.000
 00  3 12  0  1  0.0000000  0  7G17G30G 5G13G 6G24G10
  22997794.984   -13748386.15249  -9818233.14246  22997793.919    22997812.256
       225.000         174.000
  20530838.236   -18680313.50949 -14534862.02247  20530838.356    20530849.883
       244.000         211.000
  21601701.680      836112.19549    911492.49247  21601701.213    21601716.130
       236.000         195.000
  24922862.735    -9210481.35149  -6575811.92745  24922862.951    24922882.179
       207.000         133.000
  21251748.026   -18793498.32149 -14114679.92447  21251747.301    21251760.361
       241.000         205.000
  22471316.414    12239948.49549   9543884.35446  22471316.062    22471332.519
       225.000         172.000
  20460634.904   -18535818.30549 -14105788.20947  20460633.858    20460646.122
       243.000         208.000
 00  3 12  0  1 30.0000000  0  7G17G30G 5G13G 6G24G10
  22984357.179   -13819001.34649  -9873257.73046  22984355.542    22984374.487
       224.000         175.000
  20534488.038   -18661133.74849 -14519916.76447  20534488.000    20534499.792
       244.000         211.000
  21617496.305      919113.10749    976168.39447  21617495.869    21617510.622
       235.000         195.000
  24917351.256    -9239443.80649  -6598379.92445  24917349.678    24917369.638
       204.000         135.000
  21240858.543   -18850722.36849 -14159269.94847  21240857.850    21240870.654
       241.000         205.000
  22485399.651    12313956.02949   9601552.50146  22485398.872    22485415.991
       225.000         172.000
  20464628.882   -18514829.79949 -14089433.49547  20464627.903    20464640.322
       243.000         208.000
 00  3 12  0  2  0.0000000  0  7G17G30G 5G13G 6G24G10
  23270748.802   -12314001.93849  -8700530.67946  23270747.397    23270765.900
       225.000         175.000
  20838038.261   -17065966.54149 -13276929.33847  20838038.506    20838050.161
       244.000         211.000
  21933142.276     2577843.39049   2268685.35947  21933142.072    21933156.835
       235.000         194.000
  25211709.250    -7692581.11449  -5393032.22145  25211708.637    25211728.542
       201.000         134.000
  21529793.068   -17332360.66149 -12976130.81947  21529792.305    21529805.076
       241.000         205.000
  22799283.205    13963425.17649  10886853.04546  22799283.674    22799299.301
       225.000         172.000
  20768533.588   -16917799.57049 -12844994.32047  20768532.554    20768544.835
       243.000         208.000
 00  3 12  0  2 30.0000000  0  7G17G30G 5G13G 6G24G10
  23257383.902   -12384233.93649  -8755256.67646  23257382.289    23257401.416
       225.000         175.000
  20841907.191   -17045635.39149 -13261086.89347  20841907.178    20841918.898
       244.000         211.000
  21949056.006     2661470.13449   2333848.92647  21949055.115    21949070.481
       235.000         193.000
  25206348.737    -7720750.36949  -5414982.13545  25206346.789    25206369.383
       199.000         133.000
  21518966.127   -17389256.18349 -13020464.86147  21518965.360    21518978.199
       241.000         205.000
  22813382.788    14037518.56549  10944588.07646  22813382.854    22813397.908
       225.000         172.000
  20772763.772   -16895569.71649 -12827672.31847  20772762.746    20772775.226
       243.000         208.000
 00  3 12  0  3  0.0000000  0  7G17G30G 5G13G 6G24G10
  23244055.499   -12454274.03249  -8809833.14346  23244054.176    23244072.648
       225.000         175.000
  20845888.287   -17024714.64749 -13244785.02447  20845888.512    20845900.133
       244.000         211.000
  21965030.265     2745414.90549   2399260.30247  21965029.946    21965044.782
       235.000         193.000
  25201058.506    -7748549.46149  -5436643.60245  25201058.120    25201077.257
       199.000         132.000
  21508169.790   -17445990.77149 -13064673.50247  21508169.114    21508181.657
       241.000         205.000
  22827487.394    14111638.58249  11002343.84746  22827487.489    22827502.811
       224.000         171.000
  20777113.209   -16872713.25049 -12809862.04647  20777112.045    20777124.354
       243.000         208.000
 00  3 12  0  3 30.0000000  0  7G17G30G 5G13G 6G24G10
  23230763.609   -12524122.28149  -8864260.10946  23230762.248    23230779.776
       224.000         175.000
  20849980.053   -17003212.40749 -13228030.04147  20849980.199    20849991.897
       244.000         211.000
  21981066.945     2829687.73149   2464927.30347  21981066.804    21981081.730
       234.000         193.000
  25195840.272    -7775969.99249  -5458010.09544  25195838.824    25195860.406
       199.000         130.000
  21497402.062   -17502574.91849 -13108764.92547  21497401.319    21497414.110
       241.000         206.000
  22841593.445    14185766.10149  11060105.45246  22841593.234    22841609.506
       225.000         171.000
  20781577.163   -16849254.93249 -12791582.79947  20781576.044    20781588.434
       243.000         208.000
 00  3 12  0  4  0.0000000  0  7G17G30G 5G13G 6G24G10
  23217508.223   -12593778.91249  -8918537.78446  23217507.014    23217524.917
       225.000         175.000
  20854177.278   -16981155.78249 -13210843.07047  20854177.383    20854189.090
       245.000         211.000
  21997163.424     2914274.58549   2530838.99247  21997163.291    21997178.208
       235.000         192.000
  25190694.275    -7803012.26149  -5479081.83844  25190693.696    25190712.507
       196.000         129.000
  21486660.418   -17559021.80349 -13152749.39147  21486659.665    21486672.406
       242.000         206.000
  22855696.244    14259876.26149  11117853.53246  22855696.640    22855712.814
       225.000         171.000
  20786146.528   -16825242.59649 -12772871.85347  20786145.601    20786157.574
       243.000         208.000
 00  3 12  0  4 30.0000000  0  7G17G30G 5G13G 6G24G10
  23204289.409   -12663243.36849  -8972665.70346  23204288.116    23204306.184
       225.000         174.000
  20858478.947   -16958550.30749 -13193228.41947  20858479.075    20858490.915
       245.000         211.000
  22013320.775     2999181.59049   2597000.15647  22013320.365    22013335.359
       234.000         192.000
  25185621.200    -7829670.14649  -5499854.06644  25185621.357    25185639.714
       199.000         129.000
  21475945.988   -17615326.08249 -13196622.73947  21475945.292    21475957.838
       242.000         206.000
  22869791.943    14333949.17949  11175572.60346  22869791.023    22869807.620
       225.000         171.000
  20790820.365   -16800681.12149 -12753733.00847  20790819.305    20790831.748
       243.000         208.000
 00  3 12  0  5  0.0000000  0  7G17G30G 5G13G 6G24G10
  23191107.144   -12732515.41749  -9026643.69446  23191106.061    23191123.854
       225.000         174.000
  20862884.268   -16935400.25549 -13175189.42647  20862884.286    20862896.044
       244.000         211.000
  22029540.076     3084414.08949   2663414.94547  22029539.827    22029554.921
       234.000         191.000
  25180625.368    -7855923.34049  -5520310.95144  25180625.676    25180644.527
       203.000         130.000
  21465259.931   -17671481.40249 -13240380.01347  21465259.130    21465271.721
       241.000         206.000
  22883880.400    14407984.17049  11233262.13146  22883880.339    22883896.679
       224.000         170.000
  20795598.658   -16775570.94549 -12734166.60247  20795597.487    20795609.849
       242.000         208.000
 00  3 12  0  5 30.0000000  0  7G17G30G 5G13G 6G24G10
  23177961.497   -12801595.28849  -9080471.94646  23177959.892    23177978.591
       225.000         175.000
  20867393.217   -16911705.47249 -13156725.96547  20867393.164    20867405.011
       245.000         211.000
  22045821.195     3169971.34749   2730082.79347  22045820.566    22045836.014
       235.000         191.000
  25175709.348    -7881756.62549  -5540440.65744  25175709.469    25175729.859
       200.000         129.000
  21454603.882   -17727478.50749 -13284014.00847  21454603.247    21454616.020
       242.000         206.000
  22897964.586    14481996.77749  11290934.18946  22897964.379    22897980.438
       224.000         170.000
  20800479.129   -16749923.75149 -12714181.74847  20800478.169    20800490.545
       242.000         207.000
 00  3 12  0  6  0.0000000  0  7G17G30G 5G13G 6G24G10
  23164852.453   -12870482.81749  -9134150.31046  23164851.377    23164868.814
       226.000         176.000
  20872009.590   -16887446.36049 -13137822.77047  20872009.578    20872021.313
       245.000         211.000
  22062161.258     3255838.39349   2796992.03547  22062160.844    22062176.110
       234.000         191.000
  25170873.567    -7907168.53949  -5560242.00844  25170871.418    25170893.361
       200.000         129.000
  21443981.016   -17783301.67649 -13327512.47047  21443980.221    21443992.781
       242.000         206.000
  22912047.504    14556002.44049  11348600.84246  22912047.669    22912063.583
       223.000         170.000
  20805466.980   -16723712.35549 -12693757.25747  20805465.966    20805478.228
       242.000         207.000
 00  3 12  0  6 30.0000000  0  7G17G30G 5G13G 6G24G10
  23151780.121   -12939177.79149  -9187678.64346  23151778.597    23151796.576
       226.000         176.000
  20876735.550   -16862611.37149 -13118470.84547  20876735.507    20876747.196
       244.000         211.000
  22078559.724     3342012.70549   2864140.70047  22078559.311    22078573.958
       233.000         191.000
  25166115.571    -7932171.25549  -5579724.50444  25166113.172    25166135.522
       199.000         129.000
  21433391.356   -17838950.12449 -13370874.78947  21433390.832    21433403.269
       242.000         207.000
  22926130.432    14630008.53449  11406267.83946  22926130.420    22926146.095
       224.000         169.000
  20810564.964   -16696922.17049 -12672881.76947  20810563.727    20810576.121
       242.000         207.000
 00  3 12  0  7  0.0000000  0  7G17G30G 5G13G 6G24G10
  23138744.339   -13007680.58049  -9241057.21646  23138743.291    23138760.970
       227.000         176.000
  20881568.441   -16837214.28849 -13098680.92047  20881568.551    20881580.507
       244.000         211.000
  22095013.329     3428476.17549   2931514.68347  22095013.031    22095027.933
       236.000         190.000
  25161435.005    -7956766.69949  -5598889.61444  25161434.341    25161455.295
       198.000         129.000
  21422830.931   -17894445.39849 -13414117.75347  21422830.373    21422842.706
       242.000         207.000
  22940214.178    14704018.87549  11463938.15446  22940213.321    22940230.333
       223.000         169.000
  20815769.416   -16669572.22249 -12651570.10647  20815768.363    20815780.483
       242.000         207.000
 00  3 12  0  7 30.0000000  0  7G17G30G 5G13G 6G24G10
  23125745.216   -13075990.59449  -9294285.56846  23125743.991    23125761.861
       227.000         177.000
  20886510.363   -16811244.29049 -13078444.57047  20886510.210    20886522.269
       245.000         211.000
  22111520.036     3515218.85149   2999106.22347  22111519.783    22111534.882
       235.000         190.000
  25156831.824    -7980955.65649  -5617737.99944  25156830.279    25156850.505
       198.000         129.000
  21412298.191   -17949794.74249 -13457247.00847  21412297.645    21412309.911
       242.000         207.000
  22954298.032    14778029.90549  11521608.99146  22954297.900    22954313.984
       223.000         169.000
  20821081.301   -16641657.97949 -12629818.73547  20821080.356    20821092.538
       242.000         207.000
 00  3 12  0  8  0.0000000  0  7G17G30G 5G13G 6G24G10
  23112782.727   -13144108.10949  -9347363.92046  23112781.085    23112799.056
       227.000         176.000
  20891560.998   -16784703.00649 -13057763.06347  20891561.023    20891572.874
       244.000         211.000
  22128077.580     3602228.77149   3066906.01747  22128077.141    22128091.947
       234.000         189.000
  25152304.277    -8004746.75949  -5636276.37044  25152306.321    25152323.834
       199.000         130.000
  21401791.104   -18005009.66149 -13500271.51747  21401790.699    21401802.718
       242.000         207.000
  22968378.887    14852024.75649  11579267.22246  22968379.002    22968395.862
       223.000         169.000
  20826501.347   -16613175.40149 -12607624.50747  20826500.424    20826512.625
       242.000         207.000
 00  3 12  0  8 30.0000000  0  7G17G30G 5G13G 6G24G10
  23099856.844   -13212032.95049  -9400292.14146  23099854.903    23099872.947
       226.000         177.000
  20896718.547   -16757599.94649 -13036643.81347  20896718.653    20896730.483
       244.000         211.000
  22144687.762     3689515.36849   3134921.38747  22144687.352    22144702.761
       234.000         189.000
  25147854.878    -8028127.50049  -5654494.97344  25147854.433    25147873.533
       201.000         130.000
  21391307.293   -18060102.13549 -13543200.61947  21391306.896    21391318.881
       242.000         207.000
  22982456.448    14926002.59749  11636912.19846  22982456.506    22982472.764
       223.000         168.000
  20832025.989   -16584143.00449 -12585001.85647  20832024.879    20832036.996
       242.000         207.000
 00  3 12  0  9  0.0000000  0  7G17G30G 5G13G 6G24G10
  23086967.693   -13279764.60549  -9453069.82746  23086965.626    23086984.082
       228.000         177.000
  20901984.709   -16729926.07449 -13015079.77247  20901984.807    20901996.543
       244.000         211.000
  22161351.558     3777083.71149   3203156.30547  22161350.926    22161366.447
       233.000         188.000
  25143488.402    -8051073.49949  -5672374.80144  25143488.915    25143506.864
       199.000         131.000
  21380848.012   -18115065.71349 -13586029.27247  21380847.257    21380859.544
       242.000         207.000
  22996531.345    14999966.21249  11694546.07746  22996531.163    22996546.951
       223.000         167.000
  20837657.860   -16554547.52149 -12561940.43447  20837656.810    20837669.065
       242.000         207.000
 00  3 12  0  9 30.0000000  0  7G17G30G 5G13G 6G24G10
  23074115.270   -13347303.80049  -9505697.53346  23074113.703    23074131.705
       228.000         178.000
  20907360.582   -16701675.92349 -12993066.68547  20907360.595    20907372.411
       245.000         211.000
  22178067.386     3864925.58149   3271604.35947  22178066.934    22178082.990
       233.000         188.000
  25139203.550    -8073589.79849  -5689919.81245  25139202.752    25139222.867
       201.000         132.000
  21370417.651   -18169877.00349 -13628739.26847  21370416.938    21370429.313
       242.000         207.000
  23010604.111    15073919.12249  11752171.62346  23010603.900    23010620.294
       223.000         167.000
  20843397.968   -16524382.88849 -12538435.52447  20843397.026    20843409.467
       242.000         207.000
 00  3 12  0 10  0.0000000  0  7G17G30G 5G13G 6G24G10
  23061299.493   -13414650.31349  -9558175.11246  23061298.026    23061315.158
       228.000         178.000
  20912843.465   -16672863.29949 -12970615.30747  20912843.560    20912855.362
       244.000         211.000
  22194837.621     3953053.07549   3340274.97747  22194836.994    22194852.515
       234.000         188.000
  25135001.711    -8095670.47749  -5707125.39145  25135001.491    25135020.057
       200.000         132.000
  21360020.554   -18224513.47149 -13671313.03447  21360019.986    21360032.376
       242.000         207.000
  23024678.592    15147880.46749  11809803.75546  23024678.467    23024694.575
       223.000         167.000
  20849246.537   -16493648.55549 -12514486.69247  20849245.498    20849257.591
       242.000         207.000
 00  3 12  0 10 30.0000000  0  7G17G30G 5G13G 6G24G10
  23048520.413   -13481803.90549  -9610502.35946  23048519.492    23048536.693
       227.000         179.000
  20918433.461   -16643487.90949 -12947725.41047  20918433.400    20918445.325
       244.000         211.000
  22211664.908     4041480.30849   3409179.15447  22211664.495    22211679.870
       233.000         188.000
  25130884.118    -8117308.23249  -5723985.81645  25130884.351    25130903.665
       203.000         133.000
  21349660.702   -18278954.41649 -13713734.45347  21349660.088    21349672.469
       242.000         207.000
  23038756.579    15221860.36149  11867450.34346  23038756.481    23038772.465
       223.000         168.000
  20855203.943   -16462342.13249 -12490092.07647  20855202.883    20855215.213
       242.000         207.000
 00  3 12  0 11  0.0000000  0  7G17G30G 5G13G 6G24G10
  23035778.070   -13548764.68849  -9662679.34946  23035776.844    23035794.479
       229.000         179.000
  20924130.644   -16613548.97149 -12924396.38347  20924130.686    20924142.497
       244.000         211.000
  22228547.191     4130196.53949   3478308.52447  22228546.947    22228562.295
       233.000         188.000
  25126847.647    -8138520.08249  -5740514.36645  25126847.675    25126866.795
       203.000         133.000
  21339341.292   -18333182.87549 -13755990.29347  21339340.572    21339352.768
       242.000         208.000
  23052836.241    15295849.46549  11925104.10646  23052835.514    23052852.954
       222.000         167.000
  20861271.100   -16430459.00149 -12465248.07347  20861270.053    20861282.536
       242.000         207.000
 00  3 12  0 11 30.0000000  0  7G17G30G 5G13G 6G24G10
  23023072.429   -13615532.54249  -9714706.02946  23023071.519    23023088.757
       228.000         180.000
  20929933.371   -16583055.56749 -12900635.30747  20929933.469    20929945.353
       245.000         211.000
  22245482.437     4219191.27349   3547654.90547  22245482.253    22245497.665
       233.000         188.000
  25122886.656    -8159334.99249  -5756733.62645  25122887.837    25122905.153
       201.000         133.000
  21329063.198   -18387194.20849 -13798076.94647  21329062.517    21329074.765
       242.000         208.000
  23066916.044    15369838.73049  11982757.97446  23066916.346    23066932.260
       222.000         167.000
  20867442.546   -16398027.84849 -12439977.04647  20867441.701    20867453.651
       243.000         207.000
 00  3 12  0 12  0.0000000  0  7G17G30G 5G13G 6G24G10
  23010403.463   -13682107.40349  -9766582.31546  23010402.050    23010419.945
       228.000         180.000
  20935842.126   -16552004.86449 -12876439.96647  20935842.048    20935854.021
       245.000         210.000
  22262473.479     4308479.25049   3617229.78846  22262473.410    22262488.441
       233.000         187.000
  25119001.016    -8179753.89049  -5772644.32645  25119000.008    25119018.478
       197.000         133.000
  21318825.175   -18440994.83949 -13839999.41047  21318824.515    21318836.770
       242.000         208.000
  23080991.997    15443808.01849  12040396.29246  23080992.471    23081008.500
       222.000         167.000
  20873721.175   -16365033.56949 -12414267.21847  20873720.314    20873732.353
       243.000         207.000
 00  3 12  0 12 30.0000000  0  7G17G30G 5G13G 6G24G10
  22997771.198   -13748489.56949  -9818308.44046  22997769.845    22997786.788
       227.000         180.000
  20941855.349   -16520405.24649 -12851816.90247  20941855.195    20941867.151
       244.000         210.000
  22279514.957     4398031.95249   3687010.95346  22279514.483    22279530.351
       232.000         186.000
  25115186.996    -8199795.89149  -5788261.30745  25115186.138    25115205.550
       202.000         133.000
  21308621.168   -18494616.98749 -13881782.79747  21308620.539    21308632.706
       242.000         208.000
  23095057.858    15517724.64349  12097993.57546  23095057.984    23095074.510
       222.000         167.000
  20880103.257   -16331495.34349 -12388133.53547  20880102.236    20880114.486
       242.000         207.000
 00  3 12  0 13  0.0000000  0  7G17G30G 5G13G 6G24G10
  22985175.656   -13814678.58749  -9869884.06846  22985174.125    22985191.172
       228.000         180.000
  20947972.555   -16488259.18749 -12826768.04347  20947972.460    20947984.504
       244.000         210.000
  22296602.248     4487825.64349   3756979.90146  22296602.084    22296617.446
       232.000         186.000
  25111443.126    -8219469.82049  -5803591.47545  25111443.110    25111462.857
       202.000         133.000
  21298445.856   -18548088.22549 -13923448.59247  21298445.223    21298457.528
       242.000         208.000
  23109109.642    15591566.48249  12155532.56046  23109110.516    23109126.154
       221.000         167.000
  20886587.570   -16297420.11249 -12361581.40947  20886586.627    20886598.814
       242.000         207.000
 00  3 12  0 13 30.0000000  0  7G17G30G 5G13G 6G24G10
  22972616.832   -13880674.77749  -9921309.43046  22972615.549    22972632.418
       229.000         180.000
  20954193.152   -16455569.57349 -12801295.63647  20954193.094    20954205.108
       244.000         210.000
  22313734.635     4577856.30349   3827133.48746  22313734.593    22313749.829
       232.000         186.000
  25107772.480    -8238758.68249  -5818621.61145  25107772.031    25107790.308
       202.000         135.000
  21288297.889   -18601415.88549 -13965002.51147  21288297.248    21288309.392
       243.000         208.000
  23123148.650    15665341.21649  12213019.27246  23123147.848    23123165.383
       221.000         167.000
  20893175.113   -16262802.33349 -12334606.51947  20893174.147    20893186.294
       243.000         207.000
 00  3 12  0 14  0.0000000  0  7G17G30G 5G13G 6G24G10
  22960094.737   -13946477.81149  -9972584.29946  22960092.918    22960110.591
       228.000         180.000
  20960517.696   -16422333.86449 -12775397.70147  20960517.756    20960529.564
       244.000         210.000
  22330911.992     4668123.42349   3897471.34246  22330911.322    22330927.621
       232.000         185.000
  25104181.273    -8257630.06449  -5833326.47645  25104180.458    25104199.074
       202.000         134.000
  21278176.287   -18654604.93649 -14006448.43147  21278175.566    21278187.799
       243.000         208.000
  23137178.405    15739067.47549  12270468.20446  23137178.315    23137195.331
       222.000         167.000
  20899867.767   -16227632.32949 -12307201.32447  20899866.833    20899878.952
       243.000         207.000
 00  3 12  0 14 30.0000000  0  7G17G30G 5G13G 6G24G10
  22947609.345   -14012087.91249 -10023708.81546  22947608.541    22947625.007
       228.000         180.000
  20966946.225   -16388551.83849 -12749074.06747  20966946.205    20966958.023
       244.000         210.000
  22348134.387     4758627.09949   3967993.52046  22348133.769    22348149.666
       232.000         185.000
  25100673.069    -8276064.87049  -5847691.09945  25100673.425    25100691.667
       201.000         134.000
  21268081.903   -18707651.00049 -14047782.93747  21268081.284    21268093.617
       243.000         208.000
  23151205.290    15812778.71749  12327905.42746  23151204.884    23151221.559
       222.000         166.000
  20906662.753   -16191924.45149 -12279377.01047  20906661.629    20906673.895
       242.000         207.000
 00  3 12  0 15  0.0000000  0  7G17G30G 5G13G 6G24G10
  22935160.734   -14077504.82349 -10074682.80246  22935158.460    22935176.376
       228.000         181.000
  20973480.610   -16354213.41949 -12722316.87547  20973480.781    20973492.446
       244.000         210.000
  22365406.774     4849393.35149   4038720.30846  22365406.851    22365422.467
       231.000         185.000
  25097253.632    -8294033.89249  -5861692.80345  25097252.853    25097272.654
       200.000         135.000
  21258020.839   -18760521.83749 -14088980.89447  21258019.859    21258032.132
       243.000         209.000
  23165235.597    15886508.24349  12385356.91446  23165235.531    23165251.737
       221.000         166.000
  20913562.838   -16155664.16349 -12251122.23847  20913561.772    20913574.095
       242.000         207.000
 00  3 12  0 15 30.0000000  0  7G17G30G 5G13G 6G24G10
  22922748.777   -14142729.00449 -10125506.61446  22922747.742    22922764.380
       229.000         181.000
  20980121.385   -16319315.83049 -12695123.97447  20980121.514    20980133.497
       244.000         210.000
  22382732.710     4940441.10349   4109666.44746  22382732.547    22382748.082
       230.000         184.000
  25093926.529    -8311515.75549  -5875314.90145  25093925.697    25093944.734
       201.000         134.000
  21247997.594   -18813193.54449 -14130023.69747  21247996.898    21248008.869
       242.000         209.000
  23179274.791    15960284.19149  12442844.56846  23179274.242    23179291.063
       220.000         165.000
  20920569.313   -16118844.93949 -12222431.93647  20920568.402    20920580.443
       242.000         206.000
 00  3 12  0 16  0.0000000  0  7G17G30G 5G13G 6G24G10
  22910373.580   -14207760.43949 -10176180.24146  22910371.950    22910389.039
       228.000         181.000
  20986867.390   -16283865.37449 -12667500.26647  20986867.504    20986879.327
       244.000         210.000
  22400113.940     5031779.58449   4180839.13046  22400113.434    22400129.507
       230.000         183.000
  25090692.135    -8328511.52949  -5888558.22145  25090691.146    25090711.914
       197.000         133.000
  21238012.258   -18865666.43149 -14170911.56847  21238011.561    21238023.875
       242.000         209.000
  23193322.033    16034102.70449  12500365.38646  23193322.787    23193339.206
       220.000         165.000
  20927681.797   -16081468.62149 -12193307.53247  20927680.588    20927692.831
       242.000         206.000
 00  3 12  0 16 30.0000000  0  7G17G30G 5G13G 6G24G10
  22898034.951   -14272599.28449 -10226703.80346  22898033.811    22898050.495
       229.000         181.000
  20993715.477   -16247878.72249 -12639458.74747  20993715.753    20993727.360
       244.000         210.000
  22417547.534     5123392.95749   4252226.00946  22417546.965    22417563.323
       229.000         183.000
  25087545.302    -8345046.94349  -5901442.83945  25087546.773    25087562.998
       197.000         133.000
  21228062.687   -18917951.31749 -14211652.94847  21228061.959    21228074.273
       243.000         209.000
  23207371.375    16107931.86849  12557894.48646  23207371.691    23207387.548
       220.000         164.000
  20934898.932   -16043542.30249 -12163754.56547  20934898.002    20934910.025
       242.000         206.000
 00  3 12  0 17  0.0000000  0  7G17G30G 5G13G 6G24G10
  22885733.106   -14337245.09249 -10277076.94446  22885732.097    22885748.061
       229.000         182.000
  21000664.263   -16211362.74649 -12611004.76647  21000664.253    21000676.224
       243.000         210.000
  22435029.007     5215258.10249   4323809.08246  22435028.643    22435044.791
       230.000         182.000
  25084482.669    -8361139.94849  -5913982.69645  25084482.174    25084499.620
       200.000         133.000
  21218147.845   -18970053.88649 -14252252.26247  21218147.282    21218159.369
       242.000         209.000
  23221416.778    16181740.82149  12615407.85846  23221416.008    23221432.639
       219.000         164.000
  20942218.579   -16005077.41849 -12133781.93547  20942217.524    20942229.785
       242.000         206.000
 00  3 12  0 17 30.0000000  0  7G17G30G 5G13G 6G24G10
  22873467.858   -14401698.37049 -10327300.05946  22873466.239    22873482.825
       229.000         182.000
  21007712.771   -16174322.62049 -12582142.36147  21007713.033    21007724.676
       244.000         210.000
  22452555.210     5307358.35749   4395575.35246  22452554.990    22452570.515
       229.000         182.000
  25081500.911    -8376809.19949  -5926192.36945  25081502.357    25081519.003
       200.000         134.000
  21208267.344   -19021975.81249 -14292710.81347  21208266.633    21208278.699
       243.000         209.000
  23235456.140    16255517.73649  12672896.24846  23235455.079    23235472.976
       220.000         163.000
  20949638.875   -15966083.14949 -12103396.79847  20949637.628    20949650.277
       242.000         206.000
 00  3 12  0 18  0.0000000  0  7G17G30G 5G13G 6G24G10
  22861239.363   -14465958.69449 -10377372.82746  22861237.495    22861254.690
       229.000         181.000
  21014858.148   -16136773.62449 -12552883.43647  21014858.286    21014870.024
       244.000         210.000
  22470122.596     5399674.91049   4467510.16646  22470122.558    22470138.156
       230.000         182.000
  25078596.175    -8392073.71049  -5938086.66945  25078595.000    25078613.831
       203.000         134.000
  21198419.864   -19073724.24749 -14333034.17347  21198418.900    21198431.296
       243.000         209.000
  23249486.396    16329247.31449  12730347.77246  23249485.276    23249502.526
       219.000         163.000
  20957155.216   -15926584.34349 -12072618.51847  20957154.204    20957166.593
       242.000         206.000
 00  3 12  0 18 30.0000000  0  7G17G30G 5G13G 6G24G10
  22849047.539   -14530026.11649 -10427295.27646  22849046.314    22849062.529
       229.000         182.000
  21022102.656   -16098703.51449 -12523218.45147  21022102.861    21022114.741
       244.000         210.000
  22487728.376     5492193.13149   4539602.12046  22487728.020    22487744.280
       229.000         182.000
  25075769.206    -8406929.76749  -5949662.68445  25075768.497    25075786.096
       200.000         133.000
  21188607.674   -19125287.32649 -14373213.09447  21188607.023    21188619.042
       243.000         210.000
  23263507.897    16402930.58249  12787763.18046  23263507.739    23263524.118
       219.000         163.000
  20964766.556   -15886586.69149 -12041451.53047  20964765.725    20964777.658
       242.000         206.000
 00  3 12  0 19  0.0000000  0  7G17G30G 5G13G 6G24G10
  22836892.411   -14593901.05449 -10477067.74846  22836891.079    22836907.723
       228.000         182.000
  21029448.370   -16060101.59849 -12493139.07547  21029448.436    21029460.220
       244.000         210.000
  22505374.789     5584925.26649   4611860.76846  22505374.943    22505390.761
       229.000         181.000
  25073024.627    -8421352.11349  -5960900.72745  25073023.417    25073042.592
       199.000         132.000
  21178836.395   -19176635.56149 -14413224.59747  21178835.797    21178847.731
       244.000         210.000
  23277525.344    16476592.50049  12845161.98145  23277525.404    23277541.726
       219.000         162.000
  20972474.928   -15846079.11149 -12009887.19847  20972473.749    20972486.095
       242.000         205.000
 00  3 12  0 19 30.0000000  0  7G17G30G 5G13G 6G24G10
  22824773.939   -14657583.47349 -10526690.21146  22824772.479    22824788.989
       229.000         182.000
  21036894.483   -16020972.22149 -12462648.69047  21036894.711    21036906.480
       244.000         210.000
  22523061.957     5677871.39749   4684286.15146  22523061.199    22523078.335
       229.000         181.000
  25070366.179    -8435321.48549  -5971785.81045  25070366.476    25070383.938
       200.000         133.000
  21169107.578   -19227760.45149 -14453062.07147  21169106.962    21169119.067
       243.000         210.000
  23291538.797    16550233.57449  12902544.52245  23291538.453    23291555.550
       217.000         162.000
  20980282.543   -15805049.70449 -11977916.25047  20980281.573    20980293.823
       242.000         205.000
 00  3 12  0 20  0.0000000  0  8G17G30G 5G13G26G 6G24G10
  22812691.967   -14721073.82949 -10576163.01646  22812690.033    22812707.659
       229.000         183.000
  21044441.369   -15981313.26549 -12431745.64647  21044441.686    21044453.265
       244.000         209.000
  22540787.699     5771020.10449   4756869.39046  22540787.478    22540803.112
       229.000         181.000
  25067797.585    -8448819.56449  -5982303.66545  25067796.536    25067816.310
       202.000         134.000
  24638967.384    -4656213.67749  -3616199.36545  24638966.868    24638989.266
       209.000         141.000
  21159420.465   -19278666.21749 -14492728.79247  21159419.828    21159431.944
       243.000         210.000
  23305544.435    16623833.62549  12959895.10245  23305543.318    23305561.400
       217.000         161.000
  20988191.790   -15763486.46349 -11945529.31947  20988190.668    20988202.994
       241.000         205.000
 00  3 12  0 20 30.0000000  0  8G17G30G 5G13G26G 6G24G10
  22800646.642   -14784371.39249 -10625485.61146  22800645.152    22800662.083
       229.000         183.000
  21052088.809   -15941125.91949 -12400430.87447  21052088.822    21052100.783
       244.000         209.000
  22558554.061     5864382.15149   4829618.85546  22558553.928    22558570.085
       228.000         181.000
  25065318.876    -8461845.04849  -5992453.25445  25065318.751    25065337.958
       202.000         135.000
  24622282.414    -4743892.27949  -3684519.92645  24622280.780    24622305.652
       208.000         142.000
  21149775.400   -19329350.99649 -14532223.32147  21149774.636    21149786.668
       243.000         210.000
  23319540.037    16697380.48649  13017204.22745  23319540.238    23319556.912
       220.000         161.000
  20996203.927   -15721382.42249 -11912720.99047  20996202.741    20996214.946
       242.000         205.000
 00  3 12  0 21  0.0000000  0  8G17G30G 5G13G26G 6G24G10
  22788637.941   -14847476.56349 -10674658.28346  22788636.575    22788653.462
       229.000         183.000
  21059834.362   -15900422.76949 -12368714.17547  21059834.290    21059846.367
       244.000         209.000
  22576363.195     5957969.21649   4902543.66146  22576362.739    22576378.732
       228.000         180.000
  25062927.249    -8474411.92949  -6002245.47845  25062926.677    25062945.623
       202.000         134.000
  24605589.181    -4831613.84849  -3752873.96945  24605587.316    24605611.943
       208.000         143.000
  21140170.833   -19379822.77449 -14571551.87347  21140170.005    21140181.876
       243.000         210.000
  23333524.783    16770869.81949  13074468.51945  23333525.167    23333541.122
       218.000         160.000
  21004316.210   -15678751.89249 -11879502.40947  21004315.125    21004327.590
       242.000         205.000
 00  3 12  0 21 30.0000000  0  8G17G30G 5G13G26G 6G24G10
  22776665.907   -14910389.29349 -10723680.99446  22776664.573    22776681.082
       229.000         183.000
  21067678.665   -15859200.76649 -12336593.17647  21067678.809    21067690.580
       244.000         209.000
  22594214.786     6051778.83149   4975641.88846  22594214.541    22594230.378
       228.000         180.000
  25060619.840    -8486537.56849  -6011693.89045  25060619.744    25060639.281
       202.000         134.000
  24588883.525    -4919400.48049  -3821278.71845  24588881.861    24588906.948
       206.000         143.000
  21130602.641   -19430103.23849 -14610731.35547  21130602.039    21130614.040
       244.000         210.000
  23347497.546    16844297.01649  13131684.41245  23347497.474    23347514.789
       219.000         160.000
  21012526.886   -15635604.58849 -11845881.14447  21012526.021    21012538.003
       242.000         205.000
 00  3 12  0 22  0.0000000  0  8G17G30G 5G13G26G 6G24G10
  22764730.429   -14973109.84549 -10772553.96746  22764729.716    22764745.595
       230.000         184.000
  21075623.508   -15817450.44149 -12304060.50047  21075623.729    21075635.489
       244.000         209.000
  22612110.582     6145820.84149   5048921.20446  22612110.172    22612126.371
       229.000         179.000
  25058393.503    -8498237.14749  -6020810.33445  25058393.035    25058411.914
       203.000         135.000
  24572165.982    -5007249.39449  -3889732.00745  24572164.894    24572188.777
       207.000         143.000
  21121069.300   -19480200.95949 -14649768.44247  21121068.668    21121080.513
       244.000         211.000
  23361461.903    16917679.07449  13188865.11545  23361462.106    23361479.214
       219.000         160.000
  21020833.589   -15591952.75649 -11811866.74347  21020832.520    21020844.639
       241.000         205.000
 00  3 12  0 22 30.0000000  0  8G17G30G 5G13G26G 6G24G10
  22453038.563   -16611061.18949 -12048879.50946  22453037.566    22453053.808
       229.000         184.000
  20783877.318   -17350587.06849 -13498712.46047  20783877.401    20783889.287
       243.000         209.000
  22330260.516     4664688.16149   3894791.67346  22330260.772    22330276.128
       227.000         179.000
  24756455.470   -10084931.47049  -7257195.40045  24756454.363    24756473.514
       205.000         135.000
  24255644.762    -6670579.04649  -5185832.63945  24255644.047    24255667.614
       210.000         144.000
  20811776.681   -21105544.09949 -15916269.48947  20811776.207    20811787.893
       243.000         211.000
  23075630.030    15415621.78349  12018430.74745  23075630.713    23075646.719
       217.000         159.000
  20729441.951   -17123225.79449 -13005066.52147  20729440.997    20729453.350
       241.000         204.000
 00  3 12  0 23  0.0000000  0  8G17G30G 5G13G26G 6G24G10
  22441176.152   -16673397.88749 -12097453.36646  22441174.688    22441191.213
       230.000         184.000
  20792029.499   -17307747.12549 -13465330.72647  20792029.747    20792041.616
       244.000         209.000
  22348245.218     4759198.05449   3968435.56846  22348244.572    22348261.350
       228.000         178.000
  24754397.415   -10095746.44049  -7265622.53845  24754397.247    24754415.354
       205.000         136.000
  24238908.981    -6758525.05249  -5254361.57245  24238908.163    24238930.751
       207.000         145.000
  20802313.037   -21155275.71149 -15955021.30147  20802312.539    20802324.370
       244.000         211.000
  23089590.476    15488984.00649  12075596.00845  23089590.519    23089607.106
       217.000         158.000
  20737940.781   -17078564.05349 -12970265.16847  20737939.663    20737952.174
       241.000         204.000
 00  3 12  0 23 30.0000000  0  8G17G30G 5G13G26G 6G24G10
  22429350.247   -16735542.49349 -12145877.55346  22429348.535    22429365.084
       229.000         184.000
  20800287.997   -17264348.69549 -13431513.81347  20800288.100    20800300.012
       243.000         209.000
  22366269.026     4853912.88249   4042239.15346  22366268.874    22366284.788
       228.000         177.000
  24752431.042   -10106079.89749  -7273674.48245  24752430.699    24752448.488
       204.000         136.000
  24222167.309    -6846501.13649  -5322913.95845  24222165.834    24222189.985
       207.000         145.000
  20792885.511   -21204817.55849 -15993625.24847  20792884.965    20792896.679
       244.000         211.000
  23103551.397    15562348.71449  12132763.20745  23103551.254    23103568.788
       219.000         158.000
  20746541.342   -17033367.93549 -12935047.42347  20746540.499    20746552.978
       241.000         204.000
 00  3 12  0 24  0.0000000  0  8G17G30G 5G13G26G 6G24G10
  22417560.884   -16797494.84349 -12194151.92846  22417559.706    22417575.880
       230.000         184.000
  20808648.867   -17220412.19449 -13397277.62347  20808649.042    20808660.872
       243.000         209.000
  22384330.905     4948828.05049   4116198.84546  22384330.470    22384346.534
       226.000         177.000
  24750558.848   -10115916.83849  -7281339.52045  24750558.615    24750576.849
       204.000         137.000
  24205423.410    -6934489.01749  -5391475.53645  24205422.365    24205444.945
       208.000         144.000
  20783496.575   -21254156.42049 -16032071.02547  20783495.885    20783507.656
       244.000         211.000
  23117509.152    15635696.67249  12189917.35145  23117508.872    23117526.295
       219.000         159.000
  20755244.494   -16987632.75049 -12899409.62547  20755243.804    20755255.837
       241.000         204.000
 00  3 12  0 24 30.0000000  0  8G17G30G 5G13G26G 6G24G10
  22405808.059   -16859255.82949 -12242277.18346  22405806.523    22405822.983
       231.000         185.000
  20817109.181   -17175953.14449 -13362634.25347  20817109.395    20817121.379
       243.000         208.000
  22402428.105     5043929.16249   4190303.43346  22402427.832    22402444.051
       227.000         176.000
  24748782.067   -10125253.19649  -7288614.50345  24748781.865    24748799.495
       205.000         137.000
  24188677.591    -7022487.21849  -5460045.16045  24188676.588    24188699.356
       207.000         144.000
  20774148.225   -21303281.81849 -16070350.46947  20774147.547    20774159.528
       244.000         211.000
  23131460.452    15709010.90449  12247045.23645  23131460.583    23131476.855
       219.000         158.000
  20764050.134   -16941359.03949 -12863352.19347  20764049.038    20764061.326
       241.000         204.000
 00  3 12  0 25  0.0000000  0  8G17G30G 5G13G26G 6G24G10
  22394091.685   -16920824.93749 -12290252.91946  22394090.364    22394106.930
       230.000         185.000
  20825664.381   -17130995.35349 -13327602.25147  20825664.453    20825676.333
       244.000         208.000
  22420559.037     5139207.24949   4264545.92046  22420559.040    22420575.110
       226.000         176.000
  24747095.426   -10134116.37349  -7295520.77045  24747096.252    24747113.820
       203.000         137.000
  24171928.895    -7110500.71349  -5528626.66745  24171928.142    24171950.863
       203.000         143.000
  20764841.749   -21352187.34749 -16108458.58547  20764841.090    20764852.917
       244.000         212.000
  23145402.656    15782277.12849  12304135.69645  23145402.191    23145419.037
       218.000         158.000
  20772956.859   -16894553.75349 -12826880.54147  20772955.962    20772968.141
       241.000         204.000
 00  3 12  0 25 30.0000000  0  8G17G30G 5G13G26G 6G24G10
  22382411.774   -16982202.31149 -12338079.25746  22382410.630    22382426.674
       230.000         185.000
  20834308.206   -17085571.76449 -13292207.29347  20834308.338    20834320.258
       243.000         208.000
  22438727.051     5234679.86349   4338939.96146  22438726.643    22438743.282
       226.000         176.000
  24745494.438   -10142529.55449  -7302076.36345  24745494.131    24745511.969
       204.000         137.000
  24155175.548    -7198537.93149  -5597226.67245  24155173.791    24155197.256
       205.000         143.000
  20755576.801   -21400874.36549 -16146396.43847  20755576.004    20755587.922
       244.000         212.000
  23159333.542    15855483.95349  12361179.91345  23159333.067    23159349.640
       219.000         158.000
  20781959.872   -16847242.54349 -12790014.66947  20781958.789    20781971.259
       241.000         203.000
 00  3 12  0 26  0.0000000  0  8G17G30G 5G13G26G 6G24G10
  22370768.338   -17043388.29649 -12385756.46746  22370767.320    22370783.624
       231.000         185.000
  20843042.139   -17039674.91649 -13256443.56147  20843042.282    20843054.277
       244.000         208.000
  22456935.916     5330367.59449   4413501.64746  22456935.557    22456952.308
       226.000         176.000
  24743976.885   -10150503.56549  -7308289.75045  24743976.402    24743995.393
       205.000         137.000
  24138418.360    -7286595.89849  -5665842.84345  24138417.162    24138439.325
       204.000         142.000
  20746357.797   -21449320.09549 -16184146.27547  20746357.116    20746368.976
       245.000         212.000
  23173254.657    15928639.44249  12418184.11145  23173255.069    23173272.234
       219.000         158.000
  20791056.023   -16799442.02249 -12752767.52047  20791055.002    20791067.482
       241.000         203.000
 00  3 12  0 26 30.0000000  0  8G17G30G 5G13G26G 6G24G10
  22359161.308   -17104382.76149 -12433284.43246  22359160.106    22359176.211
       231.000         185.000
  20851869.865   -16993285.06049 -13220295.67047  20851870.061    20851882.021
       243.000         208.000
  22475186.666     5426275.25549   4488234.70346  22475186.442    22475202.438
       225.000         176.000
  24742541.521   -10158045.55049  -7314166.47145  24742542.194    24742558.831
       205.000         137.000
  24121656.109    -7374680.87049  -5734480.05045  24121655.016    24121677.199
       207.000         143.000
  20737185.687   -21497519.53349 -16221704.20247  20737185.056    20737196.696
       244.000         212.000
  23187170.072    16001765.16349  12475165.10245  23187169.966    23187187.255
       218.000         158.000
  20800243.014   -16751164.05149 -12715148.32847  20800242.052    20800254.007
       240.000         203.000
 00  3 12  0 27  0.0000000  0  8G17G30G 5G13G26G 6G24G10
  22347590.731   -17165185.99449 -12480663.37846  22347589.346    22347605.386
       231.000         185.000
  20860791.869   -16946399.85449 -13183761.79147  20860791.854    20860803.911
       243.000         208.000
  22493480.479     5522409.27549   4563144.14746  22493480.288    22493496.724
       225.000         175.000
  24741189.534   -10165150.14149  -7319702.37545  24741187.522    24741208.124
       205.000         137.000
  24104889.809    -7462786.32749  -5803133.23645  24104888.253    24104911.755
       201.000         142.000
  20728060.607   -21545471.81049 -16259069.53247  20728060.093    20728071.745
       245.000         212.000
  23201081.047    16074867.63049  12532128.00145  23201080.156    23201098.336
       218.000         159.000
  20809520.706   -16702409.81749 -12677158.02447  20809519.549    20809531.799
       240.000         203.000
 00  3 12  0 27 30.0000000  0  8G17G30G 5G13G26G 6G24G10
  22336056.488   -17225797.99949 -12527893.33346  22336055.461    22336071.441
       232.000         186.000
  20869813.849   -16898989.11049 -13146818.41047  20869814.168    20869826.141
       244.000         207.000
  22511817.312     5618769.27649   4638229.66246  22511816.104    22511834.701
       225.000         174.000
  24739925.849   -10171790.48249  -7324876.52145  24739925.786    24739942.961
       204.000         137.000
  24088123.239    -7550892.57649  -5871787.02445  24088122.000    24088143.917
       200.000         142.000
  20718983.612   -21593171.53149 -16296238.07647  20718983.037    20718994.688
       246.000         212.000
  23214986.986    16147944.14249  12589070.65445  23214987.409    23215004.115
       220.000         158.000
  20818887.852   -16653185.09449 -12638801.11247  20818887.074    20818899.117
       242.000         203.000
 00  3 12  0 28  0.0000000  0  8G17G30G 5G13G26G 6G24G10
  22324558.626   -17286219.14049 -12574974.55346  22324557.011    22324573.235
       231.000         186.000
  20878939.921   -16851031.55549 -13109448.93847  20878940.091    20878952.331
       243.000         207.000
  22530192.150     5715329.07049   4713470.87246  22530192.183    22530208.873
       225.000         174.000
  24738749.761   -10177969.91049  -7329691.53545  24738749.160    24738767.703
       202.000         135.000
  24071356.292    -7639000.88949  -5940442.40445  24071354.908    24071377.447
       199.000         141.000
  20709953.479   -21640624.78349 -16333214.56047  20709952.988    20709964.506
       245.000         212.000
  23228887.647    16220991.98749  12645990.98145  23228887.856    23228904.860
       218.000         159.000
  20828346.724   -16603478.34049 -12600068.58747  20828345.676    20828358.058
       240.000         203.000
 00  3 12  0 28 30.0000000  0  8G17G30G 5G13G26G 6G24G10
  22313097.027   -17346449.70649 -12621907.28346  22313095.615    22313111.450
       231.000         187.000
  20888166.278   -16802546.90649 -13071668.74447  20888166.443    20888178.564
       243.000         207.000
  22548599.011     5812057.01449   4788843.09246  22548599.020    22548615.821
       224.000         173.000
  24737660.397   -10183694.02849  -7334151.72545  24737660.884    24737677.254
       204.000         136.000
  24054589.797    -7727108.01649  -6009096.85345  24054587.695    24054611.470
       200.000         141.000
  20700964.317   -21687862.99849 -16370023.47547  20700963.801    20700975.120
       245.000         212.000
  23242780.162    16293997.42449  12702878.26045  23242779.998    23242796.248
       219.000         159.000
  20837899.241   -16553279.52849 -12560952.64847  20837898.503    20837910.801
       240.000         203.000
 00  3 12  0 29  0.0000000  0  8G17G30G 5G13G26G 6G24G10
  22301671.702   -17406489.49049 -12668691.34546  22301669.955    22301686.044
       231.000         186.000
  20897491.228   -16753544.08249 -13033484.77647  20897491.368    20897503.611
       243.000         207.000
  22567032.894     5908926.91249   4864325.92646  22567032.868    22567049.868
       224.000         173.000
  24736657.976   -10188961.51949  -7338256.12745  24736657.448    24736676.214
       204.000         135.000
  24037825.028    -7815206.78249  -6077744.79945  24037823.691    24037846.441
       203.000         140.000
  20692013.725   -21734898.45349 -16406674.39548  20692013.257    20692024.903
       245.000         213.000
  23256662.198    16366947.73849  12759722.56745  23256662.667    23256679.118
       219.000         159.000
  20847546.884   -16502580.94549 -12521447.27647  20847545.884    20847558.263
       241.000         203.000
 00  3 12  0 29 30.0000000  0  8G17G30G 5G13G26G 6G24G10
  22290282.712   -17466338.10249 -12715326.44946  22290281.769    22290297.177
       232.000         187.000
  20906916.143   -16704016.14649 -12994891.62847  20906916.393    20906928.512
       243.000         207.000
  22585491.438     6005926.43549   4939909.77646  22585491.270    22585507.387
       224.000         172.000
  24735743.041   -10193768.76349  -7342001.90245  24735742.572    24735759.670
       202.000         134.000
  24021061.115    -7903300.32949  -6146388.67645  24021060.766    24021082.620
       205.000         142.000
  20683102.636   -21781726.15449 -16443163.42848  20683102.076    20683113.492
       246.000         213.000
  23270534.693    16439847.65349  12816527.61445  23270534.784    23270551.776
       220.000         158.000
  20857290.007   -16451380.60649 -12481550.92947  20857289.109    20857301.417
       241.000         203.000
 00  3 12  0 30  0.0000000  0  8G17G30G 5G13G26G 6G24G10
  22278929.953   -17525996.77949 -12761813.55646  22278928.269    22278944.040
       231.000         187.000
  20916435.152   -16653993.56749 -12955913.04647  20916435.343    20916447.487
       243.000         207.000
  22603973.902     6103051.90049   5015591.74746  22603973.924    22603991.117
       224.000         172.000
  24734915.453   -10198117.56149  -7345390.44745  24734915.954    24734931.921
       202.000         133.000
  24004297.226    -7991394.00749  -6215032.68545  24004296.132    24004318.031
       205.000         144.000
  20674230.502   -21828349.25449 -16479493.02248  20674230.168    20674241.364
       246.000         213.000
  23284399.569    16512707.90449  12873301.75745  23284399.196    23284416.986
       219.000         158.000
  20867131.200   -16399665.04949 -12441253.11347  20867130.186    20867142.525
       241.000         202.000
 00  3 12  0 30 30.0000000  0  8G17G30G 5G13G26G 6G24G10
  22267613.419   -17585464.93749 -12808152.20746  22267612.033    22267627.821
       232.000         187.000
  20926044.694   -16603495.21149 -12916563.72947  20926044.891    20926056.983
       242.000         207.000
  22622481.850     6200310.80949   5091377.70446  22622481.462    22622498.941
       225.000         173.000
  24734176.887   -10201997.81949  -7348413.87745  24734176.336    24734194.155
       204.000         134.000
  23987534.674    -8079480.29449  -6283670.93945  23987533.926    23987555.796
       208.000         144.000
  20665397.036   -21874769.33049 -16515664.41048  20665396.424    20665407.875
       246.000         213.000
  23298256.024    16585524.04049  12930041.52845  23298256.113    23298273.078
       219.000         158.000
  20877067.251   -16347450.78649 -12400566.68947  20877066.148    20877078.557
       240.000         202.000
 00  3 12  0 31  0.0000000  0  8G17G30G 5G13G26G 6G24G10
  22256333.035   -17644742.92249 -12854342.68046  22256331.502    22256347.050
       232.000         187.000
  20935747.748   -16552505.66249 -12876831.66747  20935748.003    20935760.067
       243.000         206.000
  22641019.250     6297724.42249   5167284.20746  22641018.769    22641036.963
       225.000         173.000
  24733530.376   -10205394.96249  -7351060.87145  24733530.973    24733547.434
       205.000         134.000
  23970773.051    -8167561.86749  -6352305.52745  23970771.360    23970793.564
       205.000         145.000
  20656607.270   -21920959.50849 -16551656.65648  20656606.659    20656618.076
       245.000         213.000
  23312108.610    16658319.05649  12986764.84745  23312108.503    23312125.430
       220.000         159.000
  20887094.178   -16294758.95449 -12359508.14047  20887093.036    20887105.454
       240.000         202.000
 00  3 12  0 31 30.0000000  0  8G17G30G 5G13G26G 6G24G10
  22245088.843   -17703830.38549 -12900384.69447  22245087.247    22245103.451
       232.000         188.000
  20945542.987   -16501031.42349 -12836721.92547  20945543.032    20945555.210
       242.000         206.000
  22659591.015     6395318.72649   5243331.49746  22659590.792    22659608.628
       224.000         173.000
  24732977.245   -10208301.51849  -7353325.60745  24732975.637    24732994.079
       205.000         135.000
  23954013.932    -8255629.68349  -6420929.39445  23954013.412    23954035.071
       210.000         147.000
  20647863.293   -21966908.94049 -16587461.30848  20647862.642    20647873.716
       246.000         213.000
  23325957.024    16731092.55049  13043471.39845  23325956.516    23325973.613
       217.000         158.000
  20897210.239   -16241598.56949 -12318084.48347  20897209.353    20897221.457
       240.000         202.000
 00  3 12  0 32  0.0000000  0  8G17G30G 5G13G26G 6G24G10
  22233880.846   -17762728.16349 -12946278.90047  22233879.446    22233895.333
       232.000         188.000
  20955428.846   -16449081.12249 -12796241.22947  20955428.868    20955441.227
       243.000         206.000
  22678199.278     6493105.22949   5319528.55946  22678199.569    22678216.635
       223.000         173.000
  24732515.819   -10210725.63349  -7355214.38545  24732515.036    24732533.109
       204.000         134.000
  23937260.164    -8343669.26449  -6489531.26345  23937258.581    23937281.621
       210.000         148.000
  20639165.818   -22012613.93349 -16623075.48648  20639165.303    20639176.518
       246.000         213.000
  23339798.191    16803828.28049  13100148.53045  23339797.844    23339815.646
       218.000         157.000
  20907416.445   -16187964.65549 -12276291.85047  20907415.487    20907427.656
       240.000         201.000
 00  3 12  0 32 30.0000000  0  8G17G30G 5G13G26G 6G24G10
  22222708.981   -17821436.29649 -12992025.33947  22222707.620    22222723.286
       234.000         188.000
  20965406.459   -16396648.57149 -12755384.75147  20965406.531    20965418.941
       242.000         206.000
  22696842.923     6591077.71949   5395870.54246  22696842.043    22696860.792
       222.000         172.000
  24732143.721   -10212679.71349  -7356736.90845  24732142.754    24732161.633
       203.000         134.000
  23920511.917    -8431680.13849  -6558110.77145  23920510.405    23920532.777
       211.000         148.000
  20630514.029   -22058079.11849 -16658502.80048  20630513.443    20630524.649
       246.000         213.000
  23353629.702    16876513.26749  13156786.11545  23353629.878    23353645.547
       219.000         156.000
  20917708.581   -16133879.14049 -12234147.31147  20917707.422    20917719.960
       240.000         201.000
 00  3 12  0 33  0.0000000  0  8G17G30G 5G13G26G 6G24G10
  22211573.164   -17879954.92649 -13037624.12147  22211571.799    22211587.062
       234.000         188.000
  20975478.445   -16343720.18449 -12714141.91247  20975478.718    20975491.005
       242.000         206.000
  22715523.669     6689244.85249   5472364.18946  22715523.970    22715540.746
       223.000         171.000
  24731861.778   -10214160.39849  -7357890.55445  24731861.339    24731879.812
       207.000         136.000
  23903773.098    -8519641.86249  -6626651.98745  23903771.643    23903793.149
       212.000         148.000
  20621911.145   -22103287.15849 -16693729.74548  20621910.688    20621921.958
       246.000         214.000
  23367452.718    16949153.16849  13213388.58745  23367451.840    23367470.040
       218.000         154.000
  20928089.655   -16079326.35449 -12191638.66747  20928088.936    20928100.875
       240.000         201.000
 00  3 12  0 33 30.0000000  0  8G17G30G 5G13G26G 6G24G10
  22200473.403   -17938283.95249 -13083075.15847  22200472.043    22200487.749
       234.000         189.000
  20985643.041   -16290305.10149 -12672519.82647  20985643.182    20985655.425
       243.000         206.000
  22734240.874     6787603.88549   5549007.37546  22734239.893    22734258.217
       223.000         171.000
  24731670.091   -10215167.91649  -7358675.51745  24731670.221    24731688.278
       205.000         137.000
  23887047.304    -8607535.21449  -6695139.94245  23887045.952    23887067.473
       213.000         147.000
  20613356.537   -22148241.63849 -16728759.11248  20613356.021    20613367.173
       246.000         214.000
  23381262.528    17021724.01749  13269937.22845  23381262.409    23381280.041
       218.000         154.000
  20938564.590   -16024280.39749 -12148745.73047  20938563.474    20938575.983
       240.000         201.000
 00  3 12  0 34  0.0000000  0  8G17G30G 5G13G26G 6G24G10
  22189409.576   -17996424.11149 -13128379.02847  22189407.963    22189423.688
       233.000         188.000
  20995900.651   -16236401.27549 -12630516.90647  20995900.790    20995912.818
       242.000         206.000
  22752989.863     6886129.45549   5625780.32646  22752989.633    22753007.167
       221.000         170.000
  24731569.832   -10215695.19049  -7359086.27545  24731569.191    24731587.086
       204.000         137.000
  23870332.768    -8695369.11349  -6763581.55845  23870332.163    23870352.938
       213.000         147.000
  20604850.847   -22192939.14149 -16763588.24148  20604850.159    20604861.362
       246.000         214.000
  23395062.418    17094242.47749  13326445.04845  23395061.736    23395078.915
       216.000         153.000
  20949132.261   -15968746.72449 -12105472.75847  20949131.038    20949143.453
       239.000         200.000
 00  3 12  0 34 30.0000000  0  8G17G30G 5G13G26G 6G24G10
  22178381.731   -18054374.84149 -13173535.28547  22178380.547    22178396.024
       234.000         189.000
  21006249.390   -16182018.62949 -12588140.87947  21006249.716    21006262.211
       242.000         206.000
  22771766.638     6984801.10149   5702667.10346  22771766.474    22771783.755
       223.000         170.000
  24731562.305   -10215733.49149  -7359116.01245  24731561.636    24731579.425
       206.000         137.000
  23853628.426    -8783149.46349  -6831981.48745  23853627.068    23853648.350
       214.000         146.000
  20596391.702   -22237391.70949 -16798226.51548  20596391.095    20596402.402
       246.000         214.000
  23408854.658    17166721.02749  13382921.79145  23408854.437    23408870.810
       217.000         152.000
  20959787.968   -15912750.62649 -12061839.46147  20959786.802    20959799.262
       239.000         200.000
 00  3 12  0 35  0.0000000  0  8G17G30G 5G13G26G 6G24G10
  22467182.836   -16536713.99249 -11990942.25947  22467181.804    22467197.089
       235.000         189.000
  21316480.285   -14551744.52749 -11317797.48147  21316480.258    21316492.866
       242.000         206.000
  23090363.134     8659035.99549   7007265.50346  23090363.024    23090380.147
       222.000         169.000
  25031443.126    -8639848.88849  -6131153.85745  25031442.983    25031458.515
       206.000         137.000
  24136727.776    -7295450.28349  -5672735.02345  24136726.632    24136748.406
       212.000         145.000
  20887774.432   -20706164.85449 -15605062.63948  20887773.865    20887784.888
       246.000         214.000
  23722431.074    18814576.01249  14666964.57745  23722431.652    23722447.724
       216.000         151.000
  21270325.915   -14280862.80449 -10790238.58147  21270324.841    21270337.213
       239.000         200.000
 00  3 12  0 35 30.0000000  0  8G17G30G 5G13G26G 6G24G10
  22456226.993   -16594287.03949 -12035804.21947  22456225.768    22456241.153
       235.000         189.000
  21327004.746   -14496438.19349 -11274701.69847  21327004.772    21327017.320
       243.000         206.000
  23109190.971     8757975.94049   7084361.34746  23109190.950    23109208.858
       223.000         169.000
  25031625.329    -8638891.01549  -6130407.35645  25031624.627    25031641.604
       207.000         137.000
  24120040.879    -7383138.95849  -5741063.52545  24120039.824    24120060.747
       214.000         146.000
  20879410.825   -20750115.31549 -15639309.66548  20879410.225    20879421.401
       246.000         214.000
  23736206.705    18886967.23749  14723373.28045  23736206.576    23736223.614
       218.000         151.000
  21281157.385   -14223943.14949 -10745885.62647  21281156.432    21281168.719
       239.000         199.000
 00  3 12  0 36  0.0000000  0  8G17G30G 5G13G26G 6G24G10
  22445306.930   -16651671.73249 -12080519.40647  22445305.978    22445320.794
       234.000         189.000
  21337612.576   -14440694.02049 -11231264.74047  21337612.778    21337625.165
       242.000         206.000
  23128036.798     8857009.98949   7161530.51346  23128036.623    23128053.737
       222.000         169.000
  25031896.524    -8637465.28749  -6129296.27845  25031895.819    25031913.109
       206.000         138.000
  24103358.201    -7470805.65149  -5809374.91645  24103356.703    24103378.749
       213.000         146.000
  20871092.945   -20793825.77249 -15673369.67748  20871092.333    20871103.494
       246.000         214.000
  23749971.983    18959303.83449  14779739.41745  23749971.187    23749988.622
       217.000         151.000
  21292068.989   -14166602.36549 -10701204.51547  21292068.218    21292080.509
       239.000         199.000
 00  3 12  0 36 30.0000000  0  9G17G30G23G 5G13G26G 6G24G10
  22434422.739   -16708867.94949 -12125087.74447  22434421.293    22434436.641
       234.000         189.000
  21348303.505   -14384512.96349 -11187487.35947  21348303.647    21348315.863
       242.000         206.000
  24638366.895    -6282526.36649  -4848770.80145  24638365.155    24638390.736
       199.000         140.000
  23146903.830     8956155.76049   7238786.72146  23146903.822    23146921.947
       222.000         169.000
  25032254.603    -8635583.19349  -6127829.62945  25032254.341    25032271.311
       205.000         137.000
  24086683.132    -7558432.07949  -5877654.90545  24086681.857    24086702.774
       214.000         145.000
  20862820.738   -20837296.07049 -15707242.56048  20862820.040    20862831.266
       246.000         214.000
  23763723.424    19031567.87649  14836049.00445  23763722.547    23763740.520
       216.000         151.000
  21303061.045   -14108838.81749 -10656193.98247  21303060.348    21303072.575
       238.000         199.000
 00  3 12  0 37  0.0000000  0  9G17G30G23G 5G13G26G 6G24G10
  22423574.348   -16765875.78349 -12169509.28047  22423573.003    22423588.042
       234.000         190.000
  21359079.951   -14327882.68149 -11143359.93047  21359080.166    21359092.373
       242.000         206.000
  24617786.689    -6390673.54049  -4933040.81645  24617783.653    24617810.279
       198.000         138.000
  23165794.914     9055428.12149   7316141.57646  23165794.614    23165812.360
       222.000         169.000
  25032698.277    -8633250.95949  -6126012.19445  25032699.383    25032715.000
       206.000         137.000
  24070015.112    -7646022.05049  -5945906.48845  24070014.476    24070035.104
       213.000         145.000
  20854597.384   -20880509.60849 -15740915.36648  20854596.853    20854608.114
       246.000         214.000
  23777462.062    19103764.73249  14892306.25045  23777461.646    23777479.507
       214.000         150.000
  21314136.395   -14050637.57049 -10610842.38047  21314135.281    21314147.522
       239.000         199.000
 00  3 12  0 37 30.0000000  0  9G17G30G23G 5G13G26G 6G24G10
  22412761.810   -16822695.62449 -12213784.32547  22412760.928    22412776.071
       235.000         190.000
  21369942.943   -14270797.48149 -11098878.02147  21369942.966    21369955.492
       242.000         205.000
  24597221.739    -6498741.84949  -5017249.37545  24597221.068    24597246.183
       202.000         139.000
  23184708.634     9154820.04849   7393589.59146  23184708.970    23184726.502
       221.000         168.000
  25033225.948    -8630477.63449  -6123851.04845  25033224.649    25033242.499
       203.000         136.000
  24053354.507    -7733572.57649  -6014127.33645  24053353.690    24053374.473
       212.000         145.000
  20846422.577   -20923468.17449 -15774389.49248  20846421.992    20846433.085
       246.000         214.000
  23791191.303    19175912.71049  14948525.39845  23791190.552    23791207.336
       216.000         150.000
  21325293.041   -13992008.93449 -10565157.75447  21325292.117    21325304.344
       238.000         199.000
 00  3 12  0 38  0.0000000  0  9G17G30G23G 5G13G26G 6G24G10
  22401985.035   -16879327.45249 -12257912.86947  22401983.689    22401998.597
       234.000         190.000
  21380895.005   -14213244.12849 -11054031.32047  21380895.134    21380907.594
       242.000         205.000
  24576673.135    -6606724.77449  -5101391.41045  24576671.494    24576696.097
       203.000         140.000
  23203647.509     9254343.91449   7471140.42346  23203647.459    23203664.322
       221.000         167.000
  25033839.218    -8627254.53549  -6121339.43345  25033839.524    25033856.634
       205.000         136.000
  24036703.338    -7821073.86449  -6082309.80945  24036701.808    24036722.716
       211.000         145.000
  20838296.661   -20966169.79649 -15807663.40548  20838296.208    20838307.147
       246.000         214.000
  23804912.448    19248018.46449  15004711.65545  23804912.952    23804929.500
       216.000         150.000
  21336533.264   -13932941.37449 -10519131.10647  21336532.356    21336544.611
       238.000         199.000
 00  3 12  0 38 30.0000000  0  9G17G30G23G 5G13G26G 6G24G10
  22391243.861   -16935772.27349 -12301895.69447  22391242.485    22391257.374
       235.000         191.000
  21391939.394   -14155205.84649 -11008806.74547  21391939.159    21391951.963
       242.000         205.000
  24556142.360    -6714612.83049  -5185459.52345  24556141.677    24556166.174
       207.000         140.000
  23222615.589     9354020.83549   7548810.51746  23222615.538    23222633.369
       221.000         166.000
  25034544.698    -8623547.20949  -6118450.48945  25034543.526    25034561.351
       206.000         137.000
  24020062.692    -7908519.07849  -6150448.59545  24020061.977    24020082.144
       211.000         144.000
  20830221.459   -21008605.02149 -15840729.73148  20830220.938    20830231.923
       245.000         214.000
  23818631.441    19320111.65849  15060888.12945  23818631.155    23818648.705
       217.000         151.000
  21347861.588   -13873410.87249 -10472743.72347  21347860.734    21347872.880
       239.000         198.000
 00  3 12  0 39  0.0000000  0  9G17G30G23G 5G13G26G 6G24G10
  22380538.397   -16992029.07649 -12345732.00847  22380537.107    22380551.712
       234.000         190.000
  21403073.112   -14096697.81949 -10963216.14247  21403073.181    21403085.748
       242.000         205.000
  24535628.103    -6822414.39649  -5269460.24345  24535626.309    24535651.205
       207.000         141.000
  23241609.517     9453833.75849   7626586.58246  23241608.859    23241627.721
       220.000         165.000
  25035341.367    -8619360.29449  -6115187.83745  25035341.394    25035357.875
       205.000         137.000
  24003430.505    -7995920.57649  -6218553.28945  24003428.352    24003450.132
       207.000         144.000
  20822195.324   -21050782.23449 -15873595.01048  20822194.984    20822205.786
       245.000         214.000
  23832348.582    19392195.03849  15117056.95545  23832348.129    23832364.908
       219.000         152.000
  21359278.341   -13813415.36849 -10425993.99447  21359277.550    21359289.755
       238.000         198.000
 00  3 12  0 39 30.0000000  0  9G17G30G23G 5G13G26G 6G24G10
  22369868.614   -17048098.35149 -12389422.19847  22369867.523    22369882.299
       235.000         191.000
  21414295.016   -14037726.63649 -10917264.63947  21414295.192    21414307.740
       241.000         205.000
  24515128.775    -6930136.79649  -5353399.28845  24515126.771    24515152.442
       208.000         143.000
  23260626.364     9553767.18149   7704456.53146  23260626.284    23260644.414
       220.000         165.000
  25036231.119    -8614684.06049  -6111543.91245  25036230.548    25036248.223
       203.000         136.000
  23986810.729    -8083256.59249  -6286606.96745  23986810.527    23986830.923
       206.000         144.000
  20814217.714   -21092704.64749 -15906261.74548  20814217.087    20814228.131
       245.000         214.000
  23846060.695    19464252.10949  15173205.29045  23846060.516    23846077.233
       216.000         152.000
  21370782.089   -13752962.95149 -10378888.23247  21370781.066    21370793.509
       239.000         198.000
 00  3 12  0 40  0.0000000  0  9G17G30G23G 5G13G26G 6G24G10
  22359234.418   -17103980.65849 -12432966.69747  22359232.895    22359248.110
       235.000         191.000
  21425604.872   -13978293.10349 -10870952.86747  21425605.012    21425617.564
       241.000         204.000
  24494646.377    -7037770.27949  -5437269.04645  24494643.931    24494669.210
       212.000         144.000
  23279667.432     9653827.57949   7782425.41846  23279666.582    23279685.509
       220.000         164.000
  25037216.886    -8609502.62449  -6107506.30045  25037217.015    25037232.916
       203.000         136.000
  23970206.217    -8170512.56549  -6354598.28345  23970204.663    23970225.244
       206.000         144.000
  20806290.868   -21134360.28949 -15938720.60348  20806290.395    20806301.045
       245.000         214.000
  23859765.071    19536268.94049  15229322.26845  23859765.108    23859781.956
       216.000         153.000
  21382374.577   -13692044.01249 -10331418.93947  21382373.681    21382385.985
       239.000         198.000
 00  3 12  0 40 30.0000000  0  9G17G30G23G 5G13G26G 6G24G10
  22348635.749   -17159676.54149 -12476365.93447  22348634.212    22348649.693
       233.000         191.000
  21437000.454   -13918409.15449 -10824290.11947  21437000.513    21437013.263
       241.000         204.000
  24474183.392    -7145301.43849  -5521059.08745  24474181.267    24474205.795
       212.000         145.000
  23298731.880     9754010.86349   7860490.07146  23298731.524    23298749.937
       219.000         164.000
  25038299.154    -8603815.14849  -6103074.38845  25038299.626    25038315.388
       203.000         136.000
  23953619.606    -8257674.97249  -6422516.66145  23953619.125    23953638.214
       202.000         143.000
  20798414.759   -21175749.13449 -15970971.56548  20798414.008    20798425.182
       245.000         214.000
  23873461.036    19608241.38649  15285404.63945  23873461.157    23873477.988
       217.000         154.000
  21394053.855   -13630669.07749 -10283594.32647  21394052.606    21394065.194
       238.000         198.000
 00  3 12  0 41  0.0000000  0  9G17G30G23G 5G13G26G 6G24G10
  22338072.646   -17215185.27549 -12519619.33547  22338070.606    22338086.675
       233.000         191.000
  21448476.508   -13858102.21549 -10777297.77447  21448476.539    21448488.967
       241.000         204.000
  24453737.884    -7252741.38749  -5604778.05545  24453735.901    24453760.730
       211.000         144.000
  23317815.580     9854295.48849   7938633.69146  23317815.322    23317832.938
       219.000         163.000
  25039472.810    -8597646.93049  -6098267.85545  25039472.474    25039490.475
       204.000         137.000
  23937051.187    -8344740.62549  -6490359.66145  23937049.955    23937070.084
       202.000         143.000
  20790589.063   -21216873.02149 -16003016.07348  20790588.495    20790599.232
       245.000         214.000
  23887141.946    19680134.97149  15341425.55245  23887140.447    23887159.481
       216.000         154.000
  21405813.366   -13568872.35249 -10235441.05947  21405812.444    21405824.702
       238.000         198.000
 00  3 12  0 41 30.0000000  0  9G17G30G23G 5G13G26G 6G24G10
  22327545.092   -17270507.31549 -12562727.25847  22327544.023    22327558.536
       233.000         191.000
  21460034.591   -13797364.40449 -10729969.68047  21460034.767    21460047.291
       241.000         204.000
  24433311.452    -7360080.65149  -5688418.57445  24433308.942    24433334.144
       211.000         143.000
  23336917.525     9954676.13449   8016852.12245  23336917.858    23336935.896
       219.000         162.000
  25040741.191    -8590981.79249  -6093074.13045  25040740.086    25040758.066
       205.000         137.000
  23920503.654    -8431696.45749  -6558117.07145  23920501.981    23920522.914
       201.000         143.000
  20782817.070   -21257714.60449 -16034840.60248  20782816.346    20782827.421
       245.000         215.000
  23900807.753    19751949.33949  15397384.75445  23900807.175    23900825.785
       216.000         155.000
  21417652.299   -13506658.62849 -10186962.85647  21417651.339    21417663.531
       238.000         198.000
 00  3 12  0 42  0.0000000  0  9G17G30G23G 5G13G26G 6G24G10
  22317052.899   -17325643.45449 -12605690.33147  22317051.797    22317066.852
       234.000         192.000
  21471672.281   -13736208.37949 -10682315.70647  21471672.650    21471685.034
       241.000         204.000
  24412905.652    -7467311.93749  -5771974.94045  24412903.359    24412928.656
       213.000         144.000
  23356038.559    10055157.15749   8095148.77046  23356038.351    23356056.600
       219.000         163.000
  25042103.004    -8583825.20549  -6087497.45045  25042102.044    25042119.529
       202.000         137.000
  23903973.198    -8518563.36449  -6625805.19945  23903972.384    23903992.310
       203.000         144.000
  20775098.439   -21298275.80549 -16066446.65348  20775097.769    20775108.813
       245.000         215.000
  23914460.045    19823692.26949  15453288.28445  23914460.144    23914478.682
       215.000         156.000
  21429571.501   -13444022.83249 -10138155.77447  21429570.577    21429583.117
       238.000         198.000
 00  3 12  0 42 30.0000000  0  9G17G30G23G 5G13G26G 6G24G10
  22306596.130   -17380593.51849 -12648508.39647  22306595.066    22306609.411
       234.000         192.000
  21483385.180   -13674657.04749 -10634353.70547  21483385.362    21483397.790
       240.000         204.000
  24392514.823    -7574464.58449  -5855470.03745  24392512.465    24392537.536
       213.000         144.000
  23375174.066    10155714.12849   8173504.59445  23375174.374    23375192.684
       219.000         162.000
  25043553.049    -8576204.16849  -6081558.85945  25043552.499    25043569.687
       204.000         136.000
  23887455.552    -8605363.15249  -6693441.02345  23887454.090    23887474.911
       208.000         146.000
  20767429.372   -21338576.59549 -16097849.79248  20767428.868    20767439.772
       245.000         215.000
  23928097.228    19895355.75649  15509129.89445  23928096.833    23928115.708
       213.000         155.000
  21441565.336   -13380994.94449 -10089043.17047  21441564.224    21441576.792
       238.000         197.000
 00  3 12  0 43  0.0000000  0  9G17G30G23G 5G13G26G 6G24G10
  22293165.072   -17451173.77949 -12703505.83847  22293163.734    22293178.822
       235.000         192.000
  21492168.915   -13628498.48849 -10598386.07347  21492168.921    21492181.637
       240.000         203.000
  24369128.116    -7697360.82849  -5951232.87745  24369125.865    24369149.719
       214.000         144.000
  23391314.206    10240529.65749   8239594.36346  23391313.760    23391332.011
       219.000         163.000
  25042083.293    -8583926.78049  -6087576.35645  25042083.306    25042099.838
       205.000         138.000
  23867939.486    -8707918.89549  -6773354.20545  23867937.900    23867958.223
       206.000         149.000
  20756805.308   -21394406.26949 -16141353.35548  20756804.793    20756815.834
       245.000         215.000
  23938711.890    19951135.79849  15552594.81845  23938711.525    23938729.466
       213.000         154.000
  21450624.568   -13333388.65649 -10051947.40247  21450623.652    21450636.184
       238.000         197.000
 00  3 12  0 43 30.0000000  0  9G17G30G23G 5G13G26G 6G24G10
  22250393.530   -17675939.17049 -12878647.53647  22250392.254    22250407.024
       234.000         192.000
  21471662.902   -13736258.51349 -10682355.00147  21471663.327    21471675.739
       241.000         203.000
  24316381.894    -7974542.01849  -6167217.74845  24316379.421    24316403.921
       213.000         144.000
  23378096.130    10171066.96949   8185467.32346  23378095.971    23378114.587
       218.000         163.000
  25011332.253    -8745524.45949  -6213496.50545  25011331.316    25011348.457
       205.000         138.000
  23819060.940    -8964776.02549  -6973502.26145  23819060.038    23819080.135
       212.000         151.000
  20716861.301   -21604313.23049 -16304917.14348  20716860.566    20716871.585
       245.000         215.000
  23919942.311    19852500.73249  15475736.30045  23919941.519    23919959.263
       213.000         153.000
  21430387.766   -13439733.99349 -10134813.94647  21430386.882    21430399.200
       238.000         197.000
 00  3 12  0 44  0.0000000  0  9G17G30G23G 5G13G26G 6G24G10
  22223004.226   -17819870.28949 -12990801.49347  22223003.125    22223017.605
       234.000         193.000
  21466591.687   -13762908.48949 -10703121.28947  21466591.858    21466604.335
       241.000         203.000
  24279001.749    -8170974.30649  -6320281.39245  24278999.798    24279023.928
       214.000         147.000
  23380243.809    10182352.23949   8194260.76246  23380244.074    23380262.060
       219.000         163.000
  24996019.837    -8825990.83749  -6276197.46745  24996018.876    24996036.510
       203.000         137.000
  23785545.558    -9140899.52049  -7110740.97245  23785544.470    23785564.500
       213.000         153.000
  20692318.613   -21733285.62749 -16405415.04148  20692318.026    20692328.906
       245.000         215.000
  23916512.053    19834474.48949  15461689.84245  23916510.215    23916529.475
       212.000         153.000
  21425576.030   -13465020.02249 -10154517.38547  21425575.153    21425587.543
       237.000         197.000
 00  3 12  0 44 30.0000000  0  9G17G30G23G 5G13G26G 6G24G10
  22204045.896   -17919496.36549 -13068432.03847  22204044.730    22204059.163
       235.000         193.000
  21470007.262   -13744959.80849 -10689135.38047  21470007.453    21470020.257
       241.000         203.000
  24250040.906    -8323162.57349  -6438869.14645  24250039.067    24250063.526
       210.000         148.000
  23390805.151    10237851.45149   8237506.63446  23390805.103    23390824.448
       218.000         164.000
  24989195.457    -8861852.97749  -6304141.88345  24989195.030    24989212.905
       206.000         138.000
  23760449.008    -9272781.77449  -7213505.99045  23760447.734    23760467.765
       213.000         154.000
  20676227.583   -21817844.28649 -16471304.83048  20676226.996    20676237.929
       245.000         215.000
  23921470.307    19860530.35049  15481993.09645  23921470.910    23921487.030
       212.000         153.000
  21429235.583   -13445789.03749 -10139532.24547  21429234.570    21429247.359
       237.000         196.000
 00  3 12  0 45  0.0000000  0  9G17G30G23G 5G13G26G 6G24G10
  22189280.100   -17997090.47749 -13128894.81247  22189279.022    22189293.634
       235.000         193.000
  21477675.360   -13704663.86049 -10657736.01047  21477675.665    21477687.961
       241.000         203.000
  24225267.978    -8453343.17449  -6540308.06545  24225265.238    24225289.992
       208.000         146.000
  23405545.242    10315310.13249   8297863.77246  23405545.628    23405564.179
       219.000         165.000
  24986624.428    -8875363.50449  -6314669.44645  24986624.010    24986640.255
       207.000         139.000
  23739539.209    -9382661.74649  -7299126.36645  23739538.170    23739557.918
       213.000         155.000
  20664354.737   -21880236.34149 -16519921.94048  20664354.195    20664364.868
       245.000         215.000
  23930579.171    19908397.66549  15519292.27345  23930578.845    23930596.766
       211.000         152.000
  21437133.219   -13404286.69549 -10107192.79447  21437132.452    21437144.660
       237.000         196.000
 00  3 12  0 45 30.0000000  0  9G17G30G23G 5G13G26G 6G24G10
  22176612.517   -18063658.35049 -13180765.72447  22176611.501    22176626.107
       235.000         193.000
  21487495.304   -13653059.88849 -10617525.20047  21487495.456    21487507.976
       241.000         203.000
  24202590.469    -8572511.92349  -6633166.28245  24202588.397    24202612.613
       206.000         144.000
  23422369.017    10403718.44249   8366753.08946  23422368.841    23422387.346
       219.000         165.000
  24986211.235    -8877534.90049  -6316361.31445  24986210.476    24986227.725
       206.000         139.000
  23720724.551    -9481531.55349  -7376167.39745  23720723.465    23720743.184
       215.000         156.000
  20654600.875   -21931492.84849 -16559862.00748  20654600.418    20654611.114
       246.000         215.000
  23941741.643    19967057.34549  15565001.09745  23941741.407    23941758.935
       208.000         151.000
  21447176.468   -13351509.20649 -10066067.51647  21447175.649    21447188.219
       237.000         196.000
 00  3 12  0 46  0.0000000  0  9G17G30G23G 5G13G26G 6G24G10
  22165109.667   -18124105.50849 -13227867.24547  22165108.705    22165123.077
       235.000         194.000
  21498527.901   -13595083.46749 -10572348.84447  21498528.179    21498540.836
       240.000         202.000
  24181073.495    -8685581.63449  -6721272.02345  24181071.393    24181095.405
       205.000         143.000
  23440340.222    10498156.60049   8440340.99246  23440340.530    23440359.763
       220.000         166.000
  24987018.732    -8873291.02049  -6313054.24945  24987018.207    24987035.473
       206.000         140.000
  23703070.832    -9574301.31949  -7448455.13545  23703070.066    23703089.353
       214.000         157.000
  20646030.496   -21976530.25149 -16594956.01848  20646029.831    20646040.708
       245.000         215.000
  23954023.753    20031600.23249  15615294.23945  23954023.425    23954041.773
       209.000         150.000
  21458429.674   -13292373.28849 -10019987.61647  21458428.509    21458441.029
       237.000         196.000
 00  3 12  0 46 30.0000000  0  9G17G30G23G 5G13G26G 6G24G10
  22154260.827   -18181115.97249 -13272290.82347  22154259.186    22154273.754
       235.000         194.000
  21510257.267   -13533445.63549 -10524319.44147  21510257.409    21510270.055
       240.000         202.000
  24160201.223    -8795263.89249  -6806738.16745  24160199.122    24160222.369
       204.000         143.000
  23458945.871    10595928.68449   8516526.74746  23458947.029    23458965.300
       220.000         166.000
  24988536.090    -8865317.00749  -6306840.59545  24988534.438    24988551.716
       205.000         140.000
  23686062.435    -9663679.57749  -7518100.13845  23686061.191    23686081.194
       215.000         157.000
  20638132.073   -22018036.49849 -16627298.48548  20638131.409    20638141.945
       245.000         215.000
  23966913.007    20099333.38349  15668073.30545  23966912.552    23966930.090
       206.000         148.000
  21470383.685   -13229554.58449  -9971038.01347  21470382.553    21470395.073
       236.000         195.000
 00  3 12  0 47  0.0000000  0  9G17G30G23G 5G13G26G 6G24G10
  22143786.521   -18236158.02149 -13315180.58047  22143785.426    22143799.917
       235.000         194.000
  21522401.338   -13469628.36149 -10474591.77547  21522401.342    21522414.236
       240.000         202.000
  24139689.769    -8903050.28349  -6890727.01145  24139687.262    24139710.964
       205.000         144.000
  23477906.243    10695564.91949   8594165.09446  23477906.174    23477925.461
       220.000         165.000
  24990485.230    -8855073.49949  -6298858.52745  24990485.007    24990501.632
       205.000         140.000
  23669415.371    -9751158.90749  -7586265.44545  23669414.585    23669433.529
       216.000         156.000
  20630624.678   -22057487.77249 -16658039.67448  20630624.066    20630634.958
       245.000         215.000
  23980130.838    20168792.71649  15722197.44745  23980129.951    23980147.964
       203.000         146.000
  21482762.517   -13164503.13549  -9920348.60347  21482761.194    21482774.116
       236.000         195.000
 00  3 12  0 47 30.0000000  0  9G17G30G23G 5G13G26G 6G24G10
  22133533.959   -18290035.10349 -13357162.57347  22133532.794    22133547.145
       236.000         194.000
  21534803.137   -13404456.62549 -10423808.68847  21534803.216    21534816.102
       240.000         202.000
  24119381.861    -9009766.26549  -6973881.77045  24119379.891    24119404.267
       208.000         146.000
  23497066.036    10796248.80749   8672619.77946  23497066.150    23497085.375
       220.000         164.000
  24992710.189    -8843380.50549  -6289746.98545  24992709.317    24992726.548
       206.000         139.000
  23652971.370    -9837571.28549  -7653599.37145  23652969.950    23652988.909
       217.000         156.000
  20623351.296   -22095709.33149 -16687822.64848  20623350.891    20623361.532
       246.000         215.000
  23993526.145    20239186.50449  15777049.70845  23993525.248    23993543.037
       204.000         143.000
  21495411.046   -13098034.74949  -9868555.08947  21495410.127    21495422.803
       236.000         195.000
 00  3 12  0 48  0.0000000  0  9G17G30G23G 5G13G26G 6G24G10
  22123419.283   -18343187.54649 -13398579.90547  22123418.276    22123432.688
       237.000         195.000
  21547380.699   -13338361.23349 -10372305.85847  21547381.009    21547393.893
       240.000         201.000
  24099192.483    -9115859.51249  -7056551.25745  24099190.907    24099214.902
       207.000         148.000
  23516341.197    10897539.59149   8751547.38246  23516341.396    23516359.810
       217.000         163.000
  24995126.121    -8830684.36449  -6279853.76145  24995126.784    24995141.940
       205.000         139.000
  23636646.545    -9923357.21149  -7720445.14545  23636645.711    23636664.781
       216.000         155.000
  20616231.352   -22133124.61049 -16716977.34848  20616230.940    20616241.654
       246.000         215.000
  24007016.475    20310078.57949  15832290.26245  24007015.909    24007032.947
       203.000         143.000
  21508241.818   -13030608.72549  -9816015.35247  21508241.154    21508253.755
       236.000         194.000
 00  3 12  0 48 30.0000000  0  9G17G30G23G 5G13G26G 6G24G10
  22113396.738   -18395855.89049 -13439620.02947  22113395.765    22113409.819
       237.000         195.000
  21560090.124   -13271573.15549 -10320263.28047  21560090.440    21560103.065
       240.000         201.000
  24079079.364    -9221552.25849  -7138908.65345  24079076.572    24079101.247
       207.000         149.000
  23535685.816    10999195.37049   8830759.40245  23535685.804    23535704.593
       218.000         161.000
  24997690.335    -8817208.82049  -6269353.23045  24997690.189    24997704.953
       205.000         140.000
  23620397.852   -10008743.17449  -7786979.24545  23620396.450    23620415.219
       217.000         153.000
  20609222.351   -22169956.97549 -16745677.82748  20609221.793    20609232.482
       246.000         215.000
  24020554.390    20381221.31849  15887726.14345  24020553.697    24020571.308
       205.000         143.000
  21521206.125   -12962480.97949  -9762928.82147  21521204.720    21521217.507
       235.000         194.000
 00  3 12  0 49  0.0000000  0  9G17G30G23G 5G13G26G 6G24G10
  22103441.281   -18448171.69249 -13480385.44347  22103439.987    22103454.133
       237.000         195.000
  21572906.500   -13204222.93549 -10267782.66647  21572906.598    21572919.090
       240.000         201.000
  24059023.140    -9326945.75949  -7221032.87045  24059022.016    24059044.660
       208.000         149.000
  23555076.184    11101091.41749   8910158.63345  23555075.571    23555096.244
       216.000         159.000
  25000378.410    -8803082.04649  -6258345.24345  25000378.158    25000393.921
       205.000         139.000
  23604203.884   -10093841.46349  -7853289.18745  23604203.130    23604221.098
       214.000         152.000
  20602303.490   -22206315.49849 -16774009.07648  20602302.972    20602313.738
       246.000         216.000
  24034115.661    20452487.11749  15943257.93345  24034115.288    24034132.720
       206.000         143.000
  21534274.252   -12893807.38749  -9709416.95747  21534273.093    21534286.143
       236.000         194.000
 00  3 12  0 49 30.0000000  0  9G17G30G23G 5G13G26G 6G24G10
  22093539.073   -18500207.50549 -13520932.68647  22093537.902    22093551.837
       236.000         195.000
  21585815.047   -13136388.40749 -10214924.67347  21585815.451    21585828.124
       240.000         200.000
  24039013.058    -9432096.75149  -7302968.13545  24039010.959    24039035.319
       209.000         151.000
  23574499.045    11203158.37949   8989691.03945  23574498.734    23574517.239
       216.000         158.000
  25003175.665    -8788382.69249  -6246891.08945  25003175.612    25003192.650
       202.000         139.000
  23588055.085   -10178702.11449  -7919413.94245  23588054.240    23588073.431
       215.000         152.000
  20595463.749   -22242258.33249 -16802016.41048  20595463.208    20595473.870
       246.000         216.000
  24047683.365    20523786.09849  15998815.57445  24047682.756    24047700.168
       208.000         144.000
  21547426.686   -12824691.07949  -9655560.11447  21547425.828    21547438.131
       236.000         193.000
 00  3 12  0 50  0.0000000  0  9G17G30G23G 5G13G26G 6G24G10
  22083682.633   -18552002.83249 -13561292.53947  22083681.685    22083695.939
       237.000         196.000
  21598809.811   -13068100.69649 -10161713.54547  21598809.955    21598823.062
       239.000         200.000
  24019046.436    -9537019.61049  -7384725.64345  24019044.751    24019067.915
       211.000         153.000
  23593947.272    11305358.42049   9069327.15245  23593946.751    23593967.015
       215.000         155.000
  25006079.195    -8773124.44549  -6235001.45645  25006078.952    25006094.982
       203.000         139.000
  23571949.771   -10263334.77749  -7985361.04145  23571948.040    23571966.218
       213.000         151.000
  20588697.349   -22277815.80749 -16829723.46348  20588696.832    20588707.432
       245.000         216.000
  24061248.459    20595070.64949  16054361.96945  24061247.195    24061266.825
       209.000         144.000
  21560653.259   -12755185.36349  -9601399.83547  21560652.371    21560664.681
       236.000         193.000
 00  3 12  0 50 30.0000000  0  9G17G30G23G 5G13G26G 6G24G10
  22073867.843   -18603579.23749 -13601481.80447  22073866.660    22073881.171
       237.000         196.000
  21611886.417   -12999382.86549 -10108167.26247  21611886.692    21611899.511
       239.000         200.000
  23999119.636    -9641733.66349  -7466320.44445  23999118.086    23999140.969
       215.000         155.000
  23613415.123    11407661.90849   9149043.84745  23613415.453    23613435.122
       212.000         154.000
  25009085.698    -8757324.00749  -6222689.32545  25009085.870    25009101.575
       205.000         139.000
  23555882.342   -10347768.13949  -8051152.85345  23555881.203    23555899.430
       214.000         151.000
  20581999.655   -22313012.05249 -16857149.03648  20581999.079    20582009.778
       246.000         216.000
  24074806.743    20666318.95349  16109880.11745  24074806.598    24074823.670
       209.000         145.000
  21573951.389   -12685303.20449  -9546946.22647  21573950.355    21573962.874
       236.000         193.000
 00  3 12  0 51  0.0000000  0  9G17G30G23G 5G13G26G 6G24G10
  22064092.368   -18654949.14949 -13641510.16447  22064091.357    22064105.366
       237.000         196.000
  21625044.860   -12930235.10049 -10054285.96847  21625044.883    21625057.765
       239.000         199.000
  23979228.459    -9746260.76149  -7547769.58245  23979226.737    23979249.692
       216.000         157.000
  23632899.441    11510051.08849   9228827.32945  23632899.594    23632919.344
       214.000         153.000
  25012191.584    -8741002.33849  -6209971.04445  25012191.810    25012206.835
       203.000         139.000
  23539848.786   -10432023.39849  -8116805.87845  23539846.773    23539865.727
       211.000         150.000
  20575367.591   -22347863.53249 -16884305.95948  20575367.100    20575377.702
       245.000         216.000
  24088357.485    20737528.44749  16165368.02645  24088356.678    24088373.956
       209.000         144.000
  21587322.908   -12615035.43149  -9492192.13647  21587322.208    21587334.294
       236.000         193.000
 00  3 12  0 51 30.0000000  0  9G17G30G23G 5G13G26G 6G24G10
  22054355.052   -18706118.83249 -13681382.50247  22054354.068    22054368.042
       237.000         196.000
  21638289.027   -12860636.90149 -10000053.68147  21638289.354    21638302.036
       240.000         199.000
  23959370.921    -9850611.07349  -7629080.97845  23959368.724    23959391.946
       218.000         157.000
  23652399.242    11612521.79849   9308674.34145  23652398.755    23652418.135
       214.000         153.000
  25015399.465    -8724144.47349  -6196834.96045  25015399.020    25015416.634
       203.000         139.000
  23523849.849   -10516096.29049  -8182316.81745  23523848.978    23523867.031
       214.000         150.000
  20568798.842   -22382382.26049 -16911203.59048  20568798.437    20568808.927
       246.000         216.000
  24101902.361    20808707.43549  16220832.15545  24101902.050    24101920.733
       210.000         144.000
  21600771.959   -12544360.18549  -9437120.53147  21600771.287    21600783.681
       236.000         193.000
 00  3 12  0 52  0.0000000  0  9G17G30G23G 5G13G26G 6G24G10
  22044654.960   -18757092.59949 -13721102.17847  22044653.804    22044667.910
       237.000         196.000
  21651617.955   -12790593.33049  -9945474.35847  21651618.307    21651631.051
       239.000         199.000
  23939543.312    -9954803.52149  -7710269.37045  23939541.290    23939564.272
       218.000         159.000
  23671911.014    11715055.07249   9388570.10045  23671910.867    23671929.993
       216.000         154.000
  25018706.355    -8706765.62749  -6183292.90745  25018706.330    25018723.039
       200.000         137.000
  23507880.865   -10600012.56649  -8247705.73545  23507880.203    23507897.820
       214.000         150.000
  20562289.907   -22416586.63449 -16937856.27348  20562289.343    20562299.994
       245.000         216.000
  24115442.870    20879863.33749  16276278.29645  24115442.357    24115460.742
       212.000         144.000
  21614301.152   -12473264.16149  -9381721.05847  21614300.051    21614313.010
       235.000         193.000
 00  3 12  0 52 30.0000000  0  9G17G30G23G 5G13G26G 6G24G10
  22034991.831   -18807872.11149 -13760670.49147  22034990.593    22035004.390
       237.000         196.000
  21665029.317   -12720116.44149  -9890557.38347  21665029.402    21665042.187
       238.000         199.000
  23919741.968   -10058858.52449  -7791350.67345  23919740.059    23919762.445
       217.000         159.000
  23691432.994    11817642.53849   9468508.09745  23691431.853    23691452.520
       216.000         154.000
  25022108.306    -8688887.52849  -6169361.81445  25022106.996    25022124.013
       200.000         136.000
  23491939.040   -10683785.76749  -8312983.16945  23491937.840    23491955.160
       215.000         151.000
  20555842.185   -22450469.44749 -16964258.38748  20555841.497    20555852.041
       246.000         216.000
  24128977.757    20950988.88549  16331700.80445  24128978.586    24128995.326
       212.000         145.000
  21627910.886   -12401744.64949  -9325991.59447  21627909.790    21627922.356
       236.000         192.000
 00  3 12  0 53  0.0000000  0  9G17G30G23G 5G13G26G 6G24G10
  22025365.365   -18858458.92849 -13800088.64547  22025364.018    22025378.345
       237.000         196.000
  21678521.632   -12649214.09149  -9835308.88647  21678521.922    21678534.578
       238.000         198.000
  23899967.208   -10162773.46649  -7872322.83645  23899964.519    23899987.446
       216.000         158.000
  23710967.118    11920294.05149   9548495.99845  23710967.349    23710988.420
       216.000         154.000
  25025605.445    -8670508.57549  -6155040.41645  25025604.854    25025622.132
       201.000         137.000
  23476028.276   -10767396.05449  -8378133.68445  23476027.524    23476044.806
       217.000         153.000
  20549456.948   -22484023.45749 -16990404.28448  20549456.397    20549467.022
       245.000         216.000
  24142505.236    21022076.42049  16387093.68945  24142505.341    24142522.919
       212.000         146.000
  21641599.065   -12329812.79949  -9269940.82747  21641598.133    21641610.812
       235.000         192.000
 00  3 12  0 53 30.0000000  0  9G17G30G23G 5G13G26G 6G24G10
  22015775.470   -18908853.33649 -13839356.87247  22015774.107    22015788.043
       237.000         197.000
  21692090.743   -12577908.38349  -9779746.08747  21692091.248    21692103.628
       238.000         198.000
  23880220.781   -10266539.66149  -7953179.10245  23880218.569    23880241.364
       215.000         158.000
  23730516.568    12023025.67049   9628546.31445  23730516.545    23730536.504
       216.000         153.000
  25029197.034    -8651634.48249  -6140333.22445  25029197.327    25029214.124
       199.000         136.000
  23460151.771   -10850826.35049  -8443143.93645  23460150.846    23460168.101
       217.000         155.000
  20543135.529   -22517242.51249 -17016289.17948  20543135.153    20543145.540
       246.000         216.000
  24156024.752    21093122.04849  16442453.91045  24156024.482    24156043.161
       212.000         144.000
  21655362.330   -12257486.29349  -9213582.54647  21655361.365    21655374.390
       235.000         192.000
 00  3 12  0 54  0.0000000  0  9G17G30G23G 5G13G26G 6G24G10
  22006222.005   -18959056.37149 -13878475.97847  22006221.070    22006234.836
       236.000         197.000
  21705730.237   -12506232.64349  -9723894.94947  21705730.216    21705743.337
       238.000         198.000
  23860500.480   -10370168.59449  -8033928.43845  23860498.850    23860520.510
       214.000         156.000
  23750076.651    12125813.34349   9708640.30945  23750076.864    23750096.859
       215.000         154.000
  25032876.967    -8632296.81049  -6125264.80145  25032877.849    25032892.775
       201.000         136.000
  23444308.001   -10934084.46649  -8508020.04145  23444307.833    23444324.423
       217.000         156.000
  20536877.800   -22550126.88849 -17041913.28448  20536877.136    20536887.900
       246.000         216.000
  24169529.215    21164088.46649  16497752.40045  24169529.233    24169546.448
       213.000         143.000
  21669194.540   -12184797.81249  -9156942.20647  21669193.519    21669206.347
       234.000         192.000
 00  3 12  0 54 30.0000000  0  9G17G30G23G 5G13G26G 6G24G10
  21996704.976   -19009068.09849 -13917446.00847  21996703.769    21996717.867
       237.000         197.000
  21719439.852   -12434188.47549  -9667756.72647  21719439.935    21719453.072
       238.000         198.000
  23840811.839   -10473631.01549  -8114548.03945  23840810.221    23840831.576
       214.000         155.000
  23769647.670    12228658.73349   9788779.28445  23769646.896    23769667.964
       217.000         154.000
  25036647.093    -8612484.87949  -6109826.83245  25036647.290    25036663.266
       203.000         137.000
  23428501.135   -11017148.13749  -8572744.63045  23428500.227    23428518.448
       216.000         156.000
  20530687.557   -22582656.42449 -17067260.89648  20530687.021    20530697.617
       246.000         216.000
  24183017.655    21234970.41349  16552985.09145  24183017.166    24183035.373
       213.000         143.000
  21683094.279   -12111754.35249  -9100025.26147  21683093.277    21683106.017
       235.000         191.000
 00  3 12  0 55  0.0000000  0  9G17G30G23G 5G13G26G 6G24G10
  21987224.284   -19058889.01949 -13956267.35347  21987223.102    21987237.058
       237.000         197.000
  21733223.447   -12361755.52249  -9611315.54847  21733224.122    21733236.896
       238.000         198.000
  23821160.163   -10576899.03249  -8195016.17545  23821158.255    23821179.935
       213.000         153.000
  23789230.838    12331568.29549   9868968.25345  23789231.558    23789250.409
       216.000         154.000
  25040507.464    -8592197.72149  -6094018.56545  25040507.657    25040523.372
       200.000         138.000
  23412733.120   -11100008.10149  -8637310.50245  23412731.683    23412749.571
       217.000         157.000
  20524565.673   -22614826.98349 -17092328.78848  20524565.199    20524575.586
       246.000         216.000
  24196493.182    21305784.75649  16608165.11045  24196493.136    24196508.780
       214.000         142.000
  21697062.864   -12038349.07749  -9042826.38347  21697061.957    21697074.918
       235.000         191.000
 00  3 12  0 55 30.0000000  0  9G17G30G23G 5G13G26G 6G24G10
  21977779.821   -19108519.42549 -13994940.24247  21977778.650    21977792.428
       237.000         197.000
  21747082.745   -12288924.73349  -9554564.36947  21747083.018    21747095.741
       238.000         197.000
  23801547.242   -10679963.42949  -8275325.64845  23801545.113    23801566.460
       211.000         151.000
  23808820.777    12434513.18049   9949184.73945  23808820.746    23808841.526
       217.000         154.000
  25044459.119    -8571431.56449  -6077837.06045  25044458.592    25044475.567
       200.000         137.000
  23397001.495   -11182677.30449  -8701727.71745  23397000.254    23397017.928
       217.000         157.000
  20518510.359   -22646647.62549 -17117124.01648  20518509.811    20518520.488
       246.000         216.000
  24209956.323    21376533.40749  16663293.95545  24209956.486    24209972.636
       215.000         142.000
  21711101.374   -11964576.35149  -8985341.18047  21711100.188    21711113.211
       235.000         191.000
 00  3 12  0 56  0.0000000  0  9G17G30G23G 5G13G26G 6G24G10
  21968371.561   -19157959.71249 -14033464.98747  21968370.474    21968383.923
       237.000         197.000
  21761016.279   -12215703.99149  -9497509.33847  21761016.472    21761029.493
       238.000         197.000
  23781972.285   -10782828.98649  -8355480.19345  23781970.045    23781992.551
       212.000         150.000
  23828413.140    12537470.84149  10029411.19545  23828413.083    23828433.321
       217.000         154.000
  25048504.700    -8550170.35449  -6061269.79245  25048504.651    25048520.083
       200.000         137.000
  23381304.363   -11265164.88049  -8766003.40245  23381302.761    23381320.142
       216.000         158.000
  20512518.982   -22678132.26649 -17141657.43348  20512518.669    20512528.866
       246.000         217.000
  24223405.973    21447211.58749  16718367.87345  24223404.966    24223423.489
       214.000         142.000
  21725210.193   -11890434.20649  -8927568.11947  21725209.440    21725221.825
       234.000         190.000
 00  3 12  0 56 30.0000000  0  9G17G30G23G 5G13G26G 6G24G10
  21958999.361   -19207210.11749 -14071841.76847  21958998.182    21959011.864
       238.000         197.000
  21775026.740   -12142078.84849  -9440139.19247  21775026.973    21775039.900
       237.000         197.000
  23762437.773   -10885481.80049  -8435468.94445  23762435.628    23762457.262
       212.000         151.000
  23848010.615    12640455.00749  10109658.28345  23848010.096    23848031.387
       214.000         154.000
  25052650.312    -8528385.43249  -6044294.45545  25052650.721    25052666.928
       197.000         136.000
  23365643.169   -11347463.34749  -8830131.73545  23365642.202    23365659.491
       215.000         157.000
  20506591.680   -22709280.24049 -17165928.50348  20506591.172    20506601.485
       245.000         217.000
  24236850.225    21517861.55749  16773419.81045  24236849.488    24236867.631
       215.000         142.000
  21739393.518   -11815900.64449  -8869490.06147  21739392.472    21739405.011
       234.000         190.000
 00  3 12  0 57  0.0000000  0  9G17G30G23G 5G13G26G 6G24G10
  21949663.373   -19256270.48849 -14110070.47947  21949662.285    21949675.996
       238.000         198.000
  21789113.771   -12068051.20349  -9382455.41547  21789113.950    21789127.069
       238.000         196.000
  23742940.145   -10987940.71249  -8515306.63345  23742938.296    23742959.139
       212.000         151.000
  23867614.957    12743475.17849  10189933.43745  23867613.795    23867635.732
       215.000         154.000
  25056897.717    -8506063.81349  -6026900.88245  25056897.281    25056915.257
       196.000         134.000
  23350019.752   -11429563.13449  -8894105.22045  23350019.538    23350036.904
       213.000         157.000
  20500725.047   -22740109.36249 -17189951.12348  20500724.504    20500734.918
       246.000         217.000
  24250290.983    21588493.15749  16828457.44445  24250290.743    24250307.950
       214.000         141.000
  21753649.963   -11740982.80549  -8811112.56347  21753649.282    21753661.731
       234.000         190.000
 00  3 12  0 57 30.0000000  0  9G17G30G23G 5G13G26G 6G24G10
  21940363.464   -19305141.34049 -14148151.50547  21940362.363    21940375.957
       238.000         198.000
  21803269.659   -11993662.11149  -9324489.98647  21803269.760    21803282.760
       237.000         197.000
  23723474.049   -11090233.90849  -8595015.19445  23723472.112    23723494.421
       213.000         153.000
  23887223.044    12846515.35749  10270224.16045  23887223.969    23887243.480
       215.000         154.000
  25061248.810    -8483198.48849  -6009083.68345  25061250.088    25061265.733
       197.000         133.000
  23334435.354   -11511458.29149  -8957919.26845  23334434.287    23334451.177
       214.000         156.000
  20494916.611   -22770632.46749 -17213735.28048  20494915.905    20494926.330
       246.000         216.000
  24263725.410    21659092.25849  16883469.74745  24263723.484    24263743.140
       214.000         142.000
  21767975.477   -11665701.60849  -8752451.92347  21767974.475    21767987.790
       233.000         189.000
 00  3 12  0 58  0.0000000  0  9G17G30G23G 5G13G26G 6G24G10
  21931099.643   -19353822.88649 -14186085.02347  21931098.746    21931111.969
       238.000         198.000
  21817488.705   -11918940.85849  -9266265.72847  21817489.217    21817502.180
       237.000         196.000
  23704036.175   -11192378.96549  -8674608.30545  23704035.068    23704055.686
       214.000         155.000
  23906837.609    12949589.52549  10350541.38645  23906838.460    23906858.786
       214.000         155.000
  25065699.425    -8459809.47248  -5990858.37845  25065699.098    25065714.749
       193.000         132.000
  23318890.046   -11593148.35749  -9021573.49645  23318888.999    23318905.985
       213.000         156.000
  20489165.419   -22800854.83949 -17237285.10248  20489164.746    20489175.134
       246.000         216.000
  24277154.511    21729662.79149  16938459.79645  24277154.755    24277171.639
       214.000         141.000
  21782366.065   -11590078.61349  -8693524.94447  21782364.993    21782377.870
       233.000         189.000
 00  3 12  0 58 30.0000000  0  9G17G30G23G 5G13G26G 6G24G10
  21921871.683   -19402315.57149 -14223871.37547  21921870.535    21921883.942
       238.000         198.000
  21831774.298   -11843869.80449  -9207768.89747  21831774.567    21831787.671
       237.000         196.000
  23684629.062   -11294362.24549  -8754075.37345  23684627.344    23684648.361
       214.000         156.000
  23926460.670    13052707.99749  10430893.12345  23926460.446    23926481.221
       215.000         154.000
  25070245.868    -8435917.42049  -5972241.09444  25070246.769    25070263.244
       198.000         131.000
  23303386.453   -11674618.15249  -9085056.07845  23303385.412    23303402.940
       213.000         156.000
  20483475.677   -22830754.40449 -17260583.39348  20483475.135    20483485.364
       246.000         216.000
  24290579.851    21800213.35449  16993434.29145  24290579.282    24290597.298
       212.000         141.000
  21796821.402   -11514115.35949  -8634332.83147  21796820.235    21796833.156
       233.000         189.000
 00  3 12  0 59  0.0000000  0  9G17G30G23G 5G13G26G 6G24G10
  21912679.618   -19450619.37449 -14261510.54847  21912678.388    21912691.494
       238.000         198.000
  21846124.915   -11768457.07349  -9149005.82747  21846125.002    21846138.112
       237.000         196.000
  23665253.368   -11396180.07049  -8833413.51345  23665252.087    23665272.923
       214.000         156.000
  23946091.651    13155868.06449  10511277.27845  23946091.906    23946112.476
       215.000         154.000
  25074884.474    -8411541.58749  -5953246.86445  25074883.389    25074899.367
       198.000         133.000
  23287924.725   -11755868.59449  -9148367.73345  23287923.376    23287940.915
       215.000         156.000
  20477849.455   -22860320.05449 -17283621.48748  20477848.900    20477859.123
       246.000         217.000
  24303996.569    21870718.82749  17048373.64145  24303996.074    24304012.915
       213.000         141.000
  21811339.995   -11437819.46049  -8574881.51547  21811338.824    21811351.884
       232.000         188.000
 00  3 12  0 59 30.0000000  0  9G17G30G23G 5G13G26G 6G24G10
  21903523.524   -19498734.34149 -14299002.57947  21903522.097    21903535.496
       238.000         198.000
  21860540.396   -11692703.66949  -9089977.29647  21860540.583    21860553.752
       236.000         196.000
  23645911.455   -11497820.92349  -8912613.74145  23645909.837    23645930.668
       213.000         157.000
  23965729.057    13259062.21449  10591687.98345  23965729.541    23965750.950
       215.000         154.000
  25079612.128    -8386697.63849  -5933887.86045  25079613.065    25079627.489
       198.000         134.000
  23272502.997   -11836909.52749  -9211516.14645  23272501.722    23272519.292
       215.000         158.000
  20472291.076   -22889529.23549 -17306381.82048  20472290.688    20472300.878
       246.000         217.000
  24317404.186    21941176.41149  17103275.69045  24317402.852    24317421.730
       212.000         143.000
  21825923.190   -11361184.21649  -8515165.78447  21825922.139    21825935.179
       233.000         188.000
 00  3 12  1  0  0.0000000  0  9G17G30G23G 5G13G26G 6G24G10
  21894403.308   -19546660.62849 -14336347.58347  21894402.171    21894415.331
       238.000         199.000
  21875026.463   -11616579.23549  -9030659.65847  21875026.434    21875039.838
       236.000         195.000
  23626609.155   -11599253.84549  -8991651.95545  23626606.860    23626628.266
       215.000         158.000
  23985375.111    13362301.54649  10672133.90245  23985374.940    23985396.227
       214.000         154.000
  25084428.234    -8361388.00449  -5914165.98545  25084427.252    25084444.455
       195.000         132.000
  23257122.018   -11917735.49549  -9274497.05345  23257120.750    23257137.178
       217.000         159.000
  20466804.567   -22918360.77849 -17328847.88848  20466803.946    20466814.132
       246.000         217.000
  24330804.344    22011594.85549  17158147.23845  24330803.725    24330823.304
       211.000         142.000
  21840573.045   -11284199.16649  -8455177.47047  21840572.216    21840585.084
       232.000         188.000
 00  3 12  1  0 30.0000000  0  9G17G30G23G 5G13G26G 6G24G10
  21885318.836   -19594399.28949 -14373546.38447  21885317.590    21885330.844
       238.000         199.000
  21889586.561   -11540065.55349  -8971038.70347  21889586.724    21889600.324
       236.000         195.000
  23607350.462   -11700457.84449  -9070511.76345  23607348.373    23607369.369
       214.000         159.000
  24005027.421    13465573.87349  10752605.53045  24005027.445    24005048.371
       212.000         153.000
  25089335.973    -8335595.61048  -5894067.93444  25089335.904    25089351.990
       193.000         131.000
  23241785.928   -11998325.82949  -9337294.34245  23241784.867    23241801.240
       218.000         161.000
  20461393.169   -22946797.49749 -17351006.30648  20461392.813    20461402.994
       246.000         217.000
  24344196.830    22081973.30049  17212987.59745  24344196.833    24344213.777
       209.000         142.000
  21855290.539   -11206858.24949  -8394911.86147  21855289.628    21855302.262
       232.000         188.000
 00  3 12  1  1  0.0000000  0  9G17G30G23G 5G13G26G 6G24G10
  21876270.215   -19641949.71349 -14410598.51047  21876268.864    21876281.936
       238.000         199.000
  21904217.952   -11463177.47949  -8911126.01747  21904218.185    21904231.925
       236.000         195.000
  23588134.250   -11801437.80549  -9149196.99345  23588132.486    23588153.253
       215.000         160.000
  24024684.210    13568870.15749  10833095.81345  24024683.907    24024705.356
       213.000         153.000
  25094338.011    -8309309.26349  -5873584.97844  25094337.462    25094351.783
       196.000         130.000
  23226495.659   -12078674.93349  -9399903.67045  23226494.552    23226511.909
       218.000         162.000
  20456054.042   -22974854.58549 -17372868.90348  20456053.509    20456063.803
       246.000         217.000
  24357582.747    22152316.51949  17267800.51345  24357582.237    24357600.041
       207.000         141.000
  21870072.679   -11129177.83249  -8334381.71146  21870071.704    21870084.495
       232.000         187.000
 00  3 12  1  1 30.0000000  0  9G17G30G23G 5G13G26G 6G24G10
  21867257.212   -19689312.67649 -14447504.55547  21867255.814    21867269.165
       238.000         199.000
  21918919.090   -11385922.89249  -8850927.73347  21918919.198    21918932.776
       236.000         195.000
  23568960.474   -11902195.07249  -9227708.69145  23568958.839    23568979.370
       217.000         161.000
  24044342.353    13672174.03949  10913592.03245  24044342.258    24044363.953
       211.000         152.000
  25099432.656    -8282537.02949  -5852723.39945  25099433.154    25099448.479
       197.000         132.000
  23211253.327   -12158772.43149  -9462316.94446  23211252.204    23211268.738
       218.000         163.000
  20450784.872   -23002544.02249 -17394445.02448  20450784.237    20450794.507
       246.000         217.000
  24370963.059    22222630.60349  17322590.75545  24370962.334    24370979.838
       206.000         140.000
  21884916.550   -11051172.84749  -8273598.65646  21884915.448    21884927.906
       232.000         187.000
 00  3 12  1  2  0.0000000  0  9G17G30G23G 5G13G26G 6G24G10
  21858279.826   -19736488.21449 -14484264.55747  21858278.589    21858291.972
       238.000         199.000
  21933689.806   -11308302.65349  -8790444.53147  21933690.122    21933703.599
       236.000         194.000
  23549830.066   -12002724.43849  -9306042.80145  23549828.063    23549848.944
       217.000         162.000
  24064001.272    13775481.24149  10994090.81045  24064001.119    24064023.199
       210.000         151.000
  25104621.586    -8255268.47049  -5831475.08345  25104620.313    25104637.973
       196.000         133.000
  23196061.882   -12238602.52149  -9524521.86346  23196060.941    23196076.894
       220.000         165.000
  20445583.695   -23029876.07149 -17415742.66148  20445583.227    20445593.375
       246.000         217.000
  24384337.467    22292914.24549  17377357.24545  24384336.195    24384354.271
       204.000         139.000
  21899822.657   -10972840.74349  -8212560.69646  21899821.789    21899834.870
       232.000         187.000
 00  3 12  1  2 30.0000000  0  9G17G30G23G 5G13G26G 6G24G10
  21849338.224   -19783476.19649 -14520878.41547  21849337.099    21849350.070
       238.000         199.000
  21948529.246   -11230321.28849  -8729679.93847  21948529.549    21948542.985
       236.000         194.000
  23530741.680   -12103032.60449  -9384204.53746  23530740.877    23530760.574
       218.000         163.000
  24083662.157    13878797.69649  11074596.79945  24083662.677    24083683.378
       211.000         150.000
  25109907.890    -8227487.24849  -5809827.32845  25109908.142    25109923.678
       201.000         135.000
  23180922.515   -12318159.14549  -9586513.70346  23180922.471    23180938.148
       220.000         166.000
  20440450.828   -23056849.35249 -17436760.74248  20440450.391    20440460.457
       246.000         217.000
  24397707.368    22363173.62649  17432104.86045  24397707.239    24397723.749
       202.000         138.000
  21914794.995   -10894160.65449  -8151251.57746  21914794.414    21914806.936
       231.000         187.000
 00  3 12  1  3  0.0000000  0  9G17G30G23G 5G13G26G 6G24G10
  21840432.181   -19830277.25649 -14557346.62647  21840431.074    21840444.251
       238.000         199.000
  21963436.831   -11151981.71049  -8668636.21047  21963437.209    21963450.824
       236.000         194.000
  23511694.742   -12203123.41449  -9462196.91246  23511692.994    23511713.119
       219.000         164.000
  24103327.385    13982138.03849  11155121.39745  24103327.953    24103349.444
       209.000         149.000
  25115291.578    -8199197.43649  -5787783.23545  25115291.815    25115305.781
       202.000         137.000
  23165832.899   -12397454.61149  -9648302.03846  23165832.898    23165848.469
       220.000         167.000
  20435387.415   -23083457.47749 -17457494.28248  20435387.016    20435397.080
       246.000         217.000
  24411073.032    22433411.21549  17486835.48645  24411072.196    24411090.141
       200.000         137.000
  21929837.331   -10815112.91049  -8089655.96846  21929836.200    21929849.169
       231.000         186.000
 00  3 12  1  3 30.0000000  0  9G17G30G23G 5G13G26G 6G24G10
  21831561.574   -19876891.80149 -14593669.49847  21831560.245    21831573.526
       238.000         199.000
  21978412.539   -11073284.44749  -8607313.76947  21978412.921    21978426.563
       236.000         193.000
  23492689.296   -12302995.84849  -9540019.12146  23492687.441    23492707.726
       218.000         165.000
  24122996.464    14085498.87449  11235661.98745  24122996.617    24123017.360
       211.000         149.000
  25120772.888    -8170393.37449  -5765338.42845  25120772.651    25120788.305
       202.000         138.000
  23150791.036   -12476498.91749  -9709894.68146  23150790.301    23150806.273
       221.000         167.000
  20430395.789   -23109688.44249 -17477933.92648  20430395.292    20430405.485
       246.000         217.000
  24424430.884    22503608.36749  17541534.59745  24424429.389    24424448.664
       199.000         136.000
  21944953.478   -10735677.18949  -8027758.03846  21944952.516    21944965.838
       232.000         186.000
 00  3 12  1  4  0.0000000  0  8G17G30G23G 5G26G 6G24G10
  21522933.600   -21498742.11449 -15857448.81047  21522932.124    21522945.366
       238.000         199.000
  21693663.486   -12569651.44949  -9773314.13847  21693663.659    21693677.199
       236.000         193.000
  23173930.111   -13978084.86749 -10845282.80946  23173928.403    23173948.148
       218.000         165.000
  23842879.699    12613473.60349  10088628.96645  23842880.138    23842900.382
       208.000         147.000
  22836003.324   -14130718.31549 -10998896.48846  22836002.015    22836018.444
       219.000         167.000
  20125683.709   -24710961.00149 -18725678.70948  20125683.329    20125693.439
       246.000         217.000
  24137988.821    20998345.52649  16368602.55345  24137988.009    24138005.082
       199.000         136.000
  21660351.553   -12231270.63649  -9193155.56146  21660350.661    21660363.897
       232.000         186.000
 00  3 12  1  4 30.0000000  0  8G17G30G23G 5G26G 6G24G10
  21514133.954   -21544983.97449 -15893481.28147  21514132.946    21514146.054
       239.000         200.000
  21708770.143   -12490265.96849  -9711455.42247  21708770.951    21708783.941
       235.000         193.000
  23155000.704   -14077557.89349 -10922793.77846  23154998.638    23155018.947
       219.000         165.000
  23862557.922    12716881.86449  10169206.49145  23862558.395    23862579.779
       212.000         146.000
  22821053.024   -14209281.31449 -11060114.10146  22821051.964    22821068.180
       219.000         167.000
  20120836.462   -24736433.33749 -18745527.21148  20120835.925    20120845.942
       246.000         217.000
  24151329.345    21068451.88949  16423230.93945  24151328.983    24151348.980
       198.000         135.000
  21675610.236   -12151086.08749  -9130674.13046  21675609.648    21675622.185
       232.000         186.000
 00  3 12  1  5  0.0000000  0  8G17G30G23G 5G26G 6G24G10
  21805162.546   -20015617.70149 -14701767.15547  21805161.481    21805174.358
       239.000         200.000
  22023727.827   -10835152.53449  -8421756.74947  22023728.620    22023741.689
       235.000         192.000
  23435899.372   -12601423.64649  -9772558.83546  23435897.516    23435916.729
       218.000         166.000
  24182025.841    14395695.59249  11477372.69345  24182026.112    24182047.144
       212.000         145.000
  23105939.657   -12712190.59149  -9893549.58946  23105938.711    23105954.302
       219.000         166.000
  20415849.353   -23186129.76449 -17537498.38548  20415848.822    20415858.803
       246.000         217.000
  24464449.203    22713907.77549  17705404.40745  24464448.085    24464464.958
       197.000         136.000
  21990718.451   -10495181.80349  -7840359.13346  21990718.053    21990730.393
       232.000         186.000
 00  3 12  1  5 30.0000000  0  8G17G30G23G 5G26G 6G24G10
  21796433.673   -20061487.71349 -14737509.87647  21796432.604    21796445.620
       239.000         200.000
  22038950.279   -10755158.52249  -8359423.85447  22038950.102    22038964.059
       235.000         192.000
  23417040.594   -12700525.33049  -9849780.44446  23417038.651    23417057.766
       219.000         166.000
  24201696.874    14499065.84649  11557920.61045  24201697.743    24201718.629
       213.000         145.000
  23091079.703   -12790278.63349  -9954397.12146  23091078.599    23091094.225
       219.000         166.000
  20411133.818   -23210909.76449 -17556807.41248  20411133.386    20411143.434
       245.000         217.000
  24477761.975    22783868.13349  17759919.05045  24477760.939    24477780.404
       197.000         136.000
  22006086.903   -10414420.29249  -7777428.12346  22006085.924    22006099.111
       232.000         185.000
 00  3 12  1  6  0.0000000  0  8G17G30G23G 5G26G 6G24G10
  21787740.145   -20107172.02649 -14773107.89847  21787739.072    21787752.081
       239.000         200.000
  22054227.635   -10674875.86949  -8296866.04747  22054227.676    22054241.375
       235.000         192.000
  23398217.993   -12799436.80649  -9926853.85246  23398216.032    23398235.687
       218.000         166.000
  24221361.196    14602401.05549  11638441.22545  24221361.640    24221383.383
       213.000         146.000
  23076267.019   -12868118.74249 -10015051.45246  23076266.123    23076282.467
       218.000         165.000
  20406482.089   -23235354.63549 -17575855.30148  20406481.507    20406491.458
       246.000         217.000
  24491061.147    22853754.94849  17814376.37245  24491062.520    24491078.874
       198.000         135.000
  22021503.043   -10333407.95349  -7714301.65246  22021502.031    22021515.175
       231.000         185.000
 00  3 12  1  6 30.0000000  0  8G17G30G23G 5G26G 6G24G10
  21779081.889   -20152670.97549 -14808561.48947  21779080.676    21779093.539
       239.000         201.000
  22069561.128   -10594298.07449  -8234078.26247  22069561.371    22069575.028
       234.000         191.000
  23379435.180   -12898138.93049 -10003764.12546  23379432.656    23379452.511
       218.000         166.000
  24241016.574    14705689.23649  11718925.18245  24241016.993    24241038.308
       213.000         144.000
  23061502.632   -12945705.05649 -10075508.04846  23061501.974    23061516.806
       219.000         164.000
  20401895.642   -23259456.10649 -17594635.60448  20401895.072    20401905.050
       246.000         217.000
  24504345.049    22923561.14449  17868770.86345  24504345.005    24504362.000
       198.000         134.000
  22036966.493   -10252147.34749  -7650981.73346  22036965.386    22036978.112
       232.000         185.000
 00  3 12  1  7  0.0000000  0  8G17G30G23G 5G26G 6G24G10
  21770458.834   -20197984.98249 -14843870.96847  21770457.536    21770470.278
       239.000         201.000
  22084955.464   -10513400.90049  -8171041.61647  22084955.473    22084969.175
       234.000         191.000
  23360695.661   -12996613.73249 -10080497.27146  23360693.648    23360712.905
       218.000         167.000
  24260665.373    14808942.83049  11799382.19245  24260664.851    24260686.603
       214.000         145.000
  23046790.032   -13023019.29749 -10135752.64546  23046789.150    23046805.173
       220.000         165.000
  20397376.357   -23283204.96449 -17613141.15148  20397375.821    20397385.629
       246.000         217.000
  24517613.823    22993289.38249  17923104.61745  24517613.609    24517630.571
       200.000         135.000
  22052482.098   -10170612.54249  -7587448.14946  22052481.145    22052493.799
       231.000         185.000
 00  3 12  1  7 30.0000000  0  8G17G30G23G 5G26G 6G24G10
  21761870.959   -20243113.97749 -14879036.28147  21761869.711    21761882.702
       239.000         201.000
  22100410.190   -10432186.13049  -8107757.49247  22100410.524    22100424.094
       235.000         190.000
  23341998.921   -13094863.64649 -10157055.19346  23341996.942    23342016.056
       218.000         166.000
  24280307.430    14912161.48949  11879811.97045  24280308.572    24280330.066
       213.000         144.000
  23032127.253   -13100071.62249 -10195793.15046  23032126.421    23032141.630
       220.000         164.000
  20392928.095   -23306580.53449 -17631355.82548  20392927.590    20392937.456
       246.000         217.000
  24530868.221    23062941.47449  17977379.05645  24530867.884    24530885.233
       200.000         136.000
  22068056.267   -10088769.96349  -7523674.75346  22068055.513    22068068.784
       232.000         185.000
 00  3 12  1  8  0.0000000  0  8G17G30G23G 5G26G 6G24G10
  21753318.225   -20288058.36049 -14914057.74447  21753316.752    21753329.687
       239.000         201.000
  22115923.851   -10350661.73649  -8044232.10047  22115923.705    22115937.474
       235.000         190.000
  23323342.174   -13192903.46749 -10233449.41846  23323340.437    23323359.451
       217.000         166.000
  24299940.611    15015333.23449  11960205.20845  24299940.241    24299962.790
       215.000         144.000
  23017512.446   -13176871.99149 -10255637.34346  23017510.999    23017527.421
       220.000         165.000
  20388552.091   -23329576.17749 -17649274.45948  20388551.609    20388561.774
       245.000         216.000
  24544108.512    23132519.63149  18031595.86345  24544107.978    24544125.098
       198.000         137.000
  22083686.479   -10006632.63349  -7459671.67846  22083685.583    22083697.844
       231.000         184.000
 00  3 12  1  8 30.0000000  0  7G17G30G23G 5G26G 6G10
  21744800.659   -20332818.05949 -14948935.29947  21744799.559    21744812.376
       239.000         201.000
  22131497.787   -10268820.69249  -7980459.96747  22131498.432    22131512.074
       234.000         190.000
  23304725.988   -13290730.58149 -10309677.89946  23304724.135    23304743.992
       219.000         166.000
  24319565.732    15118462.65749  12040565.46845  24319565.075    24319587.977
       214.000         143.000
  23002947.010   -13253412.68449 -10315279.17546  23002946.182    23002960.423
       219.000         165.000
  20384246.547   -23352201.90149 -17666904.84948  20384246.140    20384256.001
       245.000         216.000
  22099373.387    -9924197.61149  -7395436.63946  22099372.433    22099385.029
       231.000         184.000
 00  3 12  1  9  0.0000000  0  7G17G30G23G 5G26G 6G10
  21736318.041   -20377394.00749 -14983669.67247  21736316.811    21736329.589
       239.000         201.000
  22147129.383   -10186676.51549  -7916451.63147  22147129.851    22147143.509
       235.000         189.000
  23286148.017   -13388356.73649 -10385749.79646  23286145.817    23286164.463
       217.000         165.000
  24339182.267    15221546.97749  12120890.56245  24339182.115    24339203.925
       213.000         143.000
  22988429.015   -13329704.15149 -10374726.82846  22988428.492    22988443.432
       220.000         165.000
  20380009.630   -23374466.86449 -17684254.11948  20380009.233    20380019.265
       245.000         216.000
  22115116.596    -9841466.56449  -7330970.93146  22115115.824    22115128.639
       231.000         183.000
 00  3 12  1  9 30.0000000  0  7G17G30G23G 5G26G 6G10
  21727870.460   -20421785.83049 -15018260.57947  21727869.499    21727882.070
       239.000         201.000
  22162814.034   -10104253.48049  -7852226.00047  22162814.483    22162828.168
       234.000         189.000
  23267606.858   -13485789.17549 -10461670.75746  23267605.692    23267623.947
       217.000         165.000
  24358788.039    15324575.04249  12201171.85945  24358788.512    24358811.279
       211.000         143.000
  22973956.775   -13405755.29549 -10433987.20646  22973955.681    22973971.930
       220.000         166.000
  20375839.337   -23396381.68949 -17701330.55648  20375838.820    20375848.782
       245.000         217.000
  22130910.274    -9758470.27949  -7266298.53146  22130909.160    22130922.533
       230.000         183.000
 00  3 12  1 10  0.0000000  0  7G17G30G23G 5G26G 6G10
  21719457.879   -20465993.59849 -15052708.06347  21719456.543    21719469.451
       239.000         201.000
  22178556.242   -10021527.97049  -7787764.69047  22178556.495    22178570.565
       233.000         189.000
  23249106.447   -13583007.92649 -10537425.21346  23249104.840    23249123.633
       216.000         165.000
  24378386.115    15427562.19849  12281421.25145  24378386.904    24378410.523
       211.000         142.000
  22959534.172   -13481545.67049 -10493044.39046  22959533.716    22959548.145
       220.000         165.000
  20371734.993   -23417949.84749 -17718136.85748  20371734.542    20371744.513
       245.000         217.000
  22146751.834    -9675222.41049  -7201430.10146  22146751.033    22146763.786
       229.000         182.000
 00  3 12  1 10 30.0000000  0  7G17G30G23G 5G26G 6G10
  21711080.194   -20510018.07649 -15087012.72647  21711078.963    21711091.705
       239.000         201.000
  22194358.317    -9938487.86449  -7723058.23047  22194358.675    22194372.366
       234.000         189.000
  23230651.784   -13679985.94349 -10612992.10146  23230650.066    23230668.861
       220.000         165.000
  24397979.611    15530525.39149  12361651.96745  24397979.870    24398002.288
       210.000         142.000
  22945164.043   -13557060.20649 -10551886.63946  22945163.584    22945178.290
       219.000         165.000
  20367698.899   -23439159.55649 -17734663.83848  20367698.286    20367708.331
       245.000         217.000
  22162645.740    -9591699.58649  -7136347.41846  22162644.950    22162657.370
       230.000         182.000
 00  3 12  1 11  0.0000000  0  7G17G30G23G 5G26G 6G10
  21702737.317   -20553859.37849 -15121174.65747  21702735.979    21702748.880
       240.000         202.000
  22210220.615    -9855131.21749  -7658105.11647  22210221.324    22210234.640
       233.000         189.000
  23212245.056   -13776712.05249 -10688362.70446  23212243.828    23212262.549
       218.000         165.000
  24417570.347    15633474.11949  12441871.41945  24417571.217    24417591.857
       210.000         142.000
  22930850.089   -13632279.10249 -10610498.49546  22930848.974    22930864.709
       219.000         165.000
  20363736.269   -23459982.94249 -17750889.79648  20363735.749    20363745.625
       246.000         217.000
  22178593.318    -9507894.73949  -7071044.98446  22178592.140    22178605.113
       229.000         182.000
 00  3 12  1 11 30.0000000  0  7G17G30G23G 5G26G 6G10
  21694429.356   -20597517.76449 -15155194.06147  21694428.220    21694440.651
       239.000         202.000
  22226143.524    -9771456.14749  -7592903.88347  22226144.081    22226157.465
       233.000         189.000
  23193888.844   -13873172.88849 -10763526.61346  23193886.576    23193905.283
       218.000         165.000
  24437160.656    15736421.56149  12522089.84845  24437160.856    24437184.964
       207.000         142.000
  22916597.235   -13707177.16149 -10668860.36446  22916596.660    22916610.903
       217.000         164.000
  20359850.101   -23480404.71649 -17766802.80248  20359849.539    20359859.622
       245.000         217.000
  22194595.569    -9423802.36549  -7005518.51046  22194594.462    22194607.654
       229.000         181.000
 00  3 12  1 12  0.0000000  0  7G17G30G23G 5G26G 6G10
  21686156.214   -20640993.03549 -15189070.77647  21686155.057    21686167.777
       240.000         202.000
  22242129.616    -9687449.28049  -7527444.11547  22242130.064    22242143.790
       233.000         188.000
  23175586.148   -13969352.78949 -10838471.62246  23175584.517    23175602.369
       219.000         166.000
  24456753.314    15839380.52649  12602317.27145  24456754.091    24456777.453
       206.000         142.000
  22902409.833   -13781731.42749 -10726954.32546  22902409.312    22902423.657
       218.000         164.000
  20356045.529   -23500397.57849 -17782381.59248  20356044.933    20356054.826
       246.000         217.000
  22210657.741    -9339395.01949  -6939746.60746  22210656.952    22210669.706
       229.000         181.000
 00  3 12  1 12 30.0000000  0  7G17G30G23G 5G26G 6G10
  21677917.701   -20684285.97749 -15222805.41347  21677916.641    21677929.586
       240.000         202.000
  22258175.822    -9603126.52549  -7461738.18947  22258176.485    22258190.145
       233.000         188.000
  23157335.247   -14065260.28049 -10913204.36946  23157333.811    23157351.577
       221.000         166.000
  24476347.911    15942349.06649  12682552.13845  24476348.197    24476371.010
       204.000         140.000
  22888289.457   -13855932.69249 -10784773.22146  22888288.608    22888303.914
       217.000         164.000
  20352325.754   -23519944.94349 -17797613.23748  20352325.408    20352335.116
       245.000         217.000
  22226783.880    -9254651.73849  -6873712.93446  22226783.688    22226795.645
       229.000         181.000
 00  3 12  1 13  0.0000000  0  7G17G30G23G 5G26G 6G10
  21669713.913   -20727396.74349 -15256398.09947  21669712.910    21669725.472
       240.000         202.000
  22274278.672    -9518505.81249  -7395800.09247  22274278.878    22274292.792
       233.000         188.000
  23139131.221   -14160921.95949 -10987745.56746  23139128.645    23139147.662
       219.000         167.000
  24495939.842    16045304.21549  12762776.58545  24495939.994    24495964.221
       201.000         139.000
  22874235.051   -13929787.85649 -10842322.42046  22874234.217    22874249.236
       218.000         164.000
  20348690.428   -23539048.71149 -17812499.22048  20348689.825    20348699.629
       246.000         217.000
  22242971.469    -9169585.74949  -6807427.78946  22242970.532    22242983.305
       228.000         180.000
 00  3 12  1 13 30.0000000  0  7G17G30G23G 5G26G 6G10
  21661544.813   -20770325.34449 -15289848.82747  21661543.565    21661555.923
       240.000         203.000
  22290435.611    -9433600.91149  -7329640.54747  22290436.162    22290449.421
       233.000         188.000
  23120972.663   -14256344.62149 -11062100.52746  23120971.774    23120989.226
       220.000         168.000
  24515524.723    16148222.37349  12842972.18645  24515525.045    24515548.126
       200.000         138.000
  22860242.118   -14003320.45749 -10899620.27046  22860241.374    22860255.867
       220.000         165.000
  20345137.216   -23557720.50349 -17827048.59848  20345136.715    20345146.421
       246.000         217.000
  22259216.278    -9084218.95249  -6740908.26246  22259215.206    22259228.115
       228.000         180.000
 00  3 12  1 14  0.0000000  0  7G17G30G23G 5G26G 6G10
  21653410.320   -20813071.83149 -15323157.65447  21653409.087    21653421.579
       240.000         203.000
  22306647.062    -9348409.96349  -7263258.10847  22306647.289    22306661.567
       233.000         188.000
  23102862.676   -14351511.83949 -11136256.44546  23102860.922    23102878.780
       222.000         169.000
  24535100.057    16251089.79449  12923128.25045  24535100.413    24535124.046
       201.000         138.000
  22846311.701   -14076524.02249 -10956661.73446  22846310.768    22846326.216
       220.000         166.000
  20341667.905   -23575951.55749 -17841254.55348  20341667.457    20341677.260
       245.000         217.000
  22275517.466    -8998555.79549  -6674157.80446  22275516.151    22275529.792
       228.000         180.000
 00  3 12  1 14 30.0000000  0  7G17G30G23G 5G26G 6G10
  21645310.298   -20855637.19249 -15356325.34147  21645309.054    21645321.615
       240.000         203.000
  22322908.871    -9262953.90049  -7196669.09147  22322909.142    22322923.202
       232.000         188.000
  23084799.129   -14446435.13349 -11210222.29846  23084797.078    23084815.147
       221.000         170.000
  24554660.930    16353880.98649  13003224.92045  24554661.452    24554684.682
       202.000         139.000
  22832441.981   -14149408.63149 -11013454.66246  22832441.620    22832455.959
       222.000         166.000
  20338277.433   -23593768.31449 -17855137.67548  20338277.014    20338286.858
       245.000         217.000
  22291870.093    -8912622.26649  -6607196.65946  22291869.410    22291882.317
       229.000         179.000
 00  3 12  1 15  0.0000000  0  7G17G30G23G 5G26G 6G10
  21637244.854   -20898020.91149 -15389351.48847  21637243.708    21637256.194
       240.000         203.000
  22339217.654    -9177251.19349  -7129887.88146  22339217.851    22339232.361
       232.000         187.000
  23066782.781   -14541110.48949 -11283994.93746  23066781.200    23066798.848
       222.000         171.000
  24574205.401    16456587.17349  13083255.35645  24574205.552    24574229.547
       200.000         139.000
  22818630.450   -14221988.11949 -11070009.84446  22818629.911    22818644.084
       223.000         167.000
  20334961.993   -23611190.79549 -17868713.57748  20334961.309    20334971.148
       246.000         217.000
  22308267.513    -8826453.41249  -6540052.14346  22308266.439    22308279.794
       230.000         179.000
 00  3 12  1 15 30.0000000  0  7G17G30G23G 5G26G 6G10
  21629213.956   -20940223.13849 -15422236.21147  21629212.658    21629225.220
       240.000         203.000
  22355573.318    -9091301.80349  -7062914.45846  22355573.688    22355587.772
       231.000         187.000
  23048819.317   -14635507.63449 -11357550.79346  23048817.156    23048835.687
       220.000         172.000
  24593735.478    16559217.31249  13163226.53745  24593736.311    24593759.922
       201.000         140.000
  22804879.662   -14294248.12949 -11126316.06546  22804878.761    22804893.090
       223.000         167.000
  20331720.087   -23628226.98949 -17881988.48248  20331719.683    20331729.557
       245.000         217.000
  22324709.558    -8740050.19149  -6472725.01246  22324708.226    22324721.922
       229.000         179.000
 00  3 12  1 16  0.0000000  0  7G17G30G23G 5G26G 6G10
  21621217.491   -20982244.35249 -15454979.88247  21621216.233    21621228.742
       241.000         203.000
  22371977.317    -9005098.63549  -6995743.27546  22371977.852    22371992.037
       233.000         187.000
  23030906.877   -14729636.44049 -11430897.56246  23030905.756    23030922.741
       223.000         173.000
  24613251.565    16661774.04149  13243140.51145  24613251.511    24613275.628
       202.000         140.000
  22791191.703   -14366177.85449 -11182364.93146  22791191.137    22791205.270
       221.000         168.000
  20328550.848   -23644881.19749 -17894965.74148  20328550.367    20328560.158
       245.000         217.000
  22341199.007    -8653397.80349  -6405203.71646  22341198.100    22341211.248
       229.000         179.000
 00  3 12  1 16 30.0000000  0  7G17G30G23G 5G26G 6G10
  21613255.360   -21024085.17349 -15487582.99547  21613254.195    21613266.862
       241.000         204.000
  22388425.798    -8918661.91049  -6928390.10846  22388426.115    22388440.515
       231.000         186.000
  23013039.148   -14823530.89549 -11504061.71046  23013037.406    23013054.531
       224.000         173.000
  24632751.065    16764243.63849  13322986.59145  24632751.571    24632775.164
       202.000         141.000
  22777560.817   -14437807.75349 -11238180.16946  22777560.113    22777574.016
       221.000         168.000
  20325449.577   -23661178.15749 -17907664.62748  20325449.314    20325459.020
       245.000         217.000
  22357731.091    -8566521.01149  -6337507.56546  22357730.635    22357743.327
       229.000         178.000
 00  3 12  1 17  0.0000000  0  7G17G30G23G 5G26G 6G10
  21605327.743   -21065744.57049 -15520044.74647  21605326.694    21605339.110
       241.000         204.000
  22404918.638    -8831991.73549  -6860855.03546  22404918.658    22404932.866
       231.000         185.000
  22995218.419   -14917178.58449 -11577033.56046  22995216.603    22995234.046
       223.000         174.000
  24652235.058    16866630.75849  13402768.39845  24652235.562    24652258.668
       207.000         142.000
  22763988.168   -14509131.88449 -11293757.16046  22763987.489    22764001.690
       222.000         169.000
  20322419.226   -23677102.76749 -17920073.37048  20322418.862    20322428.520
       245.000         217.000
  22374308.293    -8479407.56249  -6269627.00346  22374307.389    22374320.727
       229.000         178.000
 00  3 12  1 17 30.0000000  0  6G17G30G23G26G 6G10
  21597434.367   -21107224.10649 -15552366.34547  21597433.278    21597445.545
       241.000         204.000
  22421461.637    -8745058.03949  -6793114.61446  22421461.715    22421476.502
       231.000         185.000
  22977447.762   -15010562.07749 -11649799.55746  22977446.135    22977462.942
       223.000         174.000
  22750478.192   -14580126.32749 -11349077.25546  22750477.912    22750491.984
       222.000         169.000
  20319463.527   -23692634.85849 -17932176.25248  20319462.998    20319472.802
       245.000         216.000
  22390936.071    -8392028.70949  -6201539.63746  22390935.678    22390948.765
       229.000         178.000
 00  3 12  1 18  0.0000000  0  6G17G30G23G26G 6G10
  21589575.264   -21148523.61849 -15584547.66747  21589574.189    21589586.051
       241.000         204.000
  22438054.200    -8657864.03849  -6725171.36346  22438054.688    22438069.353
       231.000         185.000
  22959724.031   -15103699.34849 -11722373.68146  22959721.745    22959739.582
       223.000         174.000
  22737031.073   -14650790.47449 -11404139.97846  22737030.391    22737044.380
       222.000         169.000
  20316583.885   -23707767.26149 -17943967.69048  20316583.432    20316593.272
       245.000         217.000
  22407613.769    -8304386.79149  -6133247.30546  22407613.402    22407626.105
       228.000         177.000
 00  3 12  1 18 30.0000000  0  7G17G30G23G22G26G 6G10
  21581750.406   -21189642.98749 -15616588.62647  21581749.216    21581761.644
       241.000         204.000
  22454692.469    -8570430.06349  -6657041.12146  22454692.930    22454707.323
       230.000         185.000
  22942050.513   -15196572.88249 -11794742.31746  22942048.560    22942065.750
       223.000         174.000
  24476467.822    -3951958.47449  -2568293.85245  24476466.855    24476486.722
       206.000         143.000
  22723648.799   -14721113.83049 -11458937.13846  22723647.776    22723662.080
       223.000         170.000
  20313780.760   -23722497.68749 -17955445.90748  20313780.253    20313790.071
       245.000         217.000
  22424342.264    -8216478.01149  -6064747.02246  22424341.911    22424353.475
       227.000         177.000
 00  3 12  1 19  0.0000000  0  7G17G30G23G22G26G 6G10
  21573959.785   -21230582.61849 -15648489.52947  21573958.779    21573970.762
       241.000         204.000
  22471381.428    -8482729.51449  -6588703.15746  22471382.316    22471396.680
       230.000         184.000
  22924432.189   -15289156.48949 -11866885.02646  22924430.597    22924447.005
       223.000         174.000
  24463757.540    -4018750.40449  -2620339.25645  24463756.644    24463777.258
       206.000         144.000
  22710337.800   -14791062.82049 -11513442.60646  22710337.081    22710350.702
       224.000         171.000
  20311057.880   -23736806.40749 -17966595.51648  20311057.507    20311067.224
       246.000         217.000
  22441124.932    -8128284.83849  -5996025.14746  22441124.503    22441137.779
       228.000         177.000
 00  3 12  1 19 30.0000000  0  7G17G30G23G22G26G 6G10
  21566203.311   -21271342.81649 -15680250.60747  21566201.919    21566214.214
       241.000         205.000
  22488123.136    -8394752.27549  -6520149.59846  22488123.656    22488138.398
       230.000         184.000
  22906866.269   -15381464.65049 -11938813.11646  22906864.348    22906881.813
       223.000         174.000
  24451126.592    -4085125.88249  -2672060.18145  24451124.649    24451145.246
       210.000         145.000
  22697097.589   -14860639.72049 -11567658.12546  22697097.406    22697110.933
       224.000         172.000
  20308413.941   -23750700.45049 -17977422.00448  20308413.488    20308423.125
       245.000         217.000
  22457957.783    -8039827.82449  -5927097.67146  22457956.470    22457970.179
       227.000         176.000
 00  3 12  1 20  0.0000000  0  7G17G30G23G22G26G 6G10
  21558480.889   -21311923.95249 -15711872.15847  21558479.625    21558491.662
       242.000         205.000
  22504913.457    -8306519.03249  -6451396.55046  22504913.622    22504928.118
       229.000         183.000
  22889349.602   -15473513.63249 -12010539.24646  22889347.444    22889365.053
       224.000         174.000
  24438574.244    -4151088.36349  -2723459.30245  24438572.848    24438593.041
       211.000         145.000
  22683926.152   -14929855.29449 -11621592.09646  22683925.305    22683939.657
       224.000         173.000
  20305846.994   -23764189.50949 -17987932.91748  20305846.545    20305856.180
       245.000         217.000
  22474834.338    -7951141.02249  -5857991.12746  22474833.976    22474846.296
       227.000         175.000
 00  3 12  1 20 30.0000000  0  7G17G30G23G22G26G 6G10
  21550792.652   -21352325.39849 -15743353.69147  21550791.328    21550803.642
       242.000         205.000
  22521754.950    -8218016.76649  -6382433.87746  22521755.093    22521769.497
       229.000         183.000
  22871887.010   -15565278.80049 -12082044.22346  22871885.283    22871901.726
       224.000         174.000
  24426102.214    -4216628.53349  -2774529.38545  24426100.702    24426120.483
       212.000         144.000
  22670824.673   -14998703.01649 -11675239.43346  22670824.165    22670837.102
       224.000         173.000
  20303359.252   -23777262.50349 -17998119.61848  20303358.687    20303368.567
       245.000         217.000
  22491754.057    -7862227.73049  -5788708.10746  22491753.723    22491766.565
       227.000         174.000
 00  3 12  1 21  0.0000000  0  7G17G30G23G22G26G 6G10
  21543138.429   -21392548.20649 -15774696.02047  21543137.506    21543149.577
       241.000         205.000
  22538648.537    -8129240.82949  -6313257.94946  22538648.698    22538663.384
       230.000         183.000
  22854476.635   -15656769.40549 -12153335.27146  22854475.016    22854491.635
       225.000         175.000
  24413711.066    -4281743.19649  -2825267.91645  24413709.081    24413728.975
       212.000         143.000
  22657794.686   -15067175.04049 -11728594.02846  22657794.495    22657807.280
       224.000         173.000
  20300954.154   -23789901.15349 -18007967.87448  20300953.662    20300963.387
       245.000         217.000
  22508713.281    -7773106.81849  -5719263.30746  22508712.293    22508725.608
       227.000         174.000
 00  3 12  1 21 30.0000000  0  7G17G30G23G22G26G 6G10
  21535518.141   -21432592.51549 -15805899.25947  21535517.052    21535529.143
       241.000         205.000
  22555590.116    -8040212.93349  -6243885.68746  22555590.929    22555605.246
       230.000         183.000
  22837118.337   -15747986.31349 -12224413.03746  22837116.643    22837133.122
       224.000         175.000
  24401401.224    -4346430.89849  -2875673.75545  24401399.303    24401419.292
       214.000         144.000
  22644835.654   -15135274.01949 -11781657.92946  22644834.797    22644848.395
       224.000         173.000
  20298632.060   -23802103.62349 -18017476.24448  20298631.470    20298641.111
       245.000         217.000
  22525711.818    -7683779.04849  -5649657.31146  22525710.225    22525723.821
       226.000         174.000
 00  3 12  1 22  0.0000000  0  7G17G30G23G22G26G 6G10
  21527931.914   -21472457.96249 -15836963.12547  21527930.864    21527942.633
       242.000         205.000
  22572577.754    -7950942.87449  -6174324.72946  22572577.860    22572592.275
       229.000         182.000
  22819818.211   -15838897.47749 -12295252.56946  22819816.700    22819833.318
       225.000         176.000
  24389175.660    -4410676.54549  -2925735.12145  24389173.676    24389194.058
       214.000         145.000
  22631948.443   -15202995.65449 -11834427.80746  22631947.978    22631961.143
       224.000         174.000
  20296397.096   -23813848.20349 -18026627.81748  20296396.607    20296406.211
       246.000         217.000
  22542752.275    -7594231.12549  -5579879.76946  22542750.878    22542764.280
       226.000         173.000
 00  3 12  1 22 30.0000000  0  7G17G30G23G22G26G 6G10
  21520379.611   -21512145.51749 -15867888.37647  21520378.732    21520390.670
       242.000         205.000
  22589608.975    -7861443.53249  -6104585.11446  22589609.069    22589623.489
       229.000         181.000
  22802574.349   -15929513.34649 -12365862.00946  22802572.757    22802589.128
       226.000         176.000
  24377033.122    -4474485.42349  -2975456.16345  24377031.482    24377051.797
       216.000         145.000
  22619132.192   -15270344.53749 -11886907.23346  22619131.491    22619145.528
       223.000         173.000
  20294247.941   -23825141.98549 -18035428.11648  20294247.425    20294257.108
       246.000         217.000
  22559837.042    -7504450.17549  -5509920.65546  22559835.811    22559849.471
       226.000         172.000
 00  3 12  1 23  0.0000000  0  7G17G30G23G22G26G 6G10
  21512861.122   -21551654.73949 -15898674.66747  21512859.997    21512872.115
       241.000         206.000
  22606683.073    -7771718.83749  -6034669.90146  22606683.359    22606697.721
       228.000         181.000
  22785383.817   -16019848.64349 -12436252.82846  22785382.508    22785398.427
       226.000         177.000
  24364974.363    -4537854.55949  -3024834.55245  24364973.290    24364992.023
       215.000         145.000
  22606387.131   -15337319.78349 -11939095.49346  22606386.294    22606399.822
       221.000         173.000
  20292182.368   -23835996.38349 -18043886.02948  20292181.975    20292191.556
       245.000         217.000
  22576966.112    -7414436.61449  -5439780.29046  22576965.142    22576978.461
       225.000         172.000
 00  3 12  1 23 30.0000000  0  7G17G30G23G22G26G 6G10
  21505376.514   -21590986.08449 -15929322.35647  21505375.199    21505387.146
       242.000         206.000
  22623801.314    -7681762.33549  -5964574.06446  22623801.478    22623815.931
       228.000         181.000
  22768250.499   -16109883.72949 -12506409.72046  22768248.889    22768265.176
       226.000         177.000
  24353000.126    -4600779.18249  -3073866.56045  24352998.680    24353018.687
       216.000         144.000
  22593711.739   -15403927.81049 -11990997.62046  22593710.590    22593724.478
       222.000         173.000
  20290199.011   -23846418.91249 -18052007.42348  20290198.638    20290208.043
       245.000         217.000
  22594139.325    -7324191.25149  -5369459.29246  22594137.944    22594151.794
       225.000         172.000
 00  3 12  1 24  0.0000000  0  7G17G30G23G22G26G 6G10
  21497925.749   -21630139.60349 -15959831.48247  21497924.606    21497936.508
       241.000         206.000
  22640961.812    -7591583.76249  -5894305.18546  22640962.618    22640977.062
       229.000         181.000
  22751171.740   -16199632.23749 -12576343.30746  22751170.253    22751185.860
       227.000         178.000
  24341110.522    -4663258.79549  -3122551.79145  24341108.911    24341128.322
       217.000         143.000
  22581105.993   -15470170.13049 -12042614.77746  22581105.546    22581118.273
       222.000         173.000
  20288297.427   -23856411.75749 -18059794.00048  20288297.084    20288306.568
       245.000         216.000
  22611354.245    -7233726.39949  -5298967.27746  22611353.616    22611366.835
       224.000         171.000
 00  3 12  1 24 30.0000000  0  7G17G30G23G22G26G 6G10
  21490508.805   -21669115.49649 -15990202.19847  21490507.951    21490519.665
       242.000         206.000
  22658163.142    -7501190.80449  -5823869.25946  22658163.630    22658178.280
       228.000         180.000
  22734144.429   -16289109.87449 -12646065.82846  22734142.910    22734159.010
       227.000         178.000
  24329302.852    -4725307.57349  -3170901.30445  24329301.885    24329319.586
       215.000         143.000
  22568573.810   -15536026.07549 -12093930.85146  22568573.322    22568586.636
       222.000         173.000
  20286474.329   -23865992.03649 -18067259.09348  20286473.806    20286483.349
       245.000         216.000
  22628611.282    -7143040.25149  -5228302.83146  22628610.509    22628623.410
       224.000         171.000
 00  3 12  1 25  0.0000000  0  7G17G30G23G22G26G 6G10
  21483125.689   -21707913.81749 -16020434.54647  21483124.392    21483136.254
       242.000         206.000
  22675405.963    -7410579.57949  -5753263.25846  22675406.253    22675420.730
       228.000         179.000
  22717174.559   -16378285.71149 -12715553.18346  22717172.918    22717188.870
       227.000         178.000
  24317577.644    -4786923.29749  -3218913.33645  24317576.312    24317595.033
       213.000         141.000
  22556117.245   -15601485.04449 -12144937.59746  22556115.836    22556129.844
       223.000         173.000
  20284733.799   -23875138.34449 -18074386.02648  20284733.271    20284742.807
       246.000         216.000
  22645910.300    -7052133.40249  -5157466.41146  22645909.913    22645922.546
       225.000         170.000
 00  3 12  1 25 30.0000000  0  7G17G30G23G22G26G 6G10
  21475776.111   -21746535.30049 -16050529.10447  21475774.920    21475786.959
       243.000         206.000
  22692686.537    -7319770.12049  -5682502.78746  22692687.489    22692701.855
       230.000         179.000
  22700262.727   -16467156.75849 -12784803.04046  22700261.056    22700276.970
       228.000         179.000
  24305932.101    -4848119.98249  -3266598.83745  24305929.675    24305950.215
       213.000         140.000
  22543734.022   -15666558.33249 -12195643.81546  22543733.238    22543746.202
       223.000         173.000
  20283074.574   -23883857.34749 -18081179.99648  20283074.070    20283083.471
       246.000         217.000
  22663249.608    -6961015.02649  -5086465.16446  22663248.589    22663261.190
       224.000         169.000
 00  3 12  1 26  0.0000000  0  7G17G30G23G22G26G 6G10
  21468460.289   -21784979.56849 -16080485.57247  21468458.935    21468470.884
       243.000         206.000
  22710001.873    -7228778.30849  -5611600.21946  22710002.333    22710016.607
       230.000         179.000
  22683407.792   -16555729.13649 -12853820.18046  22683406.305    22683421.790
       227.000         179.000
  24294364.127    -4908909.13949  -3313966.78845  24294363.082    24294381.820
       213.000         139.000
  22531424.553   -15731244.03549 -12246048.02246  22531424.120    22531437.439
       224.000         174.000
  20281494.497   -23892160.57149 -18087649.99048  20281493.984    20281503.483
       245.000         216.000
  22680630.102    -6869680.27849  -5015295.30246  22680629.777    22680642.736
       223.000         169.000
 00  3 12  1 26 30.0000000  0  7G17G30G23G22G26G 6G10
  21461178.155   -21823247.01249 -16110304.25247  21461177.156    21461188.759
       243.000         206.000
  22727353.886    -7137593.36749  -5540547.17246  22727354.290    22727369.498
       229.000         179.000
  22666610.990   -16643995.54949 -12922598.90446  22666609.383    22666625.290
       227.000         179.000
  24282875.770    -4969280.07649  -3361008.82045  24282872.367    24282893.445
       214.000         139.000
  22519189.333   -15795539.77449 -12296148.36246  22519188.540    22519201.489
       224.000         174.000
  20279992.471   -23900053.59949 -18093800.34948  20279992.084    20280001.447
       245.000         216.000
  22698053.746    -6778118.48249  -4943948.52046  22698052.635    22698066.516
       222.000         169.000
 00  3 12  1 27  0.0000000  0  7G17G30G23G22G26G 6G10
  21453929.707   -21861337.57149 -16139985.09947  21453928.714    21453940.385
       243.000         206.000
  22744742.229    -7046217.39949  -5469345.26746  22744742.432    22744757.611
       228.000         178.000
  22649871.642   -16731960.09049 -12991142.40346  22649870.621    22649886.357
       226.000         179.000
  24271470.443    -5029214.50249  -3407710.73045  24271468.622    24271487.082
       211.000         138.000
  22507025.477   -15859460.31449 -12345956.34746  22507024.971    22507038.063
       223.000         175.000
  20278570.983   -23907523.33549 -18099620.87548  20278570.558    20278580.010
       245.000         216.000
  22715517.294    -6686346.81649  -4872438.19746  22715516.925    22715529.998
       222.000         168.000
 00  3 12  1 27 30.0000000  0  7G17G30G23G22G26G 6G10
  21446714.750   -21899251.98849 -16169528.68847  21446713.519    21446725.548
       243.000         206.000
  22762166.375    -6954653.38949  -5397996.84246  22762166.790    22762182.227
       228.000         178.000
  22633185.150   -16819647.24849 -13059469.75946  22633183.393    22633199.825
       226.000         180.000
  24260147.367    -5088716.01049  -3454075.26645  24260146.060    24260163.607
       213.000         139.000
  22494934.249   -15922999.17149 -12395466.91746  22494933.951    22494946.397
       223.000         175.000
  20277228.131   -23914579.94649 -18105119.49148  20277227.577    20277237.109
       245.000         216.000
  22733018.162    -6594379.26449  -4800775.23846  22733017.310    22733030.237
       222.000         168.000
 00  3 12  1 28  0.0000000  0  7G17G30G23G22G26G 6G10
  21439533.358   -21936990.03549 -16198934.84747  21439532.231    21439543.979
       243.000         207.000
  22779627.611    -6862894.70549  -5326496.71446  22779627.512    22779642.405
       230.000         178.000
  22616551.155   -16907058.12049 -13127581.84246  22616549.678    22616565.134
       228.000         181.000
  24248911.284    -5147761.59049  -3500084.53745  24248910.469    24248930.503
       214.000         140.000
  22482919.058   -15986138.31449 -12444666.02146  22482918.719    22482931.813
       223.000         175.000
  20275967.819   -23921202.73049 -18110280.05848  20275967.250    20275976.716
       246.000         216.000
  22750556.708    -6502214.12049  -4728958.30446  22750555.678    22750569.463
       223.000         169.000
 00  3 12  1 28 30.0000000  0  7G17G30G23G22G26G 6G10
  21432385.475   -21974552.30349 -16228204.03847  21432384.309    21432396.156
       243.000         207.000
  22797126.623    -6770937.56349  -5254841.96446  22797127.147    22797142.236
       228.000         177.000
  22599968.565   -16994199.36949 -13195483.81746  22599967.318    22599982.744
       227.000         181.000
  24237764.474    -5206337.33749  -3545727.71745  24237762.626    24237780.595
       217.000         140.000
  22470981.906   -16048867.81449 -12493545.94746  22470980.774    22470994.837
       223.000         175.000
  20274792.016   -23927381.23349 -18115094.43948  20274791.464    20274800.969
       245.000         216.000
  22768128.130    -6409876.19849  -4657006.74346  22768127.204    22768141.361
       224.000         169.000
 00  3 12  1 29  0.0000000  0  7G17G30G23G22G26G 6G10
  21425271.105   -22011938.31649 -16257335.88547  21425269.964    21425281.572
       243.000         207.000
  22814662.855    -6678784.77849  -5183034.75446  22814663.717    22814678.288
       227.000         177.000
  22583440.862   -17081052.18749 -13263161.05146  22583439.250    22583454.714
       228.000         182.000
  24226706.751    -5264444.68849  -3591005.91645  24226705.231    24226723.390
       217.000         142.000
  22459124.341   -16111178.70149 -12542099.67446  22459123.592    22459136.866
       223.000         175.000
  20273701.399   -23933112.37049 -18119560.23048  20273700.969    20273710.321
       246.000         216.000
  22785730.131    -6317377.49049  -4584929.88546  22785729.817    22785742.566
       224.000         169.000
 00  3 12  1 29 30.0000000  0  7G17G30G23G22G26G 6G10
  21418190.126   -22049148.56749 -16286330.77447  21418188.956    21418200.573
       243.000         207.000
  22832234.521    -6586445.71549  -5111082.38946  22832234.883    22832249.826
       228.000         177.000
  22566967.737   -17167618.01649 -13330614.65946  22566965.985    22566981.345
       228.000         182.000
  24215737.294    -5322088.71349  -3635923.06545  24215735.375    24215754.107
       214.000         143.000
  22447347.434   -16173065.71049 -12590323.10646  22447347.235    22447359.990
       224.000         175.000
  20272693.068   -23938411.07249 -18123689.05248  20272692.617    20272701.970
       245.000         217.000
  22803361.679    -6224723.44949  -4512731.98646  22803361.931    22803375.038
       222.000         169.000
 00  3 12  1 30  0.0000000  0  7G17G30G23G22G26G 6G10
  21411142.618   -22086182.97949 -16315188.64747  21411141.645    21411152.956
       243.000         207.000
  22849841.090    -6493923.19549  -5038987.08846  22849841.424    22849856.077
       228.000         177.000
  22550552.853   -17253877.85849 -13397829.82746  22550551.358    22550566.536
       228.000         182.000
  24204860.077    -5379247.94849  -3680462.46145  24204858.515    24204877.320
       216.000         144.000
  22435652.916   -16234520.44649 -12638209.69946  22435652.451    22435664.703
       226.000         176.000
  20271768.196   -23943271.22949 -18127476.15048  20271767.757    20271777.112
       245.000         216.000
  22821024.635    -6131904.32049  -4440405.45346  22821023.334    22821036.809
       221.000         169.000
 00  3 12  1 30 30.0000000  0  7G17G30G23G22G26G 6G10
  21404128.496   -22123042.11849 -16343909.94047  21404127.281    21404138.856
       244.000         207.000
  22867483.676    -6401211.41649  -4966744.30246  22867483.790    22867500.090
       227.000         176.000
  22534199.398   -17339814.64649 -13464793.28246  22534198.249    22534213.361
       227.000         183.000
  24194074.626    -5435924.79149  -3724626.01145  24194073.451    24194091.405
       214.000         145.000
  22424042.783   -16295531.30949 -12685750.41446  22424041.819    22424054.808
       225.000         176.000
  20270926.344   -23947695.02149 -18130923.22648  20270925.820    20270935.228
       246.000         216.000
  22838720.422    -6038912.30649  -4367944.19746  22838719.124    22838732.501
       222.000         169.000
 00  3 12  1 31  0.0000000  0  7G17G30G23G22G26G 6G10
  21397147.727   -22159725.66149 -16372494.40447  21397146.554    21397157.969
       243.000         207.000
  22885163.095    -6308305.86549  -4894350.53146  22885163.331    22885178.084
       227.000         176.000
  22517908.500   -17425422.49549 -13531500.42246  22517906.867    22517922.541
       228.000         183.000
  24183381.139    -5492118.78549  -3768413.30845  24183379.075    24183399.210
       217.000         147.000
  22412516.390   -16356101.70749 -12732947.91846  22412516.028    22412529.058
       225.000         176.000
  20270168.915   -23951675.17549 -18134024.61548  20270168.484    20270177.950
       245.000         216.000
  22856454.419    -5945719.78449  -4295326.72046  22856453.586    22856467.330
       222.000         169.000
 00  3 12  1 31 30.0000000  0  7G17G30G23G22G26G 6G10
  21390200.337   -22196233.98649 -16400942.33947  21390199.403    21390210.781
       244.000         207.000
  22902879.444    -6215206.65349  -4821805.85946  22902880.286    22902894.591
       228.000         175.000
  22501678.437   -17510710.70449 -13597958.49746  22501677.483    22501691.524
       229.000         183.000
  24172777.035    -5547843.35649  -3811834.83845  24172775.476    24172795.028
       215.000         148.000
  22401073.085   -16416235.80449 -12779805.45446  22401072.410    22401086.007
       225.000         177.000
  20269498.842   -23955196.29649 -18136768.31648  20269498.268    20269507.574
       246.000         216.000
  22874227.920    -5852319.78249  -4222547.56046  22874227.382    22874240.797
       222.000         169.000
 00  3 12  1 32  0.0000000  0  7G17G30G23G22G26G 6G10
  21383286.269   -22232567.26649 -16429253.86947  21383285.140    21383296.556
       243.000         207.000
  22920634.692    -6121903.18149  -4749102.02346  22920635.015    22920649.492
       227.000         176.000
  22485513.055   -17595659.37949 -13664151.98346  22485511.474    22485526.681
       229.000         184.000
  24162260.560    -5603106.93049  -3854897.16645  24162258.067    24162277.667
       213.000         148.000
  22389712.179   -16475937.05949 -12826325.70546  22389711.415    22389724.626
       225.000         177.000
  20268918.693   -23958244.86549 -18139143.78548  20268918.140    20268927.614
       245.000         216.000
  22892043.353    -5758699.25449  -4149596.55746  22892042.309    22892055.644
       222.000         169.000
 00  3 12  1 32 30.0000000  0  7G17G30G23G22G26G 6G10
  21376405.421   -22268726.03449 -16457429.41547  21376404.153    21376415.592
       243.000         208.000
  22938425.968    -6028410.03549  -4676250.39346  22938426.498    22938442.278
       227.000         176.000
  22469410.027   -17680280.36749 -13730090.14446  22469408.902    22469423.805
       229.000         184.000
  24151825.769    -5657941.20349  -3897624.98745  24151824.540    24151842.513
       212.000         149.000
  22378428.689   -16535231.41049 -12872528.89546  22378428.157    22378440.865
       226.000         178.000
  20268426.501   -23960830.98649 -18141158.90648  20268426.151    20268435.348
       246.000         216.000
  22909897.566    -5664874.90649  -4076486.72446  22909896.749    22909910.099
       224.000         169.000
 00  3 12  1 33  0.0000000  0  7G17G30G23G22G26G 6G10
  21369557.852   -22304709.89649 -16485468.67247  21369556.654    21369568.110
       244.000         208.000
  22956248.312    -5934753.57749  -4603271.50746  22956248.710    22956264.411
       227.000         175.000
  22453366.266   -17764589.70749 -13795785.46346  22453364.819    22453379.863
       229.000         185.000
  24141469.427    -5712363.11149  -3940031.48545  24141468.359    24141486.216
       212.000         148.000
  22367218.259   -16594141.95349 -12918433.01346  22367217.777    22367230.262
       226.000         178.000
  20268020.369   -23962965.33249 -18142821.99548  20268019.902    20268029.219
       245.000         216.000
  22927786.485    -5570868.37149  -4003234.92746  22927785.814    22927799.761
       224.000         169.000
 00  3 12  1 33 30.0000000  0  7G17G30G23G22G26G 6G10
  21362743.456   -22340519.17549 -16513371.89447  21362742.281    21362753.782
       244.000         208.000
  22974097.836    -5840954.13349  -4530181.20246  22974098.143    22974113.210
       225.000         174.000
  22437382.249   -17848584.98849 -13861236.06346  22437380.575    22437395.415
       229.000         185.000
  24131193.709    -5766360.85649  -3982107.50645  24131192.343    24131211.190
       211.000         148.000
  22356082.462   -16652660.13649 -12964031.40646  22356081.807    22356094.081
       225.000         178.000
  20267700.326   -23964647.01449 -18144132.36248  20267700.023    20267709.127
       245.000         216.000
  22945706.545    -5476698.30949  -3929855.72946  22945705.129    22945719.310
       222.000         169.000
 00  3 12  1 34  0.0000000  0  7G17G30G23G22G26G 6G10
  21355962.362   -22376153.63549 -16541138.89647  21355961.156    21355972.751
       244.000         208.000
  22991973.199    -5747018.87549  -4456985.07646  22991973.658    22991988.308
       226.000         174.000
  22421458.691   -17932262.83049 -13926439.30246  22421457.128    22421471.683
       230.000         185.000
  24121004.018    -5819907.35649  -4023831.88645  24121003.207    24121020.480
       211.000         148.000
  22345025.494   -16710764.05449 -13009307.00046  22345025.131    22345037.622
       227.000         178.000
  20267465.262   -23965882.16249 -18145094.77648  20267464.836    20267474.256
       246.000         216.000
  22963654.426    -5382382.04249  -3856362.58146  22963653.703    22963667.219
       223.000         169.000
 00  3 12  1 34 30.0000000  0  7G17G30G23G22G26G 6G10
  21349214.385   -22411613.91649 -16568770.18047  21349213.217    21349224.642
       243.000         208.000
  23009875.079    -5652944.83749  -4383680.80046  23009875.435    23009890.825
       225.000         174.000
  22405594.622   -18015627.82549 -13991398.77246  22405593.101    22405607.768
       230.000         186.000
  24110904.211    -5872981.56449  -4065188.26745  24110902.360    24110919.438
       212.000         148.000
  22334054.553   -16768415.86549 -13054230.30846  22334053.686    22334067.104
       226.000         178.000
  20267315.750   -23966667.65149 -18145706.80948  20267315.180    20267324.699
       245.000         216.000
  22981629.859    -5287920.70049  -3782756.38646  22981628.630    22981643.139
       221.000         169.000
 00  3 12  1 35  0.0000000  0  7G17G30G23G22G26G 6G10
  21342499.636   -22446899.60149 -16596265.42247  21342498.586    21342510.010
       244.000         208.000
  23027806.292    -5558715.87849  -4310255.81646  23027806.771    23027822.114
       225.000         174.000
  22389792.663   -18098666.60449 -14056104.05546  22389791.640    22389805.970
       230.000         186.000
  24100901.303    -5925546.73949  -4106147.99645  24100900.893    24100918.156
       211.000         149.000
  22323177.960   -16825571.91349 -13098767.30746  22323177.576    22323189.750
       227.000         178.000
  20267253.937   -23966992.30949 -18145959.75648  20267253.482    20267262.616
       246.000         216.000
  22999636.177    -5193296.85049  -3709023.55646  22999635.394    22999649.133
       222.000         169.000
 00  3 12  1 35 30.0000000  0  7G17G30G23G22G26G 6G10
  21335817.990   -22482011.60349 -16623625.33047  21335816.901    21335828.274
       244.000         208.000
  23045768.050    -5464326.78949  -4236706.05746  23045769.196    23045784.386
       225.000         174.000
  22374054.030   -18181372.33649 -14120549.81946  22374052.296    22374067.509
       231.000         187.000
  24090995.572    -5977601.51349  -4146710.00445  24090994.132    24091012.734
       210.000         149.000
  22312399.426   -16882212.67949 -13142902.79846  22312398.838    22312410.906
       227.000         179.000
  20267282.659   -23966841.31649 -18145842.06348  20267282.382    20267291.525
       246.000         216.000
  23017673.727    -5098509.18049  -3635163.08046  23017673.096    23017686.401
       221.000         168.000
 00  3 12  1 36  0.0000000  0  7G17G30G23G22G26G 6G10
  21329169.514   -22516949.32849 -16650849.45047  21329168.404    21329179.690
       243.000         208.000
  23063761.358    -5369772.15749  -4163027.30546  23063761.510    23063777.727
       225.000         174.000
  22358378.854   -18263744.91549 -14184735.98846  22358377.377    22358391.886
       230.000         187.000
  24081182.290    -6029170.18749  -4186893.21945  24081181.235    24081198.398
       207.000         149.000
  22301718.276   -16938342.04049 -13186639.77446  22301717.892    22301729.361
       227.000         179.000
  20267400.057   -23966224.43849 -18145361.35048  20267399.721    20267408.892
       245.000         216.000
  23035742.966    -5003554.80349  -3561172.70146  23035741.468    23035756.213
       221.000         168.000
 00  3 12  1 36 30.0000000  0  7G17G30G23G22G26G 6G10
  21322554.010   -22551713.62949 -16677938.43447  21322552.884    21322564.374
       244.000         208.000
  23081784.863    -5275059.27049  -4089225.23246  23081785.722    23081800.683
       225.000         173.000
  22342765.211   -18345793.90249 -14248670.00546  22342763.737    22342777.934
       230.000         187.000
  24071458.877    -6080265.99549  -4226707.95645  24071457.797    24071475.091
       209.000         149.000
  22291129.288   -16993986.74849 -13229999.09946  22291128.743    22291141.318
       227.000         179.000
  20267605.631   -23965144.05149 -18144519.45548  20267605.049    20267614.458
       245.000         216.000
  23053844.271    -4908432.22949  -3487051.26546  23053843.506    23053857.837
       221.000         168.000
 00  3 12  1 37  0.0000000  0  7G17G30G23G22G26G 6G10
  21315971.686   -22586303.73549 -16704891.68447  21315970.371    21315981.844
       244.000         209.000
  23099834.543    -5180208.49749  -4015315.73246  23099834.517    23099849.603
       225.000         173.000
  22327210.409   -18427533.80349 -14312363.18846  22327209.425    22327223.372
       231.000         187.000
  24061822.328    -6130905.47249  -4266167.11345  24061821.508    24061838.777
       210.000         149.000
  22280624.123   -17049191.13249 -13273015.30946  22280623.116    22280635.636
       228.000         179.000
  20267898.419   -23963605.34849 -18143320.43048  20267898.006    20267907.393
       246.000         216.000
  23071974.496    -4813157.47849  -3412811.24446  23071973.245    23071987.008
       220.000         167.000
 00  3 12  1 37 30.0000000  0  7G17G30G23G22G26G 6G10
  21309422.280   -22620720.67649 -16731710.00747  21309421.195    21309432.399
       244.000         209.000
  23117910.784    -5085217.95049  -3941297.30646  23117911.463    23117927.282
       224.000         172.000
  22311713.530   -18508969.77349 -14375819.54547  22311712.493    22311726.410
       232.000         188.000
  24052269.272    -6181106.32549  -4305284.48845  24052267.961    24052286.463
       210.000         150.000
  22270199.207   -17103973.97049 -13315703.04746  22270198.612    22270210.904
       228.000         179.000
  20268277.680   -23961612.14149 -18141767.24648  20268277.304    20268286.493
       245.000         216.000
  23090131.365    -4717742.57349  -3338462.01346  23090130.415    23090144.083
       219.000         166.000
 00  3 12  1 38  0.0000000  0  7G17G30G23G22G26G 6G10
  21302905.849   -22654964.20549 -16758393.20447  21302904.546    21302916.021
       244.000         209.000
  23136016.559    -4990071.88449  -3867157.69446  23136016.709    23136032.463
       223.000         171.000
  22296276.664   -18590090.15249 -14439029.98047  22296275.130    22296289.407
       231.000         188.000
  24042806.172    -6230834.26949  -4344033.35345  24042804.383    24042823.253
       209.000         150.000
  22259857.140   -17158321.15349 -13358051.31346  22259856.312    22259868.697
       228.000         180.000
  20268742.003   -23959171.96549 -18139865.77848  20268741.622    20268750.841
       245.000         216.000
  23108318.028    -4622171.45349  -3263991.05846  23108317.445    23108330.888
       218.000         166.000
 00  3 12  1 38 30.0000000  0  7G17G30G23G22G26G 6G10
  21296422.487   -22689034.05949 -16784941.06847  21296421.504    21296432.808
       244.000         209.000
  23154151.003    -4894775.38349  -3792900.86346  23154151.934    23154167.510
       224.000         171.000
  22280900.243   -18670892.87749 -14501992.89847  22280898.535    22280912.778
       232.000         188.000
  24033438.307    -6280062.03449  -4382392.46745  24033437.278    24033454.764
       208.000         150.000
  22249599.279   -17212225.92749 -13400054.84046  22249599.003    22249611.098
       228.000         180.000
  20269292.515   -23956278.84649 -18137611.36748  20269292.101    20269301.370
       245.000         216.000
  23126533.306    -4526449.62049  -3189402.65646  23126531.965    23126546.050
       219.000         165.000
 00  3 12  1 39  0.0000000  0  7G17G30G23G22G26G 6G10
  21289972.113   -22722930.75849 -16811354.00147  21289971.409    21289982.580
       243.000         209.000
  23172312.386    -4799337.32349  -3718533.71946  23172312.672    23172328.346
       223.000         170.000
  22265586.095   -18751368.28149 -14564700.75647  22265585.406    22265598.799
       232.000         188.000
  24024165.351    -6328790.33349  -4420362.37345  24024163.168    24024182.455
       207.000         149.000
  22239429.274   -17265669.06849 -13441698.65146  22239428.994    22239440.210
       228.000         180.000
  20269928.977   -23952933.87249 -18135004.84948  20269928.381    20269937.796
       245.000         216.000
  23144776.856    -4430579.31149  -3114698.54546  23144775.625    23144789.850
       219.000         163.000
 00  3 12  1 39 30.0000000  0  7G17G30G23G22G26G 6G10
  21283554.809   -22756653.92549 -16837631.72047  21283553.692    21283564.980
       244.000         209.000
  23190499.972    -4703761.51849  -3644059.26546  23190500.091    23190516.795
       223.000         169.000
  22250338.751   -18831492.92349 -14627135.29547  22250337.392    22250351.277
       232.000         189.000
  24014989.555    -6377008.39649  -4457934.70545  24014987.240    24015006.537
       209.000         149.000
  22229352.495   -17318622.36549 -13482960.76746  22229351.620    22229363.370
       228.000         180.000
  20270654.258   -23949122.27549 -18132034.73448  20270653.758    20270662.889
       245.000         216.000
  23163049.564    -4334555.41049  -3039874.74546  23163048.425    23163062.909
       218.000         163.000
 00  3 12  1 40  0.0000000  0  7G17G30G23G22G26G 6G10
  21277170.315   -22790204.35549 -16863774.84247  21277169.252    21277180.435
       244.000         209.000
  23208706.454    -4608086.35049  -3569507.38446  23208707.626    23208723.064
       221.000         168.000
  22235155.876   -18911278.38049 -14689305.54447  22235154.853    22235168.930
       233.000         189.000
  24005909.374    -6424723.69449  -4495115.28945  24005908.176    24005926.714
       210.000         150.000
  22219366.173   -17371099.74349 -13523852.05446  22219365.204    22219377.340
       228.000         180.000
  20271467.289   -23944849.66549 -18128705.38948  20271466.766    20271476.222
       245.000         216.000
  23181347.504    -4238398.99149  -2964947.69045  23181346.528    23181359.914
       219.000         162.000
 00  3 12  1 40 30.0000000  0  7G17G30G23G22G26G 6G10
  21270818.777   -22823581.63149 -16889783.03647  21270817.699    21270828.729
       244.000         209.000
  23226928.032    -4512332.26049  -3494894.01446  23226928.652    23226943.973
       222.000         166.000
  22220035.023   -18990738.01549 -14751221.89547  22220033.531    22220047.783
       233.000         189.000
  23996919.361    -6471966.82949  -4531927.96645  23996918.359    23996936.217
       208.000         150.000
  22209467.349   -17423117.65749 -13564385.30746  22209466.596    22209478.276
       229.000         180.000
  20272368.657   -23940112.71649 -18125014.22748  20272368.271    20272377.353
       246.000         216.000
  23199665.561    -4142136.97849  -2889938.33045  23199664.596    23199678.074
       219.000         161.000
 00  3 12  1 41  0.0000000  0  7G17G30G23G22G26G 6G10
  21264500.149   -22856786.04849 -16915656.53847  21264499.064    21264510.062
       243.000         209.000
  23245165.917    -4416492.41749  -3420213.83246  23245166.586    23245182.424
       222.000         166.000
  22204977.230   -19069866.27549 -14812880.04847  22204975.975    22204989.527
       233.000         189.000
  23988016.719    -6518749.63049  -4568381.92045  23988015.482    23988033.513
       211.000         150.000
  22199656.691   -17474672.47149 -13604557.70746  22199655.858    22199667.923
       228.000         180.000
  20273359.616   -23934905.11549 -18120956.32548  20273359.355    20273368.500
       245.000         216.000
  23218004.031    -4045767.71849  -2814845.41045  23218002.961    23218016.930
       215.000         160.000
 00  3 12  1 41 30.0000000  0  7G17G30G23G22G26G 6G10
  21258214.478   -22889817.02149 -16941394.89047  21258213.495    21258224.582
       244.000         209.000
  23263423.427    -4320549.63849  -3345453.42146  23263424.426    23263440.565
       222.000         166.000
  22189984.675   -19148651.77849 -14874271.11547  22189982.904    22189997.164
       233.000         190.000
  23979202.720    -6565067.07549  -4604473.27245  23979201.674    23979219.464
       212.000         152.000
  22189934.564   -17525761.82749 -13644367.41346  22189933.858    22189945.527
       228.000         180.000
  20274441.351   -23929220.49149 -18116526.71648  20274440.737    20274449.867
       245.000         216.000
  23236363.786    -3949286.46949  -2739665.21145  23236362.581    23236376.751
       215.000         159.000
 00  3 12  1 42  0.0000000  0  7G17G30G23G22G26G 6G10
  21251961.689   -22922675.30749 -16966998.68247  21251960.754    21251971.656
       244.000         209.000
  23281704.116    -4224484.59549  -3270597.74246  23281705.471    23281721.349
       221.000         166.000
  22175056.856   -19227096.87949 -14935396.92947  22175055.159    22175069.132
       232.000         190.000
  23970477.719    -6610916.53949  -4640199.96445  23970476.185    23970494.506
       211.000         153.000
  22180301.322   -17576383.98749 -13683813.07546  22180300.717    22180312.473
       229.000         181.000
  20275611.490   -23923071.14549 -18111734.98948  20275611.007    20275620.382
       245.000         216.000
  23254745.622    -3852688.87549  -2664394.36645  23254744.745    23254759.270
       215.000         158.000
 00  3 12  1 42 30.0000000  0  7G17G30G23G22G26G 6G10
  21245741.809   -22955360.71649 -16992467.76547  21245741.109    21245751.795
       244.000         210.000
  23300015.214    -4128259.61949  -3195617.43146  23300016.194    23300031.849
       220.000         166.000
  22160198.162   -19305178.56049 -14996239.55847  22160196.755    22160210.508
       232.000         190.000
  23961843.706    -6656287.90249  -4675554.07245  23961841.832    23961861.151
       211.000         152.000
  22170763.256   -17626506.19649 -13722869.16646  22170762.640    22170774.190
       229.000         182.000
  20276873.639   -23916438.24549 -18106566.47048  20276873.343    20276882.485
       245.000         216.000
  23273153.215    -3755956.51749  -2589018.50245  23273151.672    23273165.826
       214.000         157.000
 00  3 12  1 43  0.0000000  0  7G17G30G23G22G26G 6G10
  21239554.746   -22987873.79749 -17017802.56647  21239553.813    21239564.903
       244.000         210.000
  23318358.996    -4031863.30749  -3120503.63546  23318358.966    23318375.365
       220.000         165.000
  22145411.487   -19382882.05749 -15056787.49747  22145409.552    22145423.658
       232.000         190.000
  23953304.360    -6701161.84249  -4710520.58145  23953302.664    23953320.542
       212.000         152.000
  22161322.779   -17676115.39549 -13761525.52246  22161322.296    22161334.421
       229.000         182.000
  20278230.050   -23909310.19649 -18101012.11948  20278229.694    20278238.902
       245.000         216.000
  23291589.015    -3659075.90749  -2513527.11245  23291587.200    23291601.238
       214.000         157.000
 00  3 12  1 43 30.0000000  0  7G17G30G23G22G26G 6G10
  21233400.509   -23020214.28849 -17043002.88047  21233399.523    21233410.321
       244.000         210.000
  23336733.123    -3935307.28149  -3045265.37746  23336734.145    23336750.290
       220.000         165.000
  22130695.863   -19460212.04849 -15117044.39947  22130694.599    22130708.242
       232.000         191.000
  23944860.893    -6745532.21449  -4745094.68345  23944859.878    23944877.092
       213.000         153.000
  22151980.410   -17725209.14849 -13799780.23046  22151980.073    22151991.187
       228.000         182.000
  20279680.008   -23901690.65149 -18095074.78948  20279679.790    20279688.781
       245.000         216.000
  23310051.608    -3562054.49749  -2437926.01945  23310051.027    23310064.534
       214.000         156.000
 00  3 12  1 44  0.0000000  0  7G17G30G23G22G26G 6G10
  21227279.104   -23052382.30149 -17068068.79047  21227278.151    21227289.159
       244.000         210.000
  23355133.893    -3838611.11949  -2969917.92446  23355134.417    23355150.795
       219.000         165.000
  22116048.430   -19537183.73749 -15177022.10447  22116047.279    22116061.184
       233.000         191.000
  23936513.202    -6789398.73149  -4779276.15345  23936511.528    23936528.856
       213.000         154.000
  22142737.242   -17773781.44449 -13837628.61246  22142736.722    22142748.243
       229.000         182.000
  20281221.909   -23893587.87549 -18088760.91248  20281221.503    20281230.634
       245.000         216.000
  23328538.116    -3464907.56649  -2362227.10645  23328536.590    23328551.368
       215.000         156.000
 00  3 12  1 44 30.0000000  0  7G17G30G23G22G26G 6G10
  21221190.452   -23084377.94349 -17093000.37747  21221189.426    21221200.397
       244.000         210.000
  23373556.254    -3741801.81449  -2894482.31246  23373556.783    23373573.120
       221.000         166.000
  22101469.319   -19613796.57549 -15236720.17747  22101468.252    22101482.026
       233.000         191.000
  23928262.606    -6832754.99949  -4813060.00345  23928260.970    23928278.664
       214.000         154.000
  22133593.114   -17821833.47649 -13875071.60146  22133592.633    22133603.969
       228.000         181.000
  20282856.772   -23884996.35049 -18082066.19148  20282856.271    20282865.456
       246.000         216.000
  23347048.042    -3367636.95549  -2286431.81145  23347047.126    23347060.593
       215.000         157.000
 00  3 12  1 45  0.0000000  0  7G17G30G23G22G26G 6G10
  21215134.627   -23116201.14949 -17117797.59847  21215133.589    21215144.295
       244.000         210.000
  23391993.882    -3644912.51649  -2818984.38346  23391994.289    23392010.466
       221.000         168.000
  22086959.266   -19690046.74149 -15296135.65747  22086958.177    22086971.673
       233.000         192.000
  23920110.057    -6875596.08649  -4846442.42845  23920107.994    23920126.861
       211.000         153.000
  22124544.382   -17869384.30649 -13912124.04146  22124543.817    22124555.512
       229.000         182.000
  20284584.397   -23875917.51949 -18074991.75848  20284584.005    20284593.273
       245.000         216.000
  23365583.562    -3270232.00649  -2210531.85445  23365582.034    23365596.790
       214.000         158.000
 00  3 12  1 45 30.0000000  0  7G17G30G23G22G26G 6G10
  21209111.629   -23147851.86749 -17142460.41347  21209110.458    21209121.689
       244.000         210.000
  23410441.734    -3547969.40549  -2743444.51146  23410442.258    23410458.680
       222.000         168.000
  22072517.254   -19765939.15549 -15355272.36647  22072515.945    22072529.545
       234.000         193.000
  23912052.984    -6917935.67249  -4879434.05945  23912051.251    23912069.648
       210.000         153.000
  22115589.469   -17916442.24349 -13948792.41246  22115588.657    22115600.755
       229.000         182.000
  20286400.862   -23866371.88549 -18067553.57848  20286400.477    20286409.642
       245.000         216.000
  23384143.854    -3172696.90349  -2134530.46045  23384143.294    23384157.049
       216.000         158.000
 00  3 12  1 46  0.0000000  0  7G17G30G23G22G26G 6G10
  21203121.475   -23179329.99949 -17166988.74547  21203120.395    21203131.404
       244.000         210.000
  23428899.623    -3450973.42249  -2667863.44746  23428900.030    23428916.685
       222.000         168.000
  22058144.199   -19841469.34049 -15414126.82747  22058143.145    22058156.207
       234.000         193.000
  23904092.281    -6959768.33649  -4912030.69045  23904091.192    23904108.849
       212.000         153.000
  22106728.053   -17963008.51549 -13985077.65446  22106727.271    22106738.899
       229.000         182.000
  20288306.350   -23856358.46049 -18059750.88448  20288305.928    20288314.999
       245.000         215.000
  23402729.271    -3075030.31649  -2058426.60745  23402728.808    23402741.470
       216.000         158.000
 00  3 12  1 46 30.0000000  0  7G17G30G23G22G26G 6G10
  21197164.145   -23210635.93149 -17191382.89147  21197163.159    21197174.054
       244.000         210.000
  23447368.714    -3353918.85649  -2592236.72546  23447369.254    23447386.083
       221.000         169.000
  22043842.034   -19916626.99449 -15472691.00847  22043840.737    22043853.908
       235.000         194.000
  23896229.190    -7001088.50149  -4944227.97145  23896228.056    23896244.793
       213.000         155.000
  22097958.800   -18009090.40649 -14020985.47046  22097958.732    22097969.993
       229.000         182.000
  20290303.646   -23845862.39549 -18051572.10848  20290303.385    20290312.452
       245.000         215.000
  23421340.132    -2977229.24049  -1982217.97645  23421338.155    23421352.367
       215.000         157.000
 00  3 12  1 47  0.0000000  0  7G17G30G23G22G26G 6G10
  21191239.460   -23241769.94149 -17215643.07547  21191238.301    21191249.484
       244.000         210.000
  23465850.309    -3256798.06949  -2516558.41546  23465851.489    23465867.844
       222.000         169.000
  22029606.181   -19991435.89749 -15530983.43547  22029604.882    22029617.929
       234.000         194.000
  23888461.579    -7041906.94549  -4976034.32045  23888459.713    23888477.140
       214.000         156.000
  22089281.578   -18054689.07549 -14056516.75046  22089281.299    22089291.559
       229.000         182.000
  20292389.657   -23834900.09149 -18043030.02448  20292389.221    20292398.368
       245.000         215.000
  23439971.691    -2879319.33949  -1905924.52445  23439971.006    23439984.853
       215.000         158.000
 00  3 12  1 47 30.0000000  0  7G17G30G23G22G26G 6G10
  21185347.684   -23272730.99349 -17239768.48847  21185346.540    21185357.400
       244.000         210.000
  23484345.978    -3159603.64049  -2440822.73046  23484346.885    23484363.310
       222.000         169.000
  22015430.326   -20065929.44049 -15589030.13147  22015429.405    22015442.319
       235.000         195.000
  23880787.665    -7082233.15749  -5007457.12445  23880786.286    23880802.925
       214.000         157.000
  22080697.354   -18099798.93149 -14091667.13946  22080696.472    22080707.773
       229.000         182.000
  20294559.051   -23823499.68649 -18034146.57048  20294558.460    20294567.775
       244.000         215.000
  23458616.608    -2781339.88949  -1829576.86545  23458615.908    23458629.336
       218.000         158.000
 00  3 12  1 48  0.0000000  0  7G17G30G23G22G26G 6G10
  21179488.431   -23303521.14549 -17263760.72947  21179487.486    21179498.198
       244.000         210.000
  23502858.591    -3062320.20949  -2365017.67946  23502859.219    23502876.531
       222.000         169.000
  22001314.780   -20140106.50749 -15646830.22547  22001313.887    22001326.905
       236.000         195.000
  23873209.696    -7122054.37549  -5038486.40845  23873207.892    23873225.415
       213.000         156.000
  22072210.611   -18144396.35549 -14126418.22546  22072210.037    22072220.925
       229.000         182.000
  20296815.759   -23811640.59249 -18024905.69448  20296815.477    20296824.521
       245.000         215.000
  23477274.446    -2683292.65049  -1753176.43545  23477273.072    23477288.513
       216.000         158.000
 00  3 12  1 48 30.0000000  0  7G17G30G23G22G26G 6G10
  21173662.144   -23334138.17949 -17287618.07547  21173661.109    21173671.849
       244.000         210.000
  23521388.361    -2964946.70149  -2289142.44546  23521388.971    23521405.226
       222.000         169.000
  21987259.648   -20213965.84249 -15704382.74047  21987258.178    21987271.212
       236.000         196.000
  23865726.790    -7161375.49349  -5069126.02645  23865725.522    23865742.231
       214.000         156.000
  22063824.440   -18188465.62349 -14160757.76446  22063823.883    22063835.137
       229.000         183.000
  20299159.306   -23799324.91949 -18015309.03348  20299158.805    20299168.051
       244.000         215.000
  23495945.839    -2585174.18549  -1676720.45145  23495944.746    23495958.496
       216.000         158.000
 00  3 12  1 49  0.0000000  0  7G17G30G23G22G26G 6G10
  21167868.618   -23364583.08149 -17311341.29347  21167867.500    21167878.108
       244.000         211.000
  23539933.609    -2867491.64549  -2213203.68246  23539934.373    23539950.853
       221.000         168.000
  21973265.165   -20287506.45549 -15761686.90547  21973264.136    21973276.901
       236.000         196.000
  23858337.708    -7200204.32949  -5099382.06745  23858336.148    23858353.243
       213.000         156.000
  22055541.631   -18231991.56249 -14194673.92646  22055540.947    22055551.919
       229.000         183.000
  20301587.543   -23786564.22949 -18005365.61348  20301587.184    20301596.285
       245.000         215.000
  23514630.330    -2486986.17049  -1600210.29245  23514629.101    23514642.851
       214.000         157.000
 00  3 12  1 49 30.0000000  0  7G17G30G23G22G26G 6G10
  21162107.870   -23394855.65749 -17334930.23247  21162106.838    21162117.605
       244.000         211.000
  23558494.444    -2769954.57749  -2137201.02346  23558494.674    23558512.412
       220.000         166.000
  21959340.114   -20360682.42649 -15818706.93147  21959338.986    21959351.434
       237.000         197.000
  23851043.747    -7238533.72349  -5129248.92445  23851042.587    23851059.082
       213.000         155.000
  22047366.515   -18274951.48149 -14228149.04246  22047366.056    22047376.989
       230.000         182.000
  20304105.224   -23773333.72949 -17995056.10948  20304104.661    20304114.045
       245.000         215.000
  23533333.534    -2388700.23749  -1523623.83145  23533332.043    23533347.614
       216.000         157.000
 00  3 12  1 50  0.0000000  0  7G17G30G23G22G26G 6G10
  21156379.803   -23424956.43849 -17358385.29947  21156378.614    21156389.556
       244.000         211.000
  23577070.525    -2672337.32349  -2061135.86746  23577071.433    23577088.066
       218.000         165.000
  21945490.955   -20433459.28449 -15875415.96847  21945489.774    21945502.607
       236.000         197.000
  23843846.066    -7276356.93549  -5158721.36345  23843845.349    23843862.400
       214.000         155.000
  22039301.057   -18317334.99549 -14261175.00946  22039300.710    22039311.015
       228.000         183.000
  20306717.919   -23759603.64049 -17984357.31448  20306717.382    20306726.630
       244.000         215.000
  23552060.537    -2290288.95549  -1446939.68245  23552059.479    23552073.333
       215.000         156.000
 00  3 12  1 50 30.0000000  0  7G17G30G23G22G26G 6G10
  21150684.455   -23454885.33649 -17381706.42747  21150683.516    21150694.209
       244.000         211.000
  23595658.297    -2574658.09349  -1985022.42146  23595658.835    23595675.943
       217.000         163.000
  21931715.639   -20505847.94049 -15931822.50947  21931714.280    21931727.265
       236.000         197.000
  23836742.680    -7313684.94449  -5187807.93645  23836741.497    23836758.070
       216.000         155.000
  22031339.608   -18359171.89449 -14293775.04646  22031339.331    22031349.980
       228.000         182.000
  20309423.510   -23745385.52049 -17973278.23048  20309423.099    20309432.298
       245.000         215.000
  23570809.959    -2191759.75149  -1370163.66645  23570808.379    23570822.855
       215.000         156.000
 00  3 12  1 51  0.0000000  0  7G17G30G23G22G26G 6G10
  21145021.938   -23484641.59249 -17404893.02847  21145020.857    21145031.725
       244.000         211.000
  23614258.665    -2476912.50549  -1908857.24745  23614259.368    23614276.598
       217.000         162.000
  21918015.534   -20577841.50149 -15987921.17847  21918014.155    21918026.938
       236.000         197.000
  23829736.285    -7350503.23749  -5216497.33245  23829735.377    23829751.353
       215.000         156.000
  22023480.369   -18400471.91649 -14325956.73646  22023479.702    22023490.930
       230.000         182.000
  20312225.574   -23730660.54349 -17961804.19748  20312225.229    20312234.393
       244.000         215.000
  23589581.754    -2093113.48249  -1293296.42845  23589580.453    23589594.310
       214.000         156.000
 00  3 12  1 51 30.0000000  0  7G17G30G23G22G26G 6G10
  21139392.150   -23514225.90949 -17427945.64947  21139390.994    21139401.696
       244.000         211.000
  23632871.165    -2379104.18149  -1832643.20845  23632872.673    23632889.410
       216.000         161.000
  21904389.432   -20649446.32749 -16043716.94747  21904388.318    21904400.842
       236.000         197.000
  23822828.760    -7386802.07949  -5244781.96945  23822826.690    23822844.118
       214.000         156.000
  22015720.534   -18441249.41549 -14357731.26846  22015720.264    22015731.055
       230.000         183.000
  20315126.803   -23715414.32749 -17949924.00248  20315126.411    20315135.520
       245.000         215.000
  23608375.955    -1994349.10449  -1216337.14145  23608375.282    23608389.536
       215.000         156.000
 00  3 12  1 52  0.0000000  0  7G17G30G23G22G26G 6G10
  21133795.102   -23543638.37449 -17450864.36147  21133794.139    21133804.823
       244.000         211.000
  23651492.155    -2281251.05749  -1756394.25945  23651493.232    23651510.494
       217.000         160.000
  21890830.394   -20720699.10249 -16099238.39047  21890829.094    21890841.671
       236.000         197.000
  23816019.002    -7422586.44649  -5272665.72245  23816017.354    23816035.112
       215.000         155.000
  22008055.541   -18481528.85049 -14389117.69346  22008054.721    22008066.289
       229.000         183.000
  20318125.792   -23699654.53249 -17937643.61848  20318125.295    20318134.411
       245.000         215.000
  23627187.590    -1895493.10849  -1139306.48245  23627186.389    23627200.123
       216.000         156.000
 00  3 12  1 52 30.0000000  0  7G17G30G23G22G26G 6G10
  21128230.812   -23572878.42349 -17473648.71947  21128229.901    21128240.427
       244.000         211.000
  23670122.731    -2183348.09949  -1680106.46945  23670122.875    23670140.636
       217.000         159.000
  21877338.361   -20791599.38949 -16154485.16647  21877337.414    21877349.839
       237.000         197.000
  23809306.790    -7457858.68149  -5300150.41845  23809305.331    23809321.993
       214.000         156.000
  22000484.918   -18521312.01749 -14420117.41846  22000484.392    22000495.194
       229.000         183.000
  20321220.835   -23683389.81949 -17924969.79048  20321220.532    20321229.495
       244.000         215.000
  23646013.861    -1796560.36649  -1062216.01145  23646012.666    23646026.366
       216.000         157.000
 00  3 12  1 53  0.0000000  0  7G17G30G23G22G26G 6G10
  21122699.325   -23601946.23649 -17496298.87147  21122698.220    21122708.993
       244.000         211.000
  23688763.036    -2085394.11049  -1603778.92245  23688763.820    23688780.658
       218.000         160.000
  21863917.085   -20862127.55049 -16209441.98047  21863915.886    21863928.330
       236.000         198.000
  23802692.497    -7492616.24049  -5327234.07845  23802691.609    23802707.503
       217.000         157.000
  21993013.338   -18560574.70549 -14450711.58646  21993012.844    21993023.816
       229.000         184.000
  20324409.983   -23666630.60849 -17911910.63748  20324409.544    20324418.805
       244.000         215.000
  23664852.999    -1697560.29149   -985073.07245  23664851.654    23664865.421
       214.000         155.000
 00  3 12  1 53 30.0000000  0  7G17G30G23G22G26G 6G10
  21117200.615   -23630841.87049 -17518814.85047  21117199.457    21117210.319
       244.000         211.000
  23707408.962    -1987409.89849  -1527427.82445  23707410.012    23707426.644
       218.000         159.000
  21850565.013   -20932292.25249 -16264115.58047  21850563.580    21850576.320
       236.000         197.000
  23796175.275    -7526864.07849  -5353920.54645  23796174.091    23796190.418
       217.000         158.000
  21985641.403   -18599314.01249 -14480897.92546  21985640.798    21985651.738
       230.000         184.000
  20327688.996   -23649399.07949 -17898483.44748  20327688.374    20327697.756
       245.000         215.000
  23683701.265    -1598512.36049   -907892.84045  23683699.486    23683713.742
       215.000         153.000
 00  3 12  1 54  0.0000000  0  7G17G30G23G22G26G 6G10
  21111734.669   -23659565.23249 -17541196.59947  21111733.521    21111744.127
       244.000         211.000
  23726060.975    -1889394.11049  -1451052.13245  23726062.079    23726078.768
       216.000         158.000
  21837284.487   -21002080.83249 -16318496.10047  21837283.133    21837295.859
       236.000         197.000
  23789754.019    -7560607.36249  -5380213.87645  23789752.747    23789770.157
       216.000         158.000
  21978368.940   -18637530.47949 -14510676.86146  21978369.002    21978379.464
       230.000         184.000
  20331054.996   -23631710.60949 -17884700.19948  20331054.654    20331063.633
       244.000         215.000
  23702555.953    -1499430.37749   -830686.08245  23702555.113    23702567.883
       213.000         151.000
 00  3 12  1 54 30.0000000  0  7G17G30G23G22G26G 6G10
  21106301.483   -23688116.43549 -17563444.19547  21106300.382    21106310.969
       244.000         211.000
  23744722.570    -1791327.56249  -1374636.87445  23744723.140    23744740.223
       216.000         158.000
  21824080.666   -21071466.44349 -16372562.61747  21824079.584    21824092.128
       236.000         198.000
  23783431.441    -7593831.90549  -5406103.01245  23783430.184    23783446.972
       216.000         158.000
  21971200.736   -18675199.15249 -14540028.94846  21971200.155    21971211.180
       231.000         185.000
  20334508.605   -23613561.57849 -17870558.07848  20334508.353    20334517.326
       245.000         215.000
  23721420.027    -1400298.99449   -753440.83345  23721419.343    23721432.017
       213.000         151.000
 00  3 12  1 55  0.0000000  0  7G17G30G23G22G26G 6G10
  21100901.107   -23716495.17249 -17585557.40647  21100899.951    21100910.539
       244.000         211.000
  23763392.347    -1693218.18249  -1298188.26345  23763392.985    23763410.607
       217.000         158.000
  21810951.151   -21140461.74349 -16426325.00247  21810949.814    21810962.357
       236.000         198.000
  23777208.778    -7626531.92449  -5431583.41545  23777207.692    23777223.860
       216.000         158.000
  21964138.171   -18712312.70449 -14568948.47246  21964137.764    21964148.463
       230.000         185.000
  20338052.312   -23594939.32649 -17856047.21248  20338052.050    20338061.104
       244.000         215.000
  23740294.021    -1301115.22049   -676154.75545  23740292.478    23740306.059
       214.000         150.000
 00  3 12  1 55 30.0000000  0  7G17G30G23G22G26G 6G10
  21095533.528   -23744701.75949 -17607536.47447  21095532.557    21095543.106
       244.000         211.000
  23782071.724    -1595058.69949  -1221700.60645  23782072.484    23782089.646
       218.000         158.000
  21797894.169   -21209075.94349 -16479790.42447  21797893.193    21797905.548
       237.000         198.000
  23771085.852    -7658707.45549  -5456655.15145  23771085.030    23771100.950
       217.000         158.000
  21957180.868   -18748873.30149 -14597437.11446  21957180.810    21957191.422
       230.000         185.000
  20341691.004   -23575817.75649 -17841147.26448  20341690.451    20341699.726
       245.000         215.000
  23759181.238    -1201862.28049   -598814.77245  23759181.051    23759194.208
       215.000         150.000
 00  3 12  1 56  0.0000000  0  7G17G30G23G22G26G 6G10
  21090198.728   -23772735.97849 -17629381.22947  21090197.720    21090208.154
       244.000         211.000
  23800762.571    -1496838.52549  -1145165.65245  23800763.434    23800781.323
       216.000         157.000
  21784911.193   -21277301.45749 -16532952.97447  21784910.021    21784922.309
       236.000         198.000
  23765060.248    -7690372.04649  -5481328.76145  23765059.022    23765075.967
       217.000         158.000
  21950332.383   -18784861.69149 -14625479.88146  21950331.722    21950342.842
       230.000         185.000
  20345425.382   -23556193.33149 -17825855.48648  20345425.115    20345434.038
       244.000         215.000
  23778086.589    -1102513.78049   -521400.33245  23778086.413    23778098.323
       215.000         151.000
 00  3 12  1 56 30.0000000  0  7G17G30G23G22G26G 6G10
  21084896.721   -23800597.73649 -17651091.59947  21084895.591    21084906.130
       244.000         211.000
  23819464.019    -1398562.25049  -1068586.99245  23819465.537    23819482.908
       216.000         155.000
  21771998.516   -21345156.89549 -16585827.15947  21771997.360    21772009.666
       237.000         198.000
  23759130.708    -7721531.06749  -5505608.42945  23759129.817    23759146.480
       217.000         157.000
  21943596.511   -18820257.97049 -14653061.25746  21943595.775    21943606.290
       231.000         186.000
  20349255.536   -23536065.77249 -17810171.65548  20349255.294    20349264.331
       244.000         215.000
  23797012.295    -1003058.31549   -443902.54445  23797011.262    23797024.393
       214.000         152.000
 00  3 12  1 57  0.0000000  0  7G17G30G23G22G26G 6G10
  21079627.554   -23828287.03949 -17672667.59047  21079626.588    21079637.181
       244.000         211.000
  23838171.617    -1300254.42549   -991983.73845  23838172.137    23838190.633
       216.000         155.000
  21759152.682   -21412661.45949 -16638427.93547  21759151.493    21759164.080
       237.000         199.000
  23753296.023    -7752192.44149  -5529500.31645  23753294.716    23753311.247
       217.000         157.000
  21936970.494   -18855077.16649 -14680192.96746  21936970.421    21936980.556
       231.000         186.000
  20353179.416   -23515445.63549 -17794104.00148  20353178.947    20353188.092
       244.000         214.000
  23815954.980     -903513.70449   -366335.29445  23815953.678    23815967.237
       215.000         152.000
 00  3 12  1 57 30.0000000  0  7G17G30G23G22G26G 6G10
  21074391.163   -23855804.02049 -17694109.30247  21074390.053    21074400.448
       244.000         211.000
  23856886.161    -1201909.63749   -915351.67545  23856886.441    23856904.184
       217.000         154.000
  21746377.581   -21479794.27949 -16690739.04347  21746376.407    21746388.942
       239.000         199.000
  23747557.064    -7782350.71449  -5553000.17245  23747555.729    23747572.044
       219.000         157.000
  21930454.446   -18889318.65049 -14706874.51246  21930453.623    21930464.661
       231.000         186.000
  20357194.949   -23494343.70549 -17777660.91848  20357194.338    20357203.435
       245.000         214.000
  23834915.302     -803876.28949   -288695.72445  23834915.072    23834927.002
       214.000         153.000
 00  3 12  1 58  0.0000000  0  7G17G30G23G22G26G 6G10
  21069187.683   -23883148.08249 -17715416.28047  21069186.436    21069197.131
       244.000         211.000
  23875606.759    -1103532.75849   -838694.59745  23875607.971    23875624.846
       217.000         153.000
  21733674.213   -21546550.28649 -16742756.53647  21733673.181    21733684.988
       238.000         199.000
  23741916.388    -7811992.11749  -5576097.27745  23741914.804    23741931.590
       218.000         158.000
  21924049.270   -18922977.82849 -14733102.30546  21924048.737    21924059.240
       231.000         186.000
  20361301.250   -23472764.67849 -17760846.07748  20361300.745    20361310.065
       244.000         214.000
  23853889.347     -704166.80449   -211000.00145  23853888.607    23853901.997
       216.000         153.000
 00  3 12  1 58 30.0000000  0  7G17G30G23G22G26G 6G10
  21064017.066   -23910319.48349 -17736588.71847  21064016.095    21064026.468
       244.000         211.000
  23894330.545    -1005139.87749   -762025.06945  23894331.089    23894348.754
       218.000         153.000
  21721040.156   -21612942.10749 -16794490.24647  21721039.148    21721051.177
       239.000         200.000
  23736376.434    -7841103.94749  -5598781.73145  23736375.749    23736391.337
       218.000         158.000
  21917749.055   -18956085.09549 -14758900.05046  21917748.688    21917758.928
       232.000         187.000
  20365501.109   -23450694.00649 -17743648.13448  20365500.777    20365509.920
       244.000         214.000
  23872871.314     -604415.94649   -133272.04645  23872870.446    23872883.642
       216.000         154.000
 00  3 12  1 59  0.0000000  0  7G17G30G23G22G26G 6G10
  21058879.393   -23937317.83949 -17757626.31347  21058878.402    21058888.732
       244.000         211.000
  23913057.714     -906729.41849   -685341.84745  23913058.284    23913076.063
       218.000         155.000
  21708477.264   -21678960.03949 -16845932.61747  21708476.165    21708488.231
       239.000         200.000
  23730939.816    -7869673.18949  -5621043.38745  23730937.904    23730955.230
       218.000         158.000
  21911553.703   -18988641.21349 -14784268.32946  21911553.417    21911563.898
       231.000         187.000
  20369799.391   -23428106.38549 -17726047.37948  20369799.171    20369808.172
       244.000         214.000
  23891860.313     -504628.16749    -55515.33045  23891859.750    23891873.416
       216.000         155.000
 00  3 12  1 59 30.0000000  0  7G17G30G23G22G26G 6G10
  21053774.517   -23964143.67949 -17778529.47747  21053773.596    21053783.783
       244.000         211.000
  23931789.143     -808296.09849   -608640.81245  23931789.977    23931807.491
       219.000         156.000
  21695987.175   -21744595.44249 -16897076.91547  21695986.331    21695998.237
       239.000         200.000
  23725606.392    -7897700.03549  -5642882.39545  23725605.525    23725621.038
       218.000         158.000
  21905463.766   -19020643.69349 -14809205.19346  21905463.643    21905473.720
       232.000         187.000
  20374198.138   -23404990.70049 -17708035.14448  20374197.726    20374206.853
       244.000         214.000
  23910859.010     -404789.32949     22281.18945  23910858.347    23910871.094
       215.000         155.000
 00  3 12  2  0  0.0000000  0  7G17G30G23G22G26G 6G10
  21048702.641   -23990796.26349 -17799297.63747  21048701.647    21048712.096
       244.000         211.000
  23950520.801     -709861.74949   -531938.97245  23950521.339    23950539.370
       219.000         158.000
  21683563.421   -21809881.93749 -16947949.33847  21683562.302    21683574.309
       240.000         201.000
  23720373.085    -7925200.56749  -5664311.27745  23720371.658    23720388.235
       218.000         158.000
  21899476.259   -19052108.03149 -14833722.73246  21899475.708    21899486.275
       232.000         187.000
  20378697.906   -23381344.20649 -17689609.28948  20378697.641    20378706.761
       244.000         214.000
  23929865.547     -304909.55249    100109.60945  23929864.769    23929878.366
       214.000         155.000
 00  3 12  2  0 30.0000000  0  7G17G30G23G22G26G 6G10
  21043663.676   -24017275.76249 -17819930.93347  21043662.645    21043673.089
       244.000         211.000
  23969251.886     -611430.60349   -455239.62145  23969252.222    23969271.428
       220.000         160.000
  21671206.818   -21874815.31849 -16998546.61247  21671205.637    21671217.822
       240.000         201.000
  23715238.435    -7952183.09349  -5685336.51145  23715236.843    23715253.359
       219.000         158.000
  21893592.679   -19083025.94349 -14857814.47846  21893592.072    21893602.789
       231.000         187.000
  20383297.846   -23357171.29049 -17670773.23348  20383297.417    20383306.675
       244.000         214.000
  23948882.769     -204973.44749    177981.92045  23948881.894    23948895.566
       213.000         154.000
 00  3 12  2  1  0.0000000  0  7G17G30G23G22G26G 6G10
  21038657.550   -24043582.75749 -17840429.80947  21038656.411    21038666.768
       244.000         211.000
  23987983.017     -512999.09549   -378539.99945  23987984.034    23988002.370
       220.000         161.000
  21658923.021   -21939366.37949 -17048845.97647  21658922.090    21658933.977
       240.000         202.000
  23710202.559    -7978647.06549  -5705957.66845  23710199.341    23710217.524
       218.000         157.000
  21887817.221   -19113375.43849 -14881463.30346  21887816.900    21887827.347
       231.000         187.000
  20387994.946   -23332487.71449 -17651539.26448  20387994.715    20388003.739
       244.000         214.000
  23967912.723     -104970.24349    255906.50945  23967911.190    23967925.643
       210.000         153.000
 00  3 12  2  1 30.0000000  0  7G17G30G23G22G26G 6G10
  21033684.352   -24069716.84949 -17860793.95647  21033683.394    21033693.359
       244.000         212.000
  24006711.586     -414580.97049   -301850.79945  24006711.979    24006730.641
       220.000         162.000
  21646713.911   -22003525.13949 -17098839.64547  21646712.863    21646724.976
       240.000         203.000
  23705263.320    -8004602.59349  -5726182.62345  23705260.769    23705278.721
       217.000         158.000
  21882147.812   -19143167.87249 -14904678.04446  21882147.435    21882158.067
       231.000         187.000
  20392781.264   -23307335.46549 -17631940.09348  20392781.021    20392790.059
       244.000         214.000
  23986953.348       -4911.31349    333874.52345  23986951.879    23986965.758
       210.000         152.000
 00  3 12  2  2  0.0000000  0  7G17G30G23G22G26G 6G10
  21028744.211   -24095677.07949 -17881022.62147  21028743.354    21028753.776
       244.000         212.000
  24025436.910     -316179.57049   -225174.63945  24025438.035    24025456.004
       219.000         162.000
  21634580.859   -22067284.26649 -17148521.91647  21634579.632    21634591.571
       241.000         203.000
  23700419.156    -8030058.23649  -5746018.04145  23700417.352    23700433.802
       216.000         157.000
  21876587.652   -19172386.35449 -14927445.56047  21876587.574    21876597.859
       231.000         188.000
  20397653.561   -23281731.31349 -17611988.79248  20397653.189    20397662.113
       244.000         214.000
  24006001.105       95185.40949    411871.95545  24006000.302    24006012.963
       209.000         151.000
 00  3 12  2  2 30.0000000  0  7G17G30G23G22G26G 6G10
  21023837.083   -24121463.91549 -17901116.17147  21023836.141    21023846.450
       244.000         212.000
  24044160.411     -217787.76549   -148505.94945  24044161.753    24044179.272
       219.000         162.000
  21622530.961   -22130606.37449 -17197863.65647  21622529.954    21622541.940
       241.000         203.000
  23695672.419    -8055001.56049  -5765454.25845  23695670.109    23695686.604
       215.000         155.000
  21871139.526   -19201015.79149 -14949754.08347  21871139.265    21871149.296
       231.000         188.000
  20402609.342   -23255688.23049 -17591695.47048  20402609.208    20402618.113
       244.000         214.000
  24025054.255      195309.88449    489891.04245  24025052.652    24025066.270
       207.000         150.000
 00  3 12  2  3  0.0000000  0  7G17G30G23G22G26G 6G10
  21018962.982   -24147077.17449 -17921074.47547  21018961.935    21018972.413
       244.000         212.000
  24062880.559     -119413.83449    -71851.19145  24062881.544    24062898.781
       218.000         162.000
  21610563.639   -22193494.23749 -17246867.02647  21610562.599    21610574.265
       241.000         203.000
  23691022.552    -8079435.57349  -5784493.61245  23691021.107    23691036.716
       216.000         155.000
  21865799.929   -19229075.19949 -14971618.42447  21865799.302    21865809.709
       231.000         188.000
  20407646.063   -23229220.06649 -17571070.90948  20407645.841    20407654.944
       244.000         214.000
  24044108.327      295440.28149    567914.74245  24044107.701    24044120.960
       206.000         148.000
 00  3 12  2  3 30.0000000  0  7G17G30G23G22G26G 6G10
  21014122.022   -24172516.18249 -17940896.99747  21014120.887    21014131.132
       244.000         212.000
  24081596.850      -21060.23449      4787.72145  24081597.377    24081616.235
       217.000         161.000
  21598674.103   -22255973.44049 -17295551.95847  21598673.010    21598684.936
       241.000         204.000
  23686470.194    -8103357.74549  -5803134.13345  23686469.089    23686485.085
       215.000         155.000
  21860570.050   -19256557.83149 -14993033.33247  21860569.483    21860579.926
       231.000         188.000
  20412767.072   -23202308.97549 -17550101.22148  20412766.686    20412775.816
       244.000         214.000
  24063163.135      395574.34149    645941.31045  24063161.940    24063176.194
       204.000         147.000
 00  3 12  2  4  0.0000000  0  7G17G30G23G22G26G 6G10
  21009314.131   -24197781.48549 -17960584.15847  21009313.085    21009323.534
       244.000         212.000
  24100310.809       77281.45949     81417.34845  24100311.861    24100331.047
       215.000         160.000
  21586860.640   -22318052.84549 -17343925.35947  21586859.718    21586871.471
       241.000         204.000
  23682017.103    -8126758.62549  -5821368.44845  23682015.492    23682031.862
       215.000         154.000
  21855452.397   -19283450.85649 -15013988.81247  21855451.965    21855462.131
       231.000         188.000
  20417978.779   -23174921.39949 -17528760.23748  20417978.638    20417987.458
       245.000         214.000
  24082219.087      495714.67049    723972.74845  24082218.277    24082230.866
       202.000         143.000
 00  3 12  2  4 30.0000000  0  7G17G30G23G22G26G 6G10
  21004539.357   -24222872.76249 -17980135.71447  21004538.501    21004548.759
       244.000         212.000
  24119021.464      175605.47849    158033.19745  24119022.658    24119040.429
       214.000         159.000
  21575118.741   -22379756.33349 -17392005.84547  21575117.657    21575129.519
       241.000         204.000
  23677663.896    -8149634.36349  -5839193.55745  23677662.415    23677678.725
       216.000         154.000
  21850443.981   -19309769.92949 -15034497.06147  21850443.633    21850454.020
       232.000         188.000
  20423284.542   -23147039.37049 -17507033.96448  20423284.364    20423293.350
       245.000         214.000
  24101277.252      595866.71149    802013.33745  24101276.533    24101288.782
       204.000         141.000
 00  3 12  2  5  0.0000000  0  7G17G30G23G22G26G 6G10
  20999797.735   -24247789.84449 -17999551.52947  20999796.653    20999806.823
       244.000         212.000
  24137728.423      273909.30049    234633.32045  24137729.677    24137747.981
       211.000         157.000
  21563443.834   -22441107.76749 -17439811.99747  21563442.629    21563454.584
       241.000         205.000
  23673409.953    -8171988.31649  -5856612.08145  23673408.840    23673424.607
       214.000         154.000
  21845546.791   -19335504.43849 -15054549.80147  21845546.463    21845556.733
       232.000         188.000
  20428689.119   -23118638.22949 -17484903.19348  20428688.633    20428697.595
       244.000         214.000
  24120342.610      696055.97549    880082.90945  24120342.314    24120355.150
       205.000         140.000
 00  3 12  2  5 30.0000000  0  7G17G30G23G22G26G 6G10
  20995089.198   -24272532.92449 -18018831.75547  20995088.173    20995098.341
       244.000         212.000
  24156432.406      372198.10449    311221.72745  24156433.249    24156451.791
       210.000         154.000
  21551835.940   -22502107.18149 -17487343.85947  21551834.875    21551846.635
       241.000         205.000
  23669255.074    -8193821.29649  -5873624.65145  23669253.417    23669269.388
       213.000         154.000
  21840763.420   -19360640.63949 -15074136.34147  21840762.735    21840773.202
       232.000         188.000
  20434196.901   -23089694.42449 -17462349.56448  20434196.450    20434205.549
       244.000         214.000
  24139418.409      796299.87549    958195.05445  24139416.580    24139430.859
       207.000         141.000
 00  3 12  2  6  0.0000000  0  7G17G30G23G22G26G 6G10
  20990413.954   -24297101.31249 -18037975.86447  20990412.940    20990423.161
       245.000         212.000
  24175134.579      470478.17249    387803.33445  24175135.142    24175154.910
       208.000         153.000
  21540297.866   -22562739.85549 -17534589.94347  21540296.853    21540308.197
       241.000         205.000
  23665198.790    -8215136.53549  -5890233.79245  23665198.094    23665213.702
       214.000         154.000
  21836091.027   -19385193.17349 -15093268.06447  21836090.769    21836100.803
       232.000         188.000
  20439807.418   -23060210.90649 -17439375.38048  20439806.916    20439816.069
       244.000         214.000
  24158502.755      896588.51449   1036342.10545  24158501.877    24158515.895
       209.000         141.000
 00  3 12  2  6 30.0000000  0  8G17G30G23G22G26G 6G21G10
  20985771.832   -24321495.47349 -18056984.21147  20985770.983    20985780.927
       244.000         212.000
  24193832.816      568737.80849    464369.01545  24193833.288    24193852.058
       207.000         151.000
  21528831.854   -22622993.19949 -17581540.44947  21528830.811    21528842.262
       241.000         205.000
  23661240.107    -8235939.11149  -5906443.45745  23661239.455    23661255.711
       215.000         155.000
  21831528.660   -19409168.14249 -15111949.74547  21831528.557    21831538.190
       232.000         188.000
  20445519.404   -23030193.98149 -17415985.55448  20445519.192    20445528.175
       244.000         214.000
                   -318020.60449   -233327.69643
       206.000          74.000
  24177595.385      996920.81749   1114523.16245  24177594.310    24177607.534
       210.000         141.000
 00  3 12  2  7  0.0000000  0  8G17G30G23G22G26G 6G21G10
  20981163.006   -24345714.71349 -18075856.26247  20981162.004    20981171.986
       245.000         212.000
  24212529.626      666989.16049    540928.23345  24212529.635    24212549.805
       208.000         150.000
  21517443.720   -22682837.69149 -17628172.37347  21517442.684    21517453.908
       241.000         205.000
  23657380.999    -8256218.72749  -5922245.64445  23657378.608    23657395.824
       215.000         155.000
  21827078.754   -19432552.22449 -15130170.99347  21827077.749    21827087.876
       233.000         188.000
  20451332.128   -22999647.95249 -17392183.43448  20451331.808    20451340.973
       244.000         214.000
                   -411518.86649   -306183.87543
       208.000          74.000
  24196695.807     1097294.17149   1192736.23045  24196694.297    24196708.904
       211.000         141.000
 00  3 12  2  7 30.0000000  0  8G17G30G23G22G26G 6G21G10
  20976587.472   -24369758.86649 -18094591.88148  20976586.511    20976596.501
       244.000         213.000
  24231226.540      765241.43049    617488.17245  24231227.420    24231246.934
       208.000         149.000
  21506136.911   -22742254.64849 -17674471.15347  21506135.712    21506147.257
       241.000         205.000
  23653622.882    -8275967.28749  -5937634.00945  23653622.058    23653637.876
       215.000         155.000
  21822741.327   -19455345.03149 -15147931.50647  21822740.681    21822751.060
       232.000         188.000
  20457242.736   -22968587.47149 -17367980.44448  20457242.426    20457251.566
       244.000         214.000
                   -504853.01649   -378914.35143
       207.000          74.000
  24215800.134     1197688.13649   1270965.37645  24215798.571    24215812.062
       212.000         140.000
 00  3 12  2  8  0.0000000  0  8G17G30G23G22G26G 6G21G10
  20972045.271   -24393628.20149 -18113191.27948  20972044.326    20972054.326
       245.000         213.000
  24249922.662      863490.13849    694045.33845  24249923.287    24249942.470
       209.000         148.000
  21494910.826   -22801247.29549 -17720439.30147  21494909.684    21494921.099
       241.000         205.000
  23649967.746    -8295174.99249  -5952600.94245  23649966.899    23649982.446
       215.000         155.000
  21818516.816   -19477544.24849 -15165229.48447  21818516.335    21818526.588
       233.000         189.000
  20463247.500   -22937032.17249 -17343391.88248  20463247.119    20463256.291
       244.000         213.000
                   -598019.638 9    446678.226 1
       208.000
  24234908.242     1298102.16849   1349210.15845  24234906.473    24234920.101
       213.000         141.000
 00  3 12  2  8 30.0000000  0  8G17G30G23G22G26G 6G21G10
  20967536.344   -24417322.34049 -18131654.15048  20967535.147    20967545.254
       244.000         213.000
  24268615.656      961721.76049    770589.19845  24268616.546    24268636.330
       211.000         147.000
  21483763.692   -22859825.09049 -17766084.18847  21483762.621    21483773.855
       241.000         206.000
  23646416.663    -8313834.97449  -5967141.07645  23646414.688    23646431.180
       215.000         154.000
  21814407.228   -19499139.80449 -15182057.08147  21814406.930    21814416.809
       233.000         189.000
  20469343.043   -22904999.80449 -17318431.57748  20469342.679    20469351.595
       244.000         213.000
                   -691008.98449   -247713.97943
       212.000          74.000
  24254023.209     1398552.30849   1427483.06945  24254022.050    24254035.601
       216.000         142.000
 00  3 12  2  9  0.0000000  0  8G17G30G23G22G26G 6G21G10
  20963060.750   -24440841.37349 -18149980.57848  20963059.606    20963069.849
       244.000         213.000
  24287304.388     1059930.63849    847115.34045  24287305.848    24287324.084
       212.000         147.000
  21472692.470   -22918004.22149 -17811418.43347  21472691.345    21472702.807
       241.000         206.000
  23642968.981    -8331952.31949  -5981258.37645  23642968.753    23642983.288
       216.000         154.000
  21810414.128   -19520123.17049 -15198407.64747  21810414.025    21810424.173
       233.000         189.000
  20475527.111   -22872502.09349 -17293108.67248  20475526.648    20475535.757
       244.000         213.000
                   -783828.02249   -320039.88744                  24695019.999
       212.000         113.000
  24273144.212     1499034.11349   1505780.65545  24273142.963    24273156.128
       215.000         143.000
 00  3 12  2  9 30.0000000  0  8G17G30G23G22G26G 6G21G10
  20958618.631   -24464184.21849 -18168169.72048  20958617.431    20958627.542
       245.000         213.000
  24305985.349     1158098.39449    923609.44645  24305986.516    24306004.854
       215.000         147.000
  21461695.239   -22975794.64949 -17856449.79247  21461694.118    21461705.569
       241.000         206.000
  23639622.508    -8349538.02649  -5994961.40745  23639621.301    23639637.013
       217.000         155.000
  21806536.751   -19540498.46449 -15214284.39647  21806536.539    21806546.402
       233.000         189.000
  20481799.740   -22839538.95549 -17267423.09248  20481799.415    20481808.407
       244.000         213.000
  24677361.774     -876486.78449   -392241.02645  24677360.389    24677382.485
       214.000         138.000
  24292271.909     1599551.16849   1584105.70545  24292270.111    24292283.459
       216.000         143.000
 00  3 12  2 10  0.0000000  0  8G17G30G23G22G26G 6G21G10
  21254001.278   -22911937.41249 -16958626.67748  21254000.182    21254010.186
       244.000         213.000
  24624444.416     2831610.86249   2227644.88445  24624445.221    24624464.353
       216.000         146.000
  21750560.780   -21457795.41249 -16673593.10047  21750559.711    21750570.961
       241.000         206.000
  23936164.279    -6791200.28949  -4780672.16045  23936164.188    23936178.691
       215.000         155.000
  22102564.763   -17984860.22849 -14002098.65747  22102564.263    22102574.220
       233.000         189.000
  20787950.537   -21230705.77549 -16013786.83448  20787950.172    20787959.204
       244.000         213.000
  24959549.586      606421.69449    763272.66845  24959547.415    24959571.142
       215.000         141.000
  24611194.521     3275501.34549   2890040.99245  24611193.195    24611207.550
       215.000         143.000
 00  3 12  2 10 30.0000000  0  8G17G30G23G22G26G 6G21G10
  21249625.414   -22934932.33549 -16976544.71248  21249624.321    21249634.295
       245.000         213.000
  24643098.300     2929636.48649   2304028.25345  24643098.668    24643118.303
       217.000         146.000
  21739706.111   -21514836.40549 -16718040.48847  21739705.005    21739716.243
       241.000         206.000
  23933007.856    -6807786.78649  -4793596.58845  23933006.774    23933021.651
       217.000         154.000
  22098917.351   -18004027.25749 -14017033.89747  22098917.078    22098927.077
       235.000         189.000
  20794399.550   -21196816.07449 -15987379.25748  20794399.247    20794408.064
       245.000         213.000
  24941972.967      514057.45649    691301.12245  24941970.523    24941994.431
       212.000         140.000
  24630324.580     3376030.77949   2968375.70045  24630323.522    24630336.831
       216.000         144.000
 00  3 12  2 11  0.0000000  0  8G17G30G23G22G26G 6G21G10
  21245283.443   -22957749.34949 -16994324.10648  21245282.547    21245292.476
       245.000         213.000
  24661742.130     3027609.33949   2380370.49745  24661742.881    24661761.575
       220.000         146.000
  21728927.245   -21571479.31949 -16762177.68347  21728926.207    21728937.427
       241.000         206.000
  23929946.519    -6823874.11849  -4806132.05845  23929945.174    23929961.448
       215.000         154.000
  22095390.017   -18022563.04649 -14031477.27247  22095389.810    22095399.090
       234.000         189.000
  20800942.815   -21162430.78949 -15960585.51348  20800942.517    20800951.533
       244.000         213.000
  24924426.014      421849.24649    619451.16145  24924424.120    24924446.838
       213.000         140.000
  24649452.167     3476546.87549   3046700.01645  24649450.970    24649464.257
       215.000         144.000
 00  3 12  2 11 30.0000000  0  8G17G30G23G22G26G 6G21G10
  21240975.216   -22980388.93349 -17011965.25148  21240974.140    21240983.988
       244.000         213.000
  24680377.629     3125537.64649   2456678.06445  24680377.830    24680396.304
       219.000         145.000
  21718227.848   -21627704.43849 -16805989.32147  21718226.854    21718238.000
       241.000         206.000
  23926984.994    -6839436.09149  -4818258.16745  23926984.004    23926999.527
       215.000         154.000
  22091982.937   -18040467.21449 -14045428.46647  22091982.519    22091992.538
       234.000         189.000
  20807583.595   -21127533.21849 -15933392.58248  20807583.370    20807592.263
       244.000         213.000
  24906910.648      329807.16349    547730.66545  24906909.046    24906930.920
       214.000         141.000
  24668578.526     3577056.35349   3125019.18345  24668577.459    24668589.921
       215.000         144.000
 00  3 12  2 12  0.0000000  0  8G17G30G23G22G26G 6G21G10
  21236700.696   -23002851.24749 -17029468.27248  21236699.579    21236709.395
       245.000         213.000
  24699006.026     3223429.27549   2532957.02445  24699006.574    24699025.839
       219.000         146.000
  21707607.877   -21683512.16049 -16849475.71747  21707606.767    21707617.639
       241.000         207.000
  23924127.857    -6854450.10349  -4829957.29045  23924126.922    23924142.712
       215.000         154.000
  22088698.179   -18057728.29949 -14058878.55347  22088698.202    22088707.426
       234.000         189.000
  20814324.194   -21092111.02049 -15905790.85447  20814323.813    20814332.797
       244.000         212.000
  24889430.929      237952.40649    476156.13645  24889428.327    24889450.572
       212.000         141.000
  24687703.517     3677558.92349   3203332.93745  24687701.610    24687716.072
       212.000         144.000
 00  3 12  2 12 30.0000000  0  8G17G30G23G22G26G 6G21G10
  21232459.957   -23025136.20449 -17046833.09648  21232458.955    21232468.802
       244.000         213.000
  24717629.437     3321295.32249   2609216.04645  24717630.191    24717648.828
       217.000         147.000
  21697068.541   -21738896.01149 -16892631.82447  21697067.593    21697078.453
       242.000         207.000
  23921378.435    -6868897.88649  -4841215.20145  23921377.075    23921393.200
       214.000         154.000
  22085534.830   -18074351.39949 -14071831.51147  22085534.493    22085543.971
       234.000         189.000
  20821168.747   -21056142.58249 -15877763.48147  20821168.345    20821177.295
       244.000         212.000
  24871989.184      146297.42549    404737.25045  24871986.492    24872009.017
       214.000         142.000
  24706830.545     3778072.14649   3281654.99245  24706828.698    24706841.948
       209.000         143.000
 00  3 12  2 13  0.0000000  0  8G17G30G23G22G26G 6G21G10
  21228252.878   -23047244.13149 -17064059.97748  21228251.937    21228261.756
       244.000         213.000
  24736248.314     3419137.37249   2685456.37845  24736249.071    24736269.117
       217.000         148.000
  21686609.917   -21793856.10449 -16935457.73047  21686608.973    21686619.858
       242.000         207.000
  23918740.752    -6882758.42849  -4852015.52145  23918738.812    23918754.274
       214.000         153.000
  22082487.784   -18090363.19549 -14084308.13347  22082487.732    22082497.339
       235.000         189.000
  20828117.625   -21019625.97549 -15849308.97047  20828117.294    20828126.291
       244.000         212.000
  24854584.464       54837.12049    333470.09345  24854582.521    24854604.962
       213.000         143.000
  24725964.881     3878623.82649   3360007.03745  24725963.312    24725977.452
       207.000         143.000
 00  3 12  2 13 30.0000000  0  8G17G30G23G22G26G 6G21G10
  20924286.794   -24644596.35549 -18308749.93248  20924285.738    20924295.591
       245.000         213.000
  24455065.507     1941510.99849   1534058.95445  24455066.949    24455086.535
       217.000         149.000
  21376435.467   -23423833.28449 -18205569.68047  21376434.432    21376445.177
       242.000         207.000
  23616418.587    -8471471.55449  -6089973.70245  23616416.735    23616433.309
       213.000         153.000
  21779761.305   -19681201.59449 -15323922.36647  21779761.145    21779770.956
       234.000         190.000
  20535376.900   -22557988.70049 -17048033.15547  20535376.435    20535385.393
       244.000         212.000
  24537422.408    -1611858.94049   -965253.51945  24537419.938    24537442.143
       213.000         144.000
  24445312.461     2403785.94849   2210782.77745  24445310.624    24445323.265
       206.000         141.000
 00  3 12  2 14  0.0000000  0  8G17G30G23G22G26G 6G21G10
  20920147.143   -24666349.87249 -18325700.63348  20920146.084    20920155.924
       244.000         213.000
  24473663.214     2039241.72049   1610212.54245  24473664.994    24473683.049
       215.000         149.000
  21366124.166   -23478018.98749 -18247792.16847  21366123.131    21366134.002
       242.000         207.000
  23613986.631    -8484250.75849  -6099931.42845  23613985.298    23614000.245
       214.000         153.000
  21776937.564   -19696040.05349 -15335484.69747  21776936.920    21776946.612
       234.000         190.000
  20542525.436   -22520422.76149 -17018760.97947  20542524.806    20542533.855
       244.000         212.000
  24520083.741    -1702971.76849  -1036249.91945  24520081.171    24520103.646
       212.000         145.000
  24464450.844     2504359.18849   2289151.59045  24464450.154    24464462.011
       206.000         141.000
 00  3 12  2 14 30.0000000  0  8G17G30G23G22G26G 6G21G10
  20916041.466   -24687925.04749 -18342512.37448  20916040.397    20916050.321
       244.000         213.000
  24492246.406     2136895.99949   1686306.54545  24492246.521    24492266.691
       214.000         149.000
  21355884.055   -23531830.43549 -18289723.02747  21355883.330    21355894.013
       242.000         208.000
  23611648.040    -8496540.27649  -6109507.59545  23611645.898    23611662.798
       214.000         153.000
  21774220.611   -19710316.99349 -15346609.48447  21774220.201    21774230.125
       234.000         190.000
  20549765.738   -22482374.68749 -16989113.11747  20549765.603    20549774.536
       243.000         212.000
  24502770.076    -1793952.68049  -1107143.51745  24502767.677    24502790.984
       210.000         145.000
  24483585.323     2604912.49349   2367504.86245  24483583.478    24483598.283
       204.000         140.000
 00  3 12  2 15  0.0000000  0  8G17G30G23G22G26G 6G21G10
  20911969.752   -24709321.71349 -18359185.01948  20911968.885    20911978.674
       244.000         213.000
  24510811.740     2234456.60649   1762327.56945  24510812.218    24510831.858
       213.000         149.000
  21345714.709   -23585270.21049 -18331364.27447  21345713.950    21345724.636
       243.000         208.000
  23609399.414    -8508356.45949  -6118714.93645  23609398.054    23609413.916
       213.000         153.000
  21771613.498   -19724017.02649 -15357284.73947  21771613.206    21771623.112
       234.000         190.000
  20557092.313   -22443873.18349 -16959111.93447  20557092.051    20557100.926
       242.000         212.000
  24485482.356    -1884797.65049  -1177931.21545  24485479.995    24485501.637
       209.000         145.000
  24502713.566     2705431.99149   2445831.83345  24502712.485    24502726.314
       202.000         138.000
 00  3 12  2 15 30.0000000  0  8G17G30G23G22G26G 6G21G10
  20907931.853   -24730540.94649 -18375719.39348  20907930.891    20907940.544
       245.000         213.000
  24529358.043     2331916.93449   1838270.44045  24529359.268    24529378.715
       212.000         149.000
  21335615.736   -23638340.15649 -18372717.33547  21335614.661    21335625.544
       243.000         208.000
  23607235.686    -8519726.09749  -6127574.32545  23607235.201    23607250.396
       214.000         153.000
  21769120.361   -19737118.15349 -15367493.30747  21769119.712    21769129.780
       234.000         189.000
  20564500.652   -22404941.95649 -16928775.90047  20564500.223    20564509.386
       243.000         212.000
  24468220.914    -1975504.82649  -1248611.52945  24468218.905    24468240.281
       209.000         144.000
  24521829.772     2805889.03349   2524110.14645  24521828.961    24521841.312
       196.000         135.000
 00  3 12  2 16  0.0000000  0  8G17G30G23G22G26G 6G21G10
  20903928.004   -24751580.97949 -18392114.14548  20903926.953    20903936.752
       244.000         213.000
  24547886.017     2429281.42649   1914138.64545  24547885.782    24547906.588
       208.000         147.000
  21325590.335   -23691023.34549 -18413769.03147  21325589.332    21325600.299
       243.000         208.000
  23605161.550    -8530625.34149  -6136067.19145  23605160.218    23605175.654
       214.000         153.000
  21766742.001   -19749615.92649 -15377231.73947  21766741.728    21766750.971
       234.000         189.000
  20571990.176   -22365584.28549 -16898107.57347  20571989.698    20571998.668
       243.000         212.000
  24450985.305    -2066077.22749  -1319186.82945  24450983.896    24451004.083
       206.000         144.000
  24540935.941     2906293.32149   2602347.36945  24540933.355    24540947.423
       200.000         135.000
 00  3 12  2 16 30.0000000  0  8G17G30G23G22G26G 6G21G10
  20899958.187   -24772441.85249 -18408369.29348  20899957.131    20899966.947
       244.000         213.000
  24566395.454     2526548.26549   1989930.73245  24566396.827    24566415.209
       208.000         146.000
  21315643.295   -23743294.90149 -18454499.97647  21315642.308    21315653.174
       243.000         209.000
  23603185.763    -8541008.01149  -6144157.51045  23603185.035    23603200.207
       215.000         155.000
  21764483.315   -19761484.93549 -15386480.22547  21764483.002    21764492.713
       234.000         190.000
  20579565.600   -22325775.00249 -16867087.34547  20579565.154    20579574.471
       244.000         212.000
  24433781.534    -2156480.91949  -1389630.65445  24433778.627    24433800.844
       207.000         143.000
  24560039.148     3006681.44649   2680571.98945  24560037.630    24560050.939
       198.000         135.000
 00  3 12  2 17  0.0000000  0  8G17G30G23G22G26G 6G21G10
  20896022.570   -24793123.51749 -18424484.79848  20896021.605    20896031.437
       245.000         213.000
  24584888.943     2623731.36349   2065657.58045  24584888.146    24584909.405
       205.000         144.000
  21305773.350   -23795161.10149 -18494915.05747  21305772.391    21305783.302
       243.000         209.000
  23601310.163    -8550864.46449  -6151837.81745  23601309.354    23601325.248
       217.000         155.000
  21762347.420   -19772708.78649 -15395225.99347  21762347.221    21762356.533
       234.000         190.000
  20587231.318   -22285491.41749 -16835697.53047  20587231.146    20587239.993
       244.000         211.000
  24416612.796    -2246701.12649  -1459931.53145  24416611.042    24416631.861
       206.000         144.000
  24579142.171     3107069.43649   2758796.47445  24579140.345    24579153.709
       202.000         137.000
 00  3 12  2 17 30.0000000  0  7G17G30G23G22G26G 6G21
  20897674.158   -24784444.06849 -18417721.50448  20897673.042    20897682.851
       244.000         213.000
  24608920.736     2750018.85749   2164063.17745  24608920.859    24608941.895
       206.000         144.000
  21301533.058   -23817443.35049 -18512277.70847  21301532.036    21301542.878
       243.000         209.000
  23605090.818    -8530996.92549  -6136356.56045  23605089.826    23605105.562
       214.000         156.000
  21765883.259   -19754127.36849 -15380746.86847  21765883.063    21765892.464
       234.000         189.000
  20600543.559   -22215535.12449 -16781186.12447  20600543.221    20600552.133
       244.000         212.000
  24405030.731    -2307562.85649  -1507355.64145  24405027.061    24405049.030
       204.000         143.000
 00  3 12  2 18  0.0000000  0  7G17G30G23G22G26G 6G21
  20897311.058   -24786351.69549 -18419207.89548  20897310.053    20897319.726
       245.000         213.000
  24630888.552     2865460.34849   2254017.33645  24630889.410    24630909.263
       205.000         143.000
  21295321.359   -23850085.63149 -18537713.11147  21295320.486    21295331.083
       243.000         209.000
  23606929.734    -8521332.90849  -6128826.12145  23606928.663    23606943.885
       214.000         156.000
  21767486.369   -19745702.62249 -15374182.03847  21767485.933    21767495.925
       234.000         189.000
  20611903.754   -22155836.78349 -16734667.93347  20611903.316    20611912.454
       243.000         211.000
  24391437.099    -2378994.94349  -1563016.42945  24391435.700    24391455.659
       207.000         145.000
 00  3 12  2 18 30.0000000  0  7G17G30G23G22G26G 6G21
  20895650.045   -24795080.09849 -18426009.17148  20895649.143    20895658.750
       245.000         213.000
  24651511.506     2973833.54449   2338463.71445  24651512.013    24651532.420
       206.000         144.000
  21287856.122   -23889315.21949 -18568281.48047  21287855.175    21287865.768
       244.000         210.000
  23607544.392    -8518102.42949  -6126308.82845  23607542.908    23607559.061
       215.000         156.000
  21767873.666   -19743667.15749 -15372595.86547  21767872.875    21767882.671
       234.000         189.000
  20622032.061   -22102612.00749 -16693194.07947  20622031.804    20622040.909
       243.000         211.000
  24376553.250    -2457207.81249  -1623960.91445  24376551.335    24376571.317
       209.000         148.000
 00  3 12  2 19  0.0000000  0  7G17G30G23G22G26G 6G21
  20893294.956   -24807455.93349 -18435652.60848  20893294.093    20893303.773
       245.000         213.000
  24671391.795     3078303.89849   2419868.94545  24671391.911    24671413.730
       206.000         144.000
  21279741.667   -23931956.44849 -18601508.27347  21279740.872    21279751.294
       244.000         210.000
  23607535.515    -8518148.98549  -6126345.06745  23607534.994    23607550.309
       215.000         156.000
  21767644.888   -19744868.82249 -15373532.13647  21767644.763    21767653.869
       235.000         189.000
  20631530.674   -22052696.42449 -16654298.81747  20631530.459    20631539.646
       244.000         211.000
  24360977.377    -2539057.08149  -1687738.98145  24360975.498    24360995.794
       211.000         151.000
 00  3 12  2 19 30.0000000  0  7G17G30G23G22G26G 6G21
  20890577.702   -24821734.79849 -18446778.93048  20890576.625    20890586.157
       245.000         213.000
  24690858.247     3180600.15649   2499580.07145  24690858.514    24690878.927
       206.000         144.000
  21271311.736   -23976255.49549 -18636026.86747  21271310.678    21271321.229
       244.000         210.000
  23607233.497    -8519736.22149  -6127581.83445  23607232.233    23607248.002
       215.000         157.000
  21767131.701   -19747565.33249 -15375633.22547  21767131.788    21767140.597
       234.000         190.000
  20640730.358   -22004351.83149 -16616627.69947  20640730.160    20640739.191
       243.000         211.000
  24345039.630    -2622808.23649  -1752999.04245  24345037.691    24345057.603
       211.000         153.000
 00  3 12  2 20  0.0000000  0  7G17G30G23G22G26G 6G21
  20887679.943   -24836962.26049 -18458644.43248  20887678.981    20887688.625
       245.000         213.000
  24710093.628     3281682.22949   2578345.06245  24710093.708    24710115.167
       208.000         144.000
  21262748.381   -24021255.87249 -18671091.95647  21262747.346    21262757.967
       244.000         210.000
  23606815.476    -8521932.43249  -6129293.12545  23606813.963    23606830.226
       215.000         157.000
  21766519.298   -19750783.12749 -15378140.50547  21766519.162    21766528.524
       234.000         190.000
  20649811.992   -21956627.65049 -16579440.01947  20649811.653    20649820.691
       244.000         211.000
  24328921.078    -2707509.51349  -1818999.46945  24328919.200    24328938.802
       214.000         156.000
 00  3 12  2 20 30.0000000  0  7G17G30G23G22G26G 6G21
  20884702.864   -24852606.80349 -18470834.92248  20884701.952    20884711.625
       245.000         214.000
  24729196.941     3382069.05249   2656568.34545  24729197.863    24729218.780
       208.000         144.000
  21254149.124   -24066444.72949 -18706303.90847  21254148.099    21254158.822
       243.000         210.000
  23606378.573    -8524228.53149  -6131082.25345  23606378.154    23606392.085
       215.000         157.000
  21765909.877   -19753985.48549 -15380635.75947  21765909.295    21765919.098
       234.000         190.000
  20658873.809   -21909007.54449 -16542333.44047  20658873.420    20658882.469
       243.000         211.000
  24312715.101    -2792670.10749  -1885357.81945  24312712.359    24312732.820
       215.000         157.000
 00  3 12  2 21  0.0000000  0  7G17G30G23G22G26G 6G21
  20881702.572   -24868373.30749 -18483120.44448  20881701.629    20881711.050
       245.000         214.000
  24748219.804     3482033.57549   2734462.53345  24748220.503    24748240.814
       206.000         144.000
  21245566.231   -24111547.47049 -18741448.76447  21245565.191    21245575.825
       243.000         210.000
  23605973.724    -8526355.86149  -6132739.87945  23605972.415    23605988.079
       215.000         157.000
  21765360.392   -19756872.42149 -15382885.22947  21765360.375    21765369.063
       234.000         190.000
  20667967.876   -21861217.69549 -16505094.59347  20667967.594    20667976.524
       243.000         210.000
  24296476.522    -2878002.10849  -1951849.72845  24296474.461    24296494.615
       218.000         159.000
 00  3 12  2 21 30.0000000  0  7G17G30G23G22G26G 6G21
  20878705.049   -24884125.10249 -18495394.50048  20878704.034    20878713.546
       244.000         214.000
  24767191.837     3581731.28649   2812148.83245  24767192.899    24767213.328
       207.000         144.000
  21237025.974   -24156426.25449 -18776419.10647  21237024.944    21237035.277
       243.000         210.000
  23605629.832    -8528162.95249  -6134147.97045  23605628.523    23605644.123
       215.000         157.000
  21764899.984   -19759291.62649 -15384770.23247  21764899.953    21764908.633
       234.000         190.000
  20677120.940   -21813118.05649 -16467614.35547  20677120.557    20677129.567
       243.000         210.000
  24280240.301    -2963321.80749  -2018332.06345  24280238.481    24280258.089
       217.000         159.000
 00  3 12  2 22  0.0000000  0  7G17G30G23G22G26G 6G21
  20875722.271   -24899799.32749 -18507608.10248  20875721.339    20875730.875
       244.000         214.000
  24786125.650     3681228.51249   2889678.89945  24786126.172    24786147.290
       207.000         146.000
  21228539.043   -24201024.60749 -18811170.93147  21228537.849    21228548.429
       243.000         210.000
  23605361.092    -8529574.98549  -6135248.19145  23605360.329    23605375.361
       214.000         157.000
  21764542.657   -19761169.02049 -15386233.03847  21764542.541    21764551.568
       235.000         190.000
  20686343.335   -21764653.92749 -16429850.09947  20686342.953    20686352.057
       243.000         210.000
  24264021.122    -3048551.75249  -2084744.45945  24264019.019    24264038.320
       217.000         158.000
 00  3 12  2 22 30.0000000  0  7G17G30G23G22G26G 6G21
  20872759.438   -24915368.81449 -18519740.10248  20872758.370    20872767.940
       244.000         214.000
  24805023.630     3780537.20749   2967062.08445  24805024.399    24805045.582
       211.000         146.000
  21220112.012   -24245308.11149 -18845677.41847  21220111.043    21220121.420
       243.000         211.000
  23605176.920    -8530542.37449  -6136001.97345  23605175.207    23605190.785
       214.000         157.000
  21764293.195   -19762479.50549 -15387254.09747  21764292.934    21764302.089
       234.000         190.000
  20695638.824   -21715805.75449 -16391786.59547  20695638.498    20695647.398
       243.000         210.000
  24247826.949    -3133650.39149  -2151054.53345  24247825.250    24247843.355
       218.000         158.000
 00  3 12  2 23  0.0000000  0  6G17G23G22G26G 6G21
  20869818.241   -24930824.46849 -18531783.39848  20869817.286    20869826.901
       244.000         214.000
  21211751.391   -24289242.96049 -18879912.22847  21211750.491    21211760.795
       243.000         211.000
  23605083.634    -8531032.39449  -6136383.73645  23605082.272    23605097.654
       212.000         156.000
  21764155.307   -19763203.52349 -15387818.17547  21764154.909    21764164.726
       234.000         190.000
  20705011.551   -21666551.87849 -16353406.95147  20705011.209    20705020.359
       243.000         210.000
  24231667.336    -3218567.97049  -2217223.52645  24231665.237    24231684.750
       218.000         157.000
 00  3 12  2 23 30.0000000  0  6G17G23G22G26G 6G21
  20866897.472   -24946172.92349 -18543743.15548  20866896.528    20866905.993
       245.000         214.000
  21203457.012   -24332829.53449 -18913875.65147  21203455.923    21203466.102
       244.000         211.000
  23605082.748    -8531036.34349  -6136386.77245  23605082.242    23605096.811
       213.000         156.000
  21764127.784   -19763347.89549 -15387930.57947  21764127.598    21764136.572
       235.000         190.000
  20714460.943   -21616895.07949 -16314713.34147  20714460.577    20714469.515
       243.000         210.000
  24215537.517    -3303328.57249  -2283270.19845  24215535.384    24215554.447
       217.000         156.000
 00  3 12  2 24  0.0000000  0  6G17G23G22G26G 6G21
  20863996.803   -24961415.77449 -18555620.61848  20863995.796    20864005.343
       245.000         214.000
  21195227.754   -24376073.99349 -18947572.49347  21195226.800    21195237.016
       243.000         211.000
  23605171.732    -8530568.59049  -6136022.26045  23605170.890    23605186.145
       214.000         156.000
  21764208.928   -19762921.09449 -15387597.92047  21764208.392    21764217.773
       234.000         190.000
  20723987.822   -21566830.84449 -16275702.25147  20723987.532    20723996.509
       243.000         210.000
  24199431.194    -3387965.75849  -2349220.72345  24199428.854    24199448.507
       215.000         154.000
 00  3 12  2 24 30.0000000  0  6G17G23G22G26G 6G21
  20861119.484   -24976535.80449 -18567402.37848  20861118.448    20861127.904
       245.000         214.000
  21187069.036   -24418948.05249 -18980980.71447  21187068.008    21187078.450
       243.000         211.000
  23605351.261    -8529625.17549  -6135287.08045  23605350.286    23605366.277
       214.000         156.000
  21764399.291   -19761920.23949 -15386817.94347  21764399.000    21764408.155
       234.000         190.000
  20733599.882   -21516319.23349 -16236342.56047  20733599.598    20733608.525
       243.000         210.000
  24183353.122    -3472454.12649  -2415055.27045  24183351.014    24183368.700
       214.000         151.000
 00  3 12  2 25  0.0000000  0  6G17G23G22G26G 6G21
  20858269.228   -24991513.74649 -18579073.42448  20858268.201    20858277.844
       244.000         214.000
  21178983.975   -24461434.66849 -19014087.02947  21178983.025    21178993.243
       243.000         211.000
  23605621.545    -8528204.50649  -6134180.00145  23605620.819    23605636.008
       215.000         157.000
  21764703.283   -19760322.47049 -15385572.84247  21764702.870    21764712.046
       234.000         190.000
  20743305.047   -21465318.09949 -16196601.41647  20743304.599    20743313.438
       242.000         210.000
  24167306.120    -3556779.09049  -2480762.49345  24167304.024    24167323.126
       213.000         148.000
 00  3 12  2 25 30.0000000  0  6G17G23G22G26G 6G21
  20855451.867   -25006318.70549 -18590609.67748  20855450.962    20855460.366
       245.000         214.000
  21170976.502   -24503513.66749 -19046875.72547  21170975.599    21170985.661
       244.000         211.000
  23605984.078    -8526299.74049  -6132695.72345  23605982.728    23605998.892
       214.000         157.000
  21765123.543   -19758113.57649 -15383851.53847  21765123.059    21765132.689
       234.000         190.000
  20753109.551   -21413795.09449 -16156453.62647  20753109.161    20753118.108
       243.000         210.000
  24151292.849    -3640926.93449  -2546331.73145  24151291.149    24151309.431
       213.000         146.000
 00  3 12  2 26  0.0000000  0  6G17G23G22G26G 6G21
  20852671.263   -25020930.70349 -18601995.56348  20852670.237    20852679.710
       245.000         214.000
  21163051.817   -24545157.69649 -19079325.47947  21163050.825    21163060.954
       243.000         211.000
  23606439.310    -8523907.08349  -6130831.27445  23606438.113    23606453.818
       215.000         157.000
  21765663.177   -19755277.24649 -15381641.33047  21765662.595    21765671.775
       234.000         190.000
  20763017.471   -21361728.53649 -16115882.28247  20763017.452    20763026.277
       243.000         210.000
  24135319.012    -3724867.80249  -2611739.68245  24135316.948    24135334.470
       213.000         147.000
 00  3 12  2 26 30.0000000  0  6G17G23G22G26G 6G21
  20849931.953   -25035325.43649 -18613212.14948  20849930.973    20849940.177
       245.000         215.000
  21155211.765   -24586356.66049 -19111428.43647  21155210.772    21155220.849
       244.000         211.000
  23606989.778    -8521014.08049  -6128576.96245  23606988.262    23607003.883
       214.000         158.000
  21766326.363   -19751792.26249 -15378925.68047  21766325.976    21766335.222
       235.000         190.000
  20773028.968   -21309117.94449 -16074887.02747  20773028.691    20773037.548
       242.000         209.000
  24119387.297    -3808587.27549  -2676975.11745  24119385.437    24119403.384
       213.000         146.000
 00  3 12  2 27  0.0000000  0  6G17G23G22G26G 6G21
  20847236.742   -25049488.76649 -18624248.40348  20847235.419    20847244.857
       245.000         215.000
  21147454.751   -24627119.37749 -19143191.45647  21147453.792    21147463.914
       243.000         211.000
  23607637.754    -8517608.54549  -6125923.26545  23607637.193    23607651.186
       216.000         158.000
  21767116.417   -19747640.30449 -15375690.31247  21767115.929    21767125.306
       235.000         190.000
  20783140.614   -21255980.82249 -16033481.48347  20783140.301    20783148.976
       242.000         209.000
  24103494.594    -3892101.56549  -2742050.70645  24103492.210    24103510.804
       214.000         147.000
 00  3 12  2 27 30.0000000  0  6G17G23G22G26G 6G21
  20844586.682   -25063414.51949 -18635099.55248  20844585.584    20844594.944
       246.000         215.000
  21139780.722   -24667446.24949 -19174614.85547  21139779.795    21139789.805
       244.000         211.000
  23608385.887    -8513677.04549  -6122859.73945  23608384.575    23608400.290
       216.000         158.000
  21768032.016   -19742828.44949 -15371940.74047  21768031.765    21768041.010
       235.000         190.000
  20793347.705   -21202342.10349 -15991685.08647  20793347.425    20793356.476
       243.000         209.000
  24087640.703    -3975412.12649  -2806967.53845  24087638.735    24087657.544
       213.000         148.000
 00  3 12  2 28  0.0000000  0  6G17G23G22G26G 6G21
  20841980.893   -25077107.67849 -18645769.47148  20841979.908    20841989.150
       245.000         215.000
  21132187.008   -24707350.88249 -19205709.23947  21132186.052    21132195.930
       244.000         211.000
  23609236.067    -8509209.45449  -6119378.46945  23609234.937    23609250.526
       216.000         159.000
  21769073.896   -19737353.06649 -15367674.13147  21769073.484    21769082.697
       234.000         190.000
  20803646.076   -21148223.94149 -15949515.09947  20803645.656    20803654.650
       242.000         209.000
  24071823.908    -4058527.57949  -2871732.33845  24071821.325    24071840.514
       213.000         148.000
 00  3 12  2 28 30.0000000  0  6G17G23G22G26G 6G21
  20839415.140   -25090590.40849 -18656275.40848  20839414.224    20839423.420
       245.000         215.000
  21124667.705   -24746864.63049 -19236499.03747  21124666.778    21124676.730
       244.000         212.000
  23610189.378    -8504199.33449  -6115474.44045  23610188.127    23610203.516
       216.000         159.000
  21770239.436   -19731227.79849 -15362901.12447  21770239.407    21770248.513
       235.000         190.000
  20814031.429   -21093648.49649 -15906988.78347  20814031.216    20814040.101
       243.000         209.000
  24056041.046    -4141464.76049  -2936358.24545  24056038.391    24056056.067
       213.000         149.000
 00  3 12  2 29  0.0000000  0  6G17G23G22G26G 6G21
  20836883.426   -25103894.26249 -18666641.95448  20836882.327    20836891.863
       245.000         215.000
  21117220.116   -24786001.66749 -19266995.29547  21117219.033    21117229.133
       244.000         212.000
  23611244.475    -8498654.74849  -6111153.99045  23611242.887    23611258.898
       215.000         159.000
  21771522.740   -19724483.82449 -15357646.00747  21771522.639    21771531.377
       234.000         190.000
  20824501.970   -21038625.67749 -15864113.86647  20824501.677    20824510.667
       242.000         208.000
  24040290.756    -4224231.13349  -3000851.07545  24040288.644    24040307.479
       213.000         150.000
 00  3 12  2 29 30.0000000  0  6G17G23G22G26G 6G21
  20834382.383   -25117037.09349 -18676883.03848  20834381.368    20834390.426
       245.000         215.000
  21109842.978   -24824768.08149 -19297202.75447  21109841.801    21109851.939
       244.000         212.000
  23612399.315    -8492585.78549  -6106424.89945  23612398.287    23612413.222
       216.000         158.000
  21772919.874   -19717141.43649 -15351924.59747  21772919.641    21772928.261
       234.000         190.000
  20835056.766   -20983159.77849 -15820893.68947  20835056.411    20835065.267
       242.000         208.000
  24024574.734    -4306817.96649  -3065204.00145  24024572.984    24024590.276
       213.000         151.000
 00  3 12  2 30  0.0000000  0  6G17G23G22G26G 6G21
  20831908.506   -25130037.19949 -18687012.90148  20831907.511    20831916.717
       245.000         215.000
  21102532.613   -24863183.74249 -19327136.90347  21102531.661    21102541.551
       244.000         212.000
  23613650.180    -8486012.52249  -6101302.85245  23613649.111    23613664.353
       215.000         159.000
  21774431.235   -19709198.58549 -15345735.29147  21774431.015    21774439.898
       234.000         189.000
  20845695.012   -20927255.31149 -15777331.77447  20845694.846    20845703.815
       242.000         208.000
  24008893.321    -4389222.75249  -3129415.07945  24008891.200    24008909.773
       213.000         152.000
 00  3 12  2 30 30.0000000  0  6G17G23G22G26G 6G21
  20829458.168   -25142913.36049 -18697046.18048  20829457.187    20829466.500
       245.000         215.000
  21095288.260   -24901252.68049 -19356800.87947  21095287.117    21095297.003
       244.000         212.000
  23614991.996    -8478961.11749  -6095808.24545  23614991.971    23615007.661
       216.000         159.000
  21776052.708   -19700677.34549 -15339095.29147  21776052.143    21776061.652
       234.000         189.000
  20856416.627   -20870912.87949 -15733428.58647  20856416.353    20856425.312
       242.000         208.000
  23993246.304    -4471446.51349  -3193485.12045  23993244.433    23993262.520
       213.000         153.000
 00  3 12  2 31  0.0000000  0  6G17G23G22G26G 6G21
  20827034.315   -25155650.40449 -18706971.06448  20827033.275    20827042.417
       245.000         215.000
  21088114.343   -24938951.02749 -19386176.08547  21088113.413    21088123.234
       244.000         212.000
  23616422.509    -8471443.55749  -6089950.38645  23616421.472    23616437.439
       215.000         159.000
  21777784.105   -19691578.32549 -15332005.07747  21777783.774    21777793.212
       234.000         189.000
  20867221.563   -20814132.63449 -15689184.24447  20867221.233    20867230.100
       243.000         208.000
  23977636.392    -4553475.18749  -3257403.15745  23977634.629    23977651.395
       214.000         153.000
 00  3 12  2 31 30.0000000  0  6G17G23G22G26G 6G21
  20824639.849   -25168232.95049 -18716775.56548  20824638.892    20824647.912
       245.000         215.000
  21081014.761   -24976259.12049 -19415247.19948  21081013.788    21081023.670
       244.000         213.000
  23617941.115    -8463463.29749  -6083732.00645  23617940.100    23617955.014
       215.000         160.000
  21779629.839   -19681878.49949 -15324446.70147  21779629.476    21779638.100
       234.000         189.000
  20878109.267   -20756917.42849 -15644600.96747  20878108.886    20878117.773
       242.000         207.000
  23962064.742    -4635303.26449  -3321164.90145  23962063.409    23962080.435
       214.000         153.000
 00  3 12  2 32  0.0000000  0  6G17G23G22G26G 6G21
  20822276.210   -25180653.60249 -18726453.91148  20822275.179    20822284.369
       245.000         215.000
  21073993.596   -25013155.22049 -19443997.28348  21073992.678    21074002.374
       245.000         213.000
  23619547.633    -8455020.87549  -6077153.47345  23619546.538    23619561.669
       216.000         160.000
  21781592.777   -19671562.88649 -15316408.49447  21781592.817    21781601.761
       234.000         189.000
  20889081.514   -20699257.83849 -15599671.42147  20889081.260    20889090.061
       242.000         207.000
  23946531.651    -4716928.56849  -3384768.65945  23946530.412    23946547.705
       215.000         154.000
 00  3 12  2 32 30.0000000  0  6G17G23G22G26G 6G21
  20819948.050   -25192887.73149 -18735986.92048  20819947.051    20819956.267
       245.000         215.000
  21067057.781   -25049602.72149 -19472397.81248  21067056.800    21067066.451
       244.000         213.000
  23621244.901    -8446101.38049  -6070203.19145  23621243.873    23621259.066
       215.000         160.000
  21783674.163   -19660624.76749 -15307885.21847  21783673.677    21783683.208
       234.000         189.000
  20900141.151   -20641139.16449 -15554384.14747  20900140.784    20900149.735
       241.000         207.000
  23931037.655    -4798348.32949  -3448212.26745  23931035.639    23931053.442
       214.000         154.000
 00  3 12  2 33  0.0000000  0  6G17G23G22G26G 6G21
  20817661.669   -25204902.34949 -18745348.87948  20817660.563    20817669.873
       245.000         215.000
  21060211.717   -25085578.37849 -19500430.67248  21060210.680    21060220.454
       244.000         213.000
  23623037.707    -8436679.94049  -6062861.78445  23623037.022    23623052.869
       214.000         159.000
  21785879.444   -19649035.62549 -15298854.66247  21785879.789    21785888.515
       234.000         190.000
  20911289.969   -20582551.54549 -15508731.45947  20911289.466    20911298.727
       241.000         207.000
  23915585.923    -4879546.34649  -3511483.08445  23915583.676    23915601.958
       215.000         154.000
 00  3 12  2 33 30.0000000  0  6G17G23G22G26G 6G21
  20815417.707   -25216694.08449 -18754537.17648  20815416.737    20815425.816
       245.000         215.000
  21053454.198   -25121088.83749 -19528101.04548  21053453.178    21053462.931
       244.000         213.000
  23624927.652    -8426748.51749  -6055122.98045  23624926.164    23624942.232
       214.000         158.000
  21788210.391   -19636786.57549 -15289309.88947  21788209.686    21788219.079
       234.000         190.000
  20922532.301   -20523472.61449 -15462695.93247  20922531.893    20922541.005
       241.000         207.000
  23900177.603    -4960516.13349  -3574576.06945  23900175.903    23900192.712
       215.000         156.000
 00  3 12  2 34  0.0000000  0  6G17G23G22G26G 6G21
  20813217.366   -25228256.59749 -18763546.85448  20813216.350    20813225.568
       245.000         215.000
  21046780.623   -25156158.30449 -19555427.78748  21046779.468    21046789.545
       244.000         213.000
  23626915.487    -8416301.81049  -6046982.65645  23626914.867    23626930.148
       215.000         158.000
  21790665.368   -19623885.43549 -15279256.99247  21790665.616    21790674.242
       235.000         190.000
  20933870.348   -20463890.86249 -15416268.59447  20933869.863    20933879.001
       242.000         207.000
  23884814.222    -5041249.86149  -3637485.11745  23884812.798    23884829.454
       216.000         157.000
 00  3 12  2 34 30.0000000  0  6G17G23G22G26G 6G21
  20811061.578   -25239584.90449 -18772374.03648  20811060.573    20811069.794
       245.000         215.000
  21040186.676   -25190809.08249 -19582428.28248  21040185.772    21040195.398
       245.000         213.000
  23629001.171    -8405341.49349  -6038442.11645  23628999.924    23629015.724
       213.000         158.000
  21793241.221   -19610349.14049 -15268709.16847  21793240.863    21793249.597
       233.000         190.000
  20945303.196   -20403810.94349 -15369453.07547  20945302.988    20945311.803
       241.000         207.000
  23869497.525    -5121738.62049  -3700203.28345  23869496.132    23869512.354
       215.000         158.000
 00  3 12  2 35  0.0000000  0  6G17G23G22G26G 6G21
  20808945.743   -25250703.60049 -18781037.89148  20808944.877    20808954.053
       245.000         215.000
  21033665.448   -25225077.94749 -19609131.18448  21033664.447    21033674.010
       245.000         213.000
  23631182.689    -8393877.05149  -6029508.75045  23631181.184    23631197.369
       212.000         158.000
  21795935.941   -19596187.86049 -15257674.34647  21795935.218    21795944.336
       233.000         189.000
  20956830.893   -20343232.44049 -15322249.05347  20956830.398    20956839.652
       241.000         206.000
  23854227.696    -5201980.53149  -3762729.10945  23854225.723    23854243.241
       216.000         158.000
 00  3 12  2 35 30.0000000  0  6G17G23G22G26G 6G21
  20806863.750   -25261644.23449 -18789563.00148  20806862.729    20806872.010
       245.000         215.000
  21027210.573   -25258998.09849 -19635562.36748  21027209.826    21027219.288
       244.000         213.000
  23633456.440    -8381928.28249  -6020197.97545  23633455.469    23633470.395
       214.000         158.000
  21798745.019   -19581425.71649 -15246171.31347  21798744.813    21798753.831
       234.000         189.000
  20968451.457   -20282166.02649 -15274664.84147  20968451.013    20968460.087
       241.000         206.000
  23839002.298    -5281988.80249  -3825072.87345  23839000.643    23839016.972
       216.000         159.000
 00  3 12  2 36  0.0000000  0  6G17G23G22G26G 6G21
  20804811.959   -25272426.38749 -18797964.61148  20804810.949    20804820.061
       245.000         215.000
  21020819.522   -25292582.79049 -19661732.15448  21020818.520    21020828.172
       245.000         213.000
  23635818.988    -8369512.64449  -6010523.42145  23635817.804    23635833.559
       213.000         158.000
  21801666.724   -19566071.70749 -15234207.08347  21801666.111    21801675.289
       233.000         189.000
  20980158.389   -20220645.69249 -15226726.92647  20980158.329    20980166.930
       241.000         206.000
  23823816.983    -5361787.00849  -3887252.96745  23823815.736    23823832.117
       218.000         160.000
 00  3 12  2 36 30.0000000  0  6G17G23G22G26G 6G21
  20802787.211   -25283066.16449 -18806255.28448  20802786.451    20802795.420
       245.000         215.000
  21014494.721   -25325819.39549 -19687630.70448  21014493.709    21014503.344
       244.000         213.000
  23638269.480    -8356634.70149  -6000488.61545  23638268.637    23638283.687
       214.000         158.000
  21804700.373   -19550129.67349 -15221784.65047  21804699.890    21804708.909
       233.000         189.000
  20991949.013   -20158685.50849 -15178446.26447  20991948.536    20991957.671
       241.000         206.000
  23808667.986    -5441394.66849  -3949284.57045  23808665.904    23808682.605
       218.000         162.000
 00  3 12  2 37  0.0000000  0  6G17G23G22G26G 6G21
  20800789.060   -25293566.28749 -18814437.13948  20800788.124    20800797.155
       246.000         215.000
  21008239.363   -25358691.12949 -19713244.94548  21008238.329    21008247.910
       245.000         213.000
  23640807.744    -8343295.88449  -5990094.68145  23640807.190    23640821.578
       215.000         158.000
  21807847.958   -19533588.47749 -15208895.34547  21807847.591    21807856.685
       233.000         189.000
  21003821.807   -20096293.45049 -15129829.08147  21003821.547    21003830.440
       241.000         206.000
  23793550.818    -5520834.49449  -4011185.41246  23793549.678    23793565.385
       220.000         163.000
 00  3 12  2 37 30.0000000  0  6G17G23G22G26G 6G21
  20798823.777   -25303893.60649 -18822484.35048  20798823.014    20798831.797
       246.000         215.000
  21002059.128   -25391168.02149 -19738551.51848  21002058.408    21002067.746
       245.000         213.000
  23643434.801    -8329490.40749  -5979337.13045  23643433.342    23643449.777
       214.000         158.000
  21811113.233   -19516429.07449 -15195524.32147  21811112.901    21811121.890
       233.000         189.000
  21015775.207   -20033478.06349 -15080882.03647  21015775.142    21015784.221
       241.000         205.000
  23778464.933    -5600110.38049  -4072958.49946  23778463.702    23778479.282
       219.000         164.000
 00  3 12  2 38  0.0000000  0  6G17G23G22G26G 6G21
  20796895.486   -25314026.66249 -18830380.17948  20796894.390    20796903.362
       245.000         215.000
  20995958.038   -25423229.05749 -19763534.04748  20995957.031    20995966.699
       245.000         213.000
  23646153.484    -8315203.67349  -5968204.57845  23646153.449    23646167.859
       215.000         158.000
  21814501.080   -19498625.80249 -15181651.58347  21814500.825    21814510.159
       232.000         189.000
  21027810.201   -19970233.67849 -15031600.70447  21027810.100    21027818.891
       240.000         205.000
  23763409.879    -5679223.69149  -4134604.91046  23763408.515    23763424.420
       220.000         164.000
 00  3 12  2 38 30.0000000  0  6G17G23G22G26G 6G21
  20795006.926   -25323950.87949 -18838113.27848  20795005.997    20795014.939
       245.000         215.000
  20989938.866   -25454859.63849 -19788181.16148  20989937.798    20989947.257
       245.000         213.000
  23648967.081    -8300417.87549  -5956683.14845  23648966.041    23648981.264
       214.000         158.000
  21818012.637   -19480172.09749 -15167272.02247  21818012.294    21818021.300
       233.000         189.000
  21039930.890   -19906539.16049 -14981968.62247  21039930.559    21039939.471
       241.000         205.000
  23748387.804    -5758164.02449  -4196116.54346  23748385.735    23748402.534
       220.000         164.000
 00  3 12  2 39  0.0000000  0  6G17G23G22G26G 6G21
  20793160.106   -25333655.88049 -18845675.55048  20793159.275    20793168.036
       246.000         215.000
  20984000.519   -25486065.41149 -19812497.24948  20983999.509    20984008.936
       245.000         214.000
  23651875.481    -8285134.15349  -5944773.73845  23651874.178    23651890.774
       216.000         158.000
  21821649.517   -19461059.69849 -15152379.19547  21821649.167    21821657.738
       232.000         189.000
  21052139.354   -19842383.19449 -14931976.96647  21052139.097    21052147.852
       240.000         205.000
  23733401.273    -5836917.30549  -4257482.41346  23733400.159    23733416.138
       219.000         164.000
 00  3 12  2 39 30.0000000  0  6G17G23G22G26G 6G21
  20791353.366   -25343150.06449 -18853073.54748  20791352.336    20791361.344
       245.000         215.000
  20978139.033   -25516867.16849 -19836498.52448  20978138.327    20978147.623
       245.000         214.000
  23654878.879    -8269351.22549  -5932475.33945  23654877.859    23654894.544
       216.000         158.000
  21825411.422   -19441290.30049 -15136974.41647  21825411.112    21825420.385
       232.000         188.000
  21064436.476   -19777761.40849 -14881622.33647  21064436.014    21064445.079
       240.000         205.000
  23718451.295    -5915478.47549  -4318698.58946  23718450.858    23718465.954
       219.000         164.000
 00  3 12  2 40  0.0000000  0  6G17G23G22G26G 6G21
  20789582.123   -25352457.70749 -18860326.19548  20789581.102    20789590.108
       245.000         215.000
  20972352.458   -25547275.58149 -19860193.30048  20972351.403    20972360.859
       245.000         214.000
  23657974.396    -8253084.38849  -5919799.85345  23657974.865    23657988.166
       215.000         158.000
  21829294.145   -19420886.09849 -15121074.98347  21829294.054    21829302.739
       231.000         188.000
  21076822.344   -19712672.99349 -14830904.10747  21076822.030    21076831.173
       240.000         204.000
  23703537.448    -5993850.00349  -4379766.99846  23703535.734    23703551.862
       218.000         163.000
 00  3 12  2 40 30.0000000  0  6G17G23G22G26G 6G21
  20787846.357   -25361578.88649 -18867433.54748  20787845.424    20787854.263
       245.000         216.000
  20966643.251   -25577277.20049 -19883571.08848  20966642.396    20966651.655
       245.000         214.000
  23661160.221    -8236342.36749  -5906754.09945  23661159.230    23661174.474
       213.000         157.000
  21833294.394   -19399864.47549 -15104694.45047  21833294.125    21833303.298
       232.000         188.000
  21089297.598   -19647115.20349 -14779820.12947  21089297.323    21089306.326
       240.000         204.000
  23688662.665    -6072016.27249  -4440675.47245  23688660.841    23688677.150
       218.000         162.000
 00  3 12  2 41  0.0000000  0  6G17G23G22G26G 6G21
  20786147.946   -25370503.89149 -18874388.03148  20786146.890    20786155.996
       245.000         216.000
  20961011.818   -25606870.00649 -19906630.32648  20961010.944    20961020.173
       244.000         214.000
  23664435.408    -8219130.83249  -5893342.48845  23664434.553    23664450.333
       214.000         157.000
  21837413.873   -19378216.27849 -15087825.67547  21837413.633    21837422.010
       232.000         188.000
  21101860.924   -19581094.52649 -14728375.46447  21101860.456    21101869.951
       240.000         204.000
  23673830.379    -6149959.23649  -4501409.94745  23673829.689    23673844.909
       220.000         162.000
 00  3 12  2 41 30.0000000  0  6G17G23G22G26G 6G21
  20784487.217   -25379230.84249 -18881188.18748  20784486.250    20784495.117
       245.000         216.000
  20955460.456   -25636042.36649 -19929361.94248  20955459.687    20955468.990
       245.000         214.000
  23667800.851    -8201444.91149  -5879561.23145  23667800.802    23667815.689
       214.000         156.000
  21841651.462   -19355947.24849 -15070473.13247  21841651.349    21841659.633
       232.000         188.000
  21114511.075   -19514617.73849 -14676575.39147  21114510.978    21114520.027
       240.000         204.000
  23659041.507    -6227674.14649  -4561966.72545  23659040.567    23659055.745
       218.000         162.000
 00  3 12  2 42  0.0000000  0  6G17G23G22G26G 6G21
  20782865.502   -25387752.75249 -18887828.57348  20782864.582    20782873.466
       246.000         216.000
  20949992.040   -25664778.75949 -19951753.83648  20949991.323    20950000.493
       245.000         214.000
  23671257.960    -8183277.66549  -5865404.90645  23671257.260    23671271.824
       213.000         156.000
  21846007.076   -19333058.32749 -15052637.55647  21846006.884    21846015.802
       233.000         189.000
  21127247.156   -19447689.17649 -14624423.27947  21127247.031    21127255.985
       240.000         204.000
  23644299.731    -6305140.97849  -4622330.19245  23644299.022    23644313.873
       218.000         161.000
 00  3 12  2 42 30.0000000  0  6G17G23G22G26G 6G21
  20781282.618   -25396070.59149 -18894309.94848  20781281.558    20781290.495
       245.000         216.000
  20944604.482   -25693090.24049 -19973814.63648  20944603.573    20944613.042
       245.000         214.000
  23674809.944    -8164611.72749  -5850859.98845  23674809.021    23674824.361
       214.000         156.000
  21850482.766   -19309538.25849 -15034310.17747  21850482.456    21850491.095
       232.000         189.000
  21140067.191   -19380319.49449 -14571927.44147  21140066.726    21140076.059
       239.000         203.000
  23629606.716    -6382352.12249  -4682494.42945  23629605.235    23629621.052
       219.000         161.000
 00  3 12  2 43  0.0000000  0  6G17G23G22G26G 6G21
  20779733.486   -25404210.86249 -18900652.95548  20779732.501    20779741.473
       245.000         216.000
  20939288.459   -25721025.90749 -19995582.59248  20939287.473    20939296.674
       246.000         214.000
  23678455.327    -8145455.25049  -5835932.82845  23678453.568    23678468.717
       213.000         155.000
  21855076.318   -19285398.46749 -15015499.89847  21855076.026    21855085.039
       233.000         189.000
  21152967.320   -19312528.65349 -14519103.42747  21152966.976    21152975.855
       239.000         203.000
  23614958.646    -6459326.95249  -4742474.54745  23614956.746    23614972.340
       218.000         161.000
 00  3 12  2 43 30.0000000  0  6G17G23G22G26G 6G21
  20778213.407   -25412198.89849 -18906877.32948  20778212.523    20778221.443
       245.000         216.000
  20934040.159   -25748605.37049 -20017072.98848  20934039.186    20934048.388
       245.000         214.000
  23682191.547    -8125820.98849  -5820633.38045  23682190.241    23682207.101
       214.000         155.000
  21859782.249   -19260668.82749 -14996229.99647  21859782.138    21859790.738
       233.000         189.000
  21165945.242   -19244329.05349 -14465960.90047  21165944.811    21165954.022
       239.000         202.000
  23600350.788    -6536090.56649  -4802290.06545  23600349.658    23600364.291
       220.000         160.000
 00  3 12  2 44  0.0000000  0  6G17G23G22G26G 6G21
  20776719.856   -25420047.23849 -18912992.84548  20776718.867    20776727.718
       245.000         216.000
  20928856.608   -25775844.80949 -20038298.42248  20928855.775    20928864.844
       245.000         215.000
  23686014.029    -8105733.87749  -5804981.05245  23686013.074    23686028.550
       214.000         155.000
  21864599.150   -19235355.61549 -14976505.36547  21864598.903    21864607.553
       232.000         189.000
  21178998.510   -19175733.66549 -14412509.96747  21178998.195    21179007.062
       239.000         202.000
  23585781.759    -6612649.98449  -4861946.48445  23585780.374    23585795.843
       218.000         160.000
 00  3 12  2 44 30.0000000  0  6G17G23G22G26G 6G21
  20775253.861   -25427750.64449 -18918995.42548  20775252.912    20775261.711
       245.000         216.000
  20923734.500   -25802761.08149 -20059272.04748  20923733.611    20923742.806
       245.000         215.000
  23689918.563    -8085216.20949  -5788993.22345  23689918.081    23689932.383
       215.000         155.000
  21869525.279   -19209468.52049 -14956333.55947  21869524.943    21869533.558
       233.000         189.000
  21192129.068   -19106732.19449 -14358742.61047  21192128.715    21192137.700
       239.000         202.000
  23571249.711    -6689015.14449  -4921451.52945  23571247.965    23571263.259
       219.000         160.000
 00  3 12  2 45  0.0000000  0  6G17G23G22G26G 6G21
  20773818.456   -25435293.40749 -18924872.82648  20773817.415    20773826.225
       245.000         216.000
  20918675.324   -25829347.04949 -20079988.28748  20918674.403    20918683.533
       245.000         215.000
  23693901.279    -8064287.00249  -5772684.69045  23693899.954    23693915.684
       214.000         155.000
  21874558.969   -19183015.80049 -14935721.00647  21874558.848    21874567.604
       233.000         189.000
  21205337.201   -19037323.06049 -14304657.58647  21205336.671    21205345.874
       239.000         202.000
  23556753.796    -6765190.80949  -4980808.92345  23556752.070    23556767.804
       219.000         160.000
 00  3 12  2 45 30.0000000  0  6G17G23G22G26G 6G21
  20772419.965   -25442642.17049 -18930599.06148  20772418.824    20772427.901
       245.000         216.000
  20913688.073   -25855554.72949 -20100409.75548  20913687.116    20913696.260
       245.000         215.000
  23697963.884    -8042937.31149  -5756048.51845  23697963.191    23697978.472
       214.000         155.000
  21879703.689   -19155979.80949 -14914653.94747  21879703.526    21879712.002
       232.000         189.000
  21218624.769   -18967496.51349 -14250247.31247  21218624.732    21218633.479
       239.000         202.000
  23542297.258    -6841158.85649  -5040004.53745  23542296.168    23542310.111
       219.000         160.000
 00  3 12  2 46  0.0000000  0  6G17G23G22G26G 6G21
  20771064.563   -25449764.47049 -18936148.83748  20771063.492    20771072.190
       245.000         215.000
  20908775.793   -25881368.60949 -20120524.36648  20908774.896    20908784.099
       246.000         215.000
  23702109.563    -8021151.25449  -5739072.32645  23702108.841    23702123.408
       215.000         155.000
  21884963.594   -19128338.45849 -14893115.18247  21884963.385    21884972.095
       233.000         189.000
  21231995.765   -18897231.48849 -14195495.36747  21231995.415    21232004.453
       239.000         202.000
  23527884.535    -6916897.18049  -5099021.14545  23527883.435    23527898.659
       220.000         161.000
 00  3 12  2 46 30.0000000  0  6G17G23G22G26G 6G21
  20769754.855   -25456646.76949 -18941511.60148  20769753.999    20769762.793
       245.000         215.000
  20903939.567   -25906782.73549 -20140327.48448  20903938.734    20903947.767
       246.000         215.000
  23706342.388    -7998907.63949  -5721739.60245  23706341.521    23706355.999
       214.000         155.000
  21890341.925   -19100075.32349 -14871091.91247  21890341.902    21890350.524
       232.000         189.000
  21245452.283   -18826517.04149 -14140393.21847  21245452.020    21245461.148
       239.000         201.000
  23513513.197    -6992417.86549  -5157868.16445  23513512.284    23513526.946
       218.000         161.000
 00  3 12  2 47  0.0000000  0  6G17G23G22G26G 6G21
  20768488.748   -25463299.88449 -18946695.78148  20768487.795    20768496.449
       245.000         215.000
  20899184.140   -25931772.25949 -20159799.74548  20899183.127    20899192.259
       245.000         215.000
  23710664.365    -7976194.81749  -5704041.26545  23710662.940    23710678.202
       215.000         155.000
  21895839.717   -19071184.08249 -14848579.20547  21895839.736    21895848.581
       232.000         189.000
  21258992.870   -18755360.95749 -14084946.93447  21258992.596    21259001.876
       238.000         201.000
  23499185.079    -7067711.26549  -5216538.08645  23499183.224    23499199.261
       218.000         161.000
 00  3 12  2 47 30.0000000  0  7G17G23G22G26G 6G21G 3
  20767264.060   -25469735.29649 -18951710.32448  20767263.173    20767272.090
       245.000         215.000
  20894509.338   -25956337.95449 -20178941.74548  20894508.523    20894517.448
       246.000         215.000
  23715074.538    -7953019.25549  -5685982.34045  23715074.056    23715088.649
       215.000         156.000
  21901457.282   -19041663.60249 -14825576.18947  21901457.157    21901465.430
       232.000         189.000
  21272618.229   -18683759.33549 -14029153.48547  21272618.043    21272626.752
       238.000         201.000
  23484901.660    -7142770.07449  -5275025.18345  23484901.111    23484915.508
       220.000         161.000
  24635420.323    -4425047.55349  -3419078.66245  24635420.413    24635434.953
       204.000         142.000
 00  3 12  2 48  0.0000000  0  7G17G23G22G26G 6G21G 3
  20766076.411   -25475976.11449 -18956573.23748  20766075.365    20766084.318
       245.000         215.000
  20889908.148   -25980517.11649 -20197782.54948  20889907.308    20889916.394
       246.000         216.000
  23719571.435    -7929387.96849  -5667568.31745  23719570.553    23719584.866
       215.000         156.000
  21907192.037   -19011526.88449 -14802092.98647  21907192.096    21907200.975
       232.000         189.000
  21286327.107   -18611718.84649 -13973018.05347  21286327.072    21286335.978
       239.000         201.000
  23470659.680    -7217611.57349  -5333342.95745  23470658.301    23470673.824
       220.000         162.000
  24615843.589    -4527923.08249  -3499241.10145  24615842.587    24615857.666
       205.000         143.000
 00  3 12  2 48 30.0000000  0  7G17G23G22G26G 6G21G 3
  20764927.969   -25482010.92949 -18961275.62448  20764926.950    20764935.887
       245.000         215.000
  20885386.500   -26004278.08349 -20216297.49048  20885385.658    20885394.670
       246.000         216.000
  23724159.177    -7905278.25249  -5648781.50045  23724158.157    23724172.859
       213.000         155.000
  21913049.668   -18980744.30249 -14778106.51347  21913049.501    21913058.125
       232.000         189.000
  21300121.594   -18539228.49349 -13916532.08447  21300120.853    21300130.394
       238.000         200.000
  23456466.612    -7292195.69749  -5391460.18246  23456465.167    23456479.995
       221.000         163.000
  24596287.938    -4630687.70749  -3579317.10845  24596287.544    24596302.856
       207.000         145.000
 00  3 12  2 49  0.0000000  0  7G17G23G22G26G 6G21G 3
  20763816.204   -25487853.11949 -18965827.91348  20763815.200    20763823.911
       245.000         215.000
  20880941.863   -26027634.38849 -20234497.11448  20880940.905    20880950.007
       246.000         216.000
  23728833.092    -7880716.58549  -5629642.50345  23728832.761    23728848.542
       214.000         155.000
  21919024.255   -18949347.46249 -14753641.40447  21919023.796    21919032.991
       232.000         188.000
  21313996.761   -18466313.81449 -13859715.47447  21313996.507    21314005.411
       238.000         200.000
  23442324.005    -7366514.09349  -5449370.34346  23442322.908    23442338.215
       221.000         164.000
  24576757.289    -4733320.73649  -3659290.58745  24576756.456    24576771.661
       209.000         146.000
 00  3 12  2 49 30.0000000  0  7G17G23G22G26G 6G21G 3
  20762741.389   -25493501.11149 -18970228.87948  20762740.474    20762749.185
       245.000         215.000
  20876568.741   -26050614.95749 -20252403.96248  20876567.923    20876576.836
       246.000         216.000
  23733592.295    -7855707.21449  -5610154.65245  23733592.086    23733605.738
       215.000         155.000
  21925114.770   -18917341.50249 -14728701.64447  21925114.889    21925123.037
       232.000         188.000
  21327948.842   -18392995.31049 -13802584.18947  21327948.489    21327957.708
       238.000         200.000
  23428227.783    -7440589.22049  -5507090.94346  23428226.936    23428241.618
       222.000         165.000
  24557254.209    -4835808.73649  -3739151.06945  24557252.888    24557269.174
       208.000         146.000
 00  3 12  2 50  0.0000000  0  7G17G23G22G26G 6G21G 3
  20761700.540   -25498970.47849 -18974490.66148  20761699.654    20761708.547
       245.000         215.000
  20872264.545   -26073233.32949 -20270028.57748  20872263.742    20872272.646
       246.000         216.000
  23738434.862    -7830259.18049  -5590324.98645  23738433.554    23738448.351
       215.000         154.000
  21931318.974   -18884738.26649 -14703296.48547  21931318.914    21931327.489
       232.000         188.000
  21341976.422   -18319280.07349 -13745143.76747  21341976.047    21341985.271
       238.000         200.000
  23414174.383    -7514439.34049  -5564636.21546  23414172.875    23414186.943
       223.000         166.000
  24537775.390    -4938169.27649  -3818912.23045  24537773.963    24537790.038
       208.000         146.000
 00  3 12  2 50 30.0000000  0  7G17G23G22G26G 6G21G 3
  20760693.318   -25504263.19149 -18978614.79048  20760692.292    20760701.063
       245.000         215.000
  20868032.151   -26095474.42449 -20287359.20848  20868031.273    20868040.239
       246.000         216.000
  23743357.076    -7804392.60349  -5570169.17445  23743357.106    23743371.132
       215.000         154.000
  21937634.442   -18851549.99349 -14677435.44547  21937634.492    21937643.213
       232.000         188.000
  21356078.935   -18245171.07549 -13687396.52247  21356078.614    21356087.785
       238.000         199.000
  23400163.034    -7588068.68649  -5622009.44846  23400161.805    23400176.304
       222.000         166.000
  24518322.186    -5040395.36849  -3898568.63145  24518320.280    24518336.991
       212.000         144.000
 00  3 12  2 51  0.0000000  0  7G17G23G22G26G 6G21G 3
  20759722.914   -25509362.32549 -18982588.07848  20759722.103    20759730.650
       245.000         215.000
  20863872.271   -26117334.29149 -20304392.78348  20863871.502    20863880.299
       246.000         216.000
  23748362.083    -7778090.87149  -5549674.28345  23748361.152    23748375.100
       215.000         155.000
  21944062.317   -18817771.06449 -14651114.16747  21944061.922    21944070.632
       232.000         188.000
  21370260.552   -18170646.32649 -13629325.31647  21370260.447    21370269.230
       238.000         199.000
  23386190.154    -7661495.61049  -5679224.95046  23386188.629    23386203.210
       224.000         167.000
  24498895.670    -5142481.46149  -3978115.93845  24498894.748    24498909.334
       214.000         144.000
 00  3 12  2 51 30.0000000  0  7G17G23G22G26G 6G21G 3
  20758789.352   -25514268.16749 -18986410.74948  20758788.310    20758796.862
       244.000         215.000
  20859784.905   -26138813.05549 -20321129.39248  20859784.072    20859792.897
       246.000         216.000
  23753451.898    -7751343.81949  -5528832.38645  23753450.458    23753466.196
       215.000         155.000
  21950605.653   -18783385.27549 -14624319.99847  21950605.462    21950614.036
       232.000         188.000
  21384524.177   -18095690.58949 -13570918.26847  21384524.062    21384532.824
       238.000         198.000
  23372251.700    -7734741.14549  -5736299.10546  23372250.048    23372264.121
       222.000         167.000
  24479491.636    -5244449.72349  -4057571.42145  24479490.262    24479505.899
       214.000         145.000
